<?xml version="1.0" encoding="UTF-8" standalone="no" ?>
<gpx xmlns="http://www.topografix.com/GPX/1/1" xmlns:xsi="http://www.w3.org/2001/XMLSchema-instance" xsi:schemaLocation="http://www.topografix.com/GPX/1/1 http://www.topografix.com/GPX/1/1/gpx.xsd" version="1.1" creator="VisuGPX - https://www.visugpx.com">
  <metadata>
    <name>ainsa</name>
  </metadata>
  <trk>
    <name><![CDATA[Zona Zéro 2018 #1 à suivre ☀️😊]]></name>
    <extensions>
      <line xmlns="http://www.topografix.com/GPX/gpx_style/0/2">
        <color>00FFFF</color>
        <width>4</width>
      </line>
    </extensions>
    <trkseg>
      <trkpt lat="42.37379" lon="0.27078">
        <ele>636.4</ele>
        <time>2018-05-06T07:41:29Z</time>
      </trkpt>
      <trkpt lat="42.3736" lon="0.27068">
        <ele>636.6</ele>
        <time>2018-05-06T07:41:34Z</time>
      </trkpt>
      <trkpt lat="42.37341" lon="0.27062">
        <ele>636.6</ele>
        <time>2018-05-06T07:41:41Z</time>
      </trkpt>
      <trkpt lat="42.37323" lon="0.27055">
        <ele>637</ele>
        <time>2018-05-06T07:41:48Z</time>
      </trkpt>
      <trkpt lat="42.37304" lon="0.2705">
        <ele>637</ele>
        <time>2018-05-06T07:41:53Z</time>
      </trkpt>
      <trkpt lat="42.37286" lon="0.27052">
        <ele>636.7</ele>
        <time>2018-05-06T07:41:57Z</time>
      </trkpt>
      <trkpt lat="42.37266" lon="0.27054">
        <ele>636.5</ele>
        <time>2018-05-06T07:42:01Z</time>
      </trkpt>
      <trkpt lat="42.37245" lon="0.27058">
        <ele>636.3</ele>
        <time>2018-05-06T07:42:05Z</time>
      </trkpt>
      <trkpt lat="42.37225" lon="0.27061">
        <ele>636.1</ele>
        <time>2018-05-06T07:42:09Z</time>
      </trkpt>
      <trkpt lat="42.37206" lon="0.27064">
        <ele>635.6</ele>
        <time>2018-05-06T07:42:13Z</time>
      </trkpt>
      <trkpt lat="42.37186" lon="0.27066">
        <ele>635.2</ele>
        <time>2018-05-06T07:42:17Z</time>
      </trkpt>
      <trkpt lat="42.37165" lon="0.27071">
        <ele>635.2</ele>
        <time>2018-05-06T07:42:21Z</time>
      </trkpt>
      <trkpt lat="42.37142" lon="0.27074">
        <ele>635.1</ele>
        <time>2018-05-06T07:42:25Z</time>
      </trkpt>
      <trkpt lat="42.37119" lon="0.27077">
        <ele>635</ele>
        <time>2018-05-06T07:42:29Z</time>
      </trkpt>
      <trkpt lat="42.37098" lon="0.2708">
        <ele>634.8</ele>
        <time>2018-05-06T07:42:33Z</time>
      </trkpt>
      <trkpt lat="42.37074" lon="0.27083">
        <ele>634.4</ele>
        <time>2018-05-06T07:42:37Z</time>
      </trkpt>
      <trkpt lat="42.37051" lon="0.27087">
        <ele>634</ele>
        <time>2018-05-06T07:42:41Z</time>
      </trkpt>
      <trkpt lat="42.37027" lon="0.27091">
        <ele>633.2</ele>
        <time>2018-05-06T07:42:45Z</time>
      </trkpt>
      <trkpt lat="42.37004" lon="0.27095">
        <ele>632.1</ele>
        <time>2018-05-06T07:42:49Z</time>
      </trkpt>
      <trkpt lat="42.36981" lon="0.271">
        <ele>631</ele>
        <time>2018-05-06T07:42:53Z</time>
      </trkpt>
      <trkpt lat="42.36957" lon="0.27102">
        <ele>631</ele>
        <time>2018-05-06T07:42:57Z</time>
      </trkpt>
      <trkpt lat="42.36935" lon="0.27096">
        <ele>630.8</ele>
        <time>2018-05-06T07:43:01Z</time>
      </trkpt>
      <trkpt lat="42.36913" lon="0.27083">
        <ele>630.5</ele>
        <time>2018-05-06T07:43:05Z</time>
      </trkpt>
      <trkpt lat="42.36892" lon="0.27071">
        <ele>630.1</ele>
        <time>2018-05-06T07:43:09Z</time>
      </trkpt>
      <trkpt lat="42.36888" lon="0.27067">
        <ele>630</ele>
        <time>2018-05-06T07:43:10Z</time>
      </trkpt>
      <trkpt lat="42.36888" lon="0.27041">
        <ele>630.4</ele>
        <time>2018-05-06T07:43:14Z</time>
      </trkpt>
      <trkpt lat="42.36896" lon="0.27018">
        <ele>631.2</ele>
        <time>2018-05-06T07:43:18Z</time>
      </trkpt>
      <trkpt lat="42.36903" lon="0.26994">
        <ele>631.8</ele>
        <time>2018-05-06T07:43:22Z</time>
      </trkpt>
      <trkpt lat="42.36911" lon="0.26967">
        <ele>632.8</ele>
        <time>2018-05-06T07:43:27Z</time>
      </trkpt>
      <trkpt lat="42.36918" lon="0.2694">
        <ele>633.7</ele>
        <time>2018-05-06T07:43:32Z</time>
      </trkpt>
      <trkpt lat="42.36921" lon="0.26923">
        <ele>634</ele>
        <time>2018-05-06T07:43:36Z</time>
      </trkpt>
      <trkpt lat="42.36902" lon="0.26916">
        <ele>633.7</ele>
        <time>2018-05-06T07:43:41Z</time>
      </trkpt>
      <trkpt lat="42.36881" lon="0.26919">
        <ele>633.2</ele>
        <time>2018-05-06T07:43:45Z</time>
      </trkpt>
      <trkpt lat="42.3686" lon="0.26922">
        <ele>632.6</ele>
        <time>2018-05-06T07:43:49Z</time>
      </trkpt>
      <trkpt lat="42.36837" lon="0.26927">
        <ele>631.9</ele>
        <time>2018-05-06T07:43:53Z</time>
      </trkpt>
      <trkpt lat="42.36815" lon="0.26932">
        <ele>631.1</ele>
        <time>2018-05-06T07:43:57Z</time>
      </trkpt>
      <trkpt lat="42.36803" lon="0.26933">
        <ele>630.8</ele>
        <time>2018-05-06T07:43:59Z</time>
      </trkpt>
      <trkpt lat="42.36784" lon="0.26922">
        <ele>631</ele>
        <time>2018-05-06T07:44:03Z</time>
      </trkpt>
      <trkpt lat="42.36776" lon="0.26912">
        <ele>631.6</ele>
        <time>2018-05-06T07:44:05Z</time>
      </trkpt>
      <trkpt lat="42.36763" lon="0.26889">
        <ele>633.2</ele>
        <time>2018-05-06T07:44:09Z</time>
      </trkpt>
      <trkpt lat="42.36752" lon="0.26869">
        <ele>634.9</ele>
        <time>2018-05-06T07:44:13Z</time>
      </trkpt>
      <trkpt lat="42.36735" lon="0.26853">
        <ele>636.1</ele>
        <time>2018-05-06T07:44:18Z</time>
      </trkpt>
      <trkpt lat="42.36717" lon="0.26846">
        <ele>636.5</ele>
        <time>2018-05-06T07:44:23Z</time>
      </trkpt>
      <trkpt lat="42.36697" lon="0.26843">
        <ele>636.4</ele>
        <time>2018-05-06T07:44:28Z</time>
      </trkpt>
      <trkpt lat="42.36677" lon="0.26839">
        <ele>636</ele>
        <time>2018-05-06T07:44:33Z</time>
      </trkpt>
      <trkpt lat="42.36656" lon="0.26834">
        <ele>635.8</ele>
        <time>2018-05-06T07:44:38Z</time>
      </trkpt>
      <trkpt lat="42.36635" lon="0.26826">
        <ele>635.2</ele>
        <time>2018-05-06T07:44:43Z</time>
      </trkpt>
      <trkpt lat="42.36614" lon="0.26812">
        <ele>634.7</ele>
        <time>2018-05-06T07:44:47Z</time>
      </trkpt>
      <trkpt lat="42.36595" lon="0.26797">
        <ele>634.1</ele>
        <time>2018-05-06T07:44:50Z</time>
      </trkpt>
      <trkpt lat="42.36572" lon="0.26777">
        <ele>633.7</ele>
        <time>2018-05-06T07:44:53Z</time>
      </trkpt>
      <trkpt lat="42.36557" lon="0.26763">
        <ele>633.2</ele>
        <time>2018-05-06T07:44:55Z</time>
      </trkpt>
      <trkpt lat="42.36542" lon="0.26748">
        <ele>632.7</ele>
        <time>2018-05-06T07:44:57Z</time>
      </trkpt>
      <trkpt lat="42.36524" lon="0.26728">
        <ele>632.6</ele>
        <time>2018-05-06T07:45:00Z</time>
      </trkpt>
      <trkpt lat="42.36513" lon="0.26707">
        <ele>632.8</ele>
        <time>2018-05-06T07:45:03Z</time>
      </trkpt>
      <trkpt lat="42.36507" lon="0.26695">
        <ele>633.1</ele>
        <time>2018-05-06T07:45:05Z</time>
      </trkpt>
      <trkpt lat="42.3649" lon="0.26684">
        <ele>633.1</ele>
        <time>2018-05-06T07:45:09Z</time>
      </trkpt>
      <trkpt lat="42.3647" lon="0.2668">
        <ele>632.9</ele>
        <time>2018-05-06T07:45:13Z</time>
      </trkpt>
      <trkpt lat="42.36452" lon="0.26676">
        <ele>633</ele>
        <time>2018-05-06T07:45:17Z</time>
      </trkpt>
      <trkpt lat="42.3643" lon="0.26671">
        <ele>633.5</ele>
        <time>2018-05-06T07:45:22Z</time>
      </trkpt>
      <trkpt lat="42.3641" lon="0.26664">
        <ele>634</ele>
        <time>2018-05-06T07:45:27Z</time>
      </trkpt>
      <trkpt lat="42.36389" lon="0.26653">
        <ele>634.1</ele>
        <time>2018-05-06T07:45:32Z</time>
      </trkpt>
      <trkpt lat="42.36371" lon="0.26642">
        <ele>634</ele>
        <time>2018-05-06T07:45:36Z</time>
      </trkpt>
      <trkpt lat="42.36351" lon="0.26632">
        <ele>633.6</ele>
        <time>2018-05-06T07:45:40Z</time>
      </trkpt>
      <trkpt lat="42.36332" lon="0.26622">
        <ele>632.8</ele>
        <time>2018-05-06T07:45:44Z</time>
      </trkpt>
      <trkpt lat="42.36312" lon="0.26611">
        <ele>631.9</ele>
        <time>2018-05-06T07:45:48Z</time>
      </trkpt>
      <trkpt lat="42.36291" lon="0.26601">
        <ele>631.1</ele>
        <time>2018-05-06T07:45:52Z</time>
      </trkpt>
      <trkpt lat="42.36271" lon="0.2659">
        <ele>630.2</ele>
        <time>2018-05-06T07:45:56Z</time>
      </trkpt>
      <trkpt lat="42.3625" lon="0.26578">
        <ele>629.2</ele>
        <time>2018-05-06T07:46:00Z</time>
      </trkpt>
      <trkpt lat="42.36228" lon="0.26565">
        <ele>627.9</ele>
        <time>2018-05-06T07:46:04Z</time>
      </trkpt>
      <trkpt lat="42.36208" lon="0.2655">
        <ele>626.1</ele>
        <time>2018-05-06T07:46:08Z</time>
      </trkpt>
      <trkpt lat="42.36192" lon="0.2654">
        <ele>625</ele>
        <time>2018-05-06T07:46:11Z</time>
      </trkpt>
      <trkpt lat="42.36169" lon="0.2653">
        <ele>623.6</ele>
        <time>2018-05-06T07:46:14Z</time>
      </trkpt>
      <trkpt lat="42.36144" lon="0.26523">
        <ele>622.4</ele>
        <time>2018-05-06T07:46:17Z</time>
      </trkpt>
      <trkpt lat="42.36126" lon="0.26519">
        <ele>621.7</ele>
        <time>2018-05-06T07:46:19Z</time>
      </trkpt>
      <trkpt lat="42.36106" lon="0.26517">
        <ele>620.7</ele>
        <time>2018-05-06T07:46:21Z</time>
      </trkpt>
      <trkpt lat="42.36086" lon="0.26514">
        <ele>620.1</ele>
        <time>2018-05-06T07:46:23Z</time>
      </trkpt>
      <trkpt lat="42.36065" lon="0.26509">
        <ele>618.7</ele>
        <time>2018-05-06T07:46:25Z</time>
      </trkpt>
      <trkpt lat="42.36044" lon="0.26502">
        <ele>617</ele>
        <time>2018-05-06T07:46:27Z</time>
      </trkpt>
      <trkpt lat="42.36024" lon="0.26492">
        <ele>615.8</ele>
        <time>2018-05-06T07:46:29Z</time>
      </trkpt>
      <trkpt lat="42.36007" lon="0.26474">
        <ele>613.9</ele>
        <time>2018-05-06T07:46:31Z</time>
      </trkpt>
      <trkpt lat="42.35996" lon="0.26449">
        <ele>611.3</ele>
        <time>2018-05-06T07:46:33Z</time>
      </trkpt>
      <trkpt lat="42.35988" lon="0.26417">
        <ele>609.2</ele>
        <time>2018-05-06T07:46:36Z</time>
      </trkpt>
      <trkpt lat="42.35984" lon="0.26393">
        <ele>608.3</ele>
        <time>2018-05-06T07:46:42Z</time>
      </trkpt>
      <trkpt lat="42.35979" lon="0.26368">
        <ele>608.5</ele>
        <time>2018-05-06T07:46:50Z</time>
      </trkpt>
      <trkpt lat="42.35975" lon="0.26345">
        <ele>609.3</ele>
        <time>2018-05-06T07:46:55Z</time>
      </trkpt>
      <trkpt lat="42.35971" lon="0.26319">
        <ele>610.6</ele>
        <time>2018-05-06T07:47:00Z</time>
      </trkpt>
      <trkpt lat="42.35961" lon="0.26297">
        <ele>611.6</ele>
        <time>2018-05-06T07:47:06Z</time>
      </trkpt>
      <trkpt lat="42.35947" lon="0.26281">
        <ele>612.4</ele>
        <time>2018-05-06T07:47:13Z</time>
      </trkpt>
      <trkpt lat="42.35931" lon="0.26267">
        <ele>613</ele>
        <time>2018-05-06T07:47:20Z</time>
      </trkpt>
      <trkpt lat="42.35916" lon="0.26248">
        <ele>613.8</ele>
        <time>2018-05-06T07:47:27Z</time>
      </trkpt>
      <trkpt lat="42.35902" lon="0.26228">
        <ele>615.3</ele>
        <time>2018-05-06T07:47:33Z</time>
      </trkpt>
      <trkpt lat="42.35887" lon="0.26208">
        <ele>617.2</ele>
        <time>2018-05-06T07:47:39Z</time>
      </trkpt>
      <trkpt lat="42.35873" lon="0.26187">
        <ele>619</ele>
        <time>2018-05-06T07:47:45Z</time>
      </trkpt>
      <trkpt lat="42.3586" lon="0.26167">
        <ele>620</ele>
        <time>2018-05-06T07:47:51Z</time>
      </trkpt>
      <trkpt lat="42.35851" lon="0.26146">
        <ele>621</ele>
        <time>2018-05-06T07:47:57Z</time>
      </trkpt>
      <trkpt lat="42.35854" lon="0.26121">
        <ele>622.1</ele>
        <time>2018-05-06T07:48:03Z</time>
      </trkpt>
      <trkpt lat="42.35858" lon="0.26096">
        <ele>624.5</ele>
        <time>2018-05-06T07:48:09Z</time>
      </trkpt>
      <trkpt lat="42.35861" lon="0.26071">
        <ele>626.8</ele>
        <time>2018-05-06T07:48:15Z</time>
      </trkpt>
      <trkpt lat="42.35865" lon="0.26046">
        <ele>628.7</ele>
        <time>2018-05-06T07:48:22Z</time>
      </trkpt>
      <trkpt lat="42.35867" lon="0.26022">
        <ele>630.4</ele>
        <time>2018-05-06T07:48:29Z</time>
      </trkpt>
      <trkpt lat="42.35872" lon="0.25995">
        <ele>631.3</ele>
        <time>2018-05-06T07:48:37Z</time>
      </trkpt>
      <trkpt lat="42.35879" lon="0.2597">
        <ele>632</ele>
        <time>2018-05-06T07:48:44Z</time>
      </trkpt>
      <trkpt lat="42.35889" lon="0.25946">
        <ele>632.6</ele>
        <time>2018-05-06T07:48:51Z</time>
      </trkpt>
      <trkpt lat="42.35903" lon="0.25926">
        <ele>633.6</ele>
        <time>2018-05-06T07:48:58Z</time>
      </trkpt>
      <trkpt lat="42.3592" lon="0.25914">
        <ele>635.4</ele>
        <time>2018-05-06T07:49:05Z</time>
      </trkpt>
      <trkpt lat="42.35937" lon="0.25903">
        <ele>636.6</ele>
        <time>2018-05-06T07:49:12Z</time>
      </trkpt>
      <trkpt lat="42.35954" lon="0.25892">
        <ele>638.2</ele>
        <time>2018-05-06T07:49:19Z</time>
      </trkpt>
      <trkpt lat="42.35971" lon="0.25883">
        <ele>639.3</ele>
        <time>2018-05-06T07:49:26Z</time>
      </trkpt>
      <trkpt lat="42.35989" lon="0.2587">
        <ele>641.3</ele>
        <time>2018-05-06T07:49:34Z</time>
      </trkpt>
      <trkpt lat="42.36006" lon="0.25865">
        <ele>643.4</ele>
        <time>2018-05-06T07:49:42Z</time>
      </trkpt>
      <trkpt lat="42.36024" lon="0.25871">
        <ele>644.4</ele>
        <time>2018-05-06T07:49:51Z</time>
      </trkpt>
      <trkpt lat="42.36043" lon="0.2588">
        <ele>644.8</ele>
        <time>2018-05-06T07:50:01Z</time>
      </trkpt>
      <trkpt lat="42.36063" lon="0.25881">
        <ele>645</ele>
        <time>2018-05-06T07:50:10Z</time>
      </trkpt>
      <trkpt lat="42.36082" lon="0.25876">
        <ele>645.2</ele>
        <time>2018-05-06T07:50:18Z</time>
      </trkpt>
      <trkpt lat="42.36084" lon="0.25851">
        <ele>646.3</ele>
        <time>2018-05-06T07:50:24Z</time>
      </trkpt>
      <trkpt lat="42.36078" lon="0.25823">
        <ele>647.5</ele>
        <time>2018-05-06T07:50:29Z</time>
      </trkpt>
      <trkpt lat="42.36078" lon="0.25794">
        <ele>648.2</ele>
        <time>2018-05-06T07:50:33Z</time>
      </trkpt>
      <trkpt lat="42.36081" lon="0.2578">
        <ele>648.4</ele>
        <time>2018-05-06T07:50:35Z</time>
      </trkpt>
      <trkpt lat="42.36089" lon="0.25753">
        <ele>648.7</ele>
        <time>2018-05-06T07:50:39Z</time>
      </trkpt>
      <trkpt lat="42.36096" lon="0.25731">
        <ele>648.9</ele>
        <time>2018-05-06T07:50:43Z</time>
      </trkpt>
      <trkpt lat="42.36099" lon="0.25705">
        <ele>649</ele>
        <time>2018-05-06T07:50:48Z</time>
      </trkpt>
      <trkpt lat="42.36094" lon="0.25677">
        <ele>648.6</ele>
        <time>2018-05-06T07:50:54Z</time>
      </trkpt>
      <trkpt lat="42.36091" lon="0.25658">
        <ele>647.9</ele>
        <time>2018-05-06T07:50:58Z</time>
      </trkpt>
      <trkpt lat="42.36102" lon="0.25635">
        <ele>647.7</ele>
        <time>2018-05-06T07:51:03Z</time>
      </trkpt>
      <trkpt lat="42.36105" lon="0.25632">
        <ele>647.6</ele>
        <time>2018-05-06T07:51:04Z</time>
      </trkpt>
      <trkpt lat="42.36121" lon="0.25616">
        <ele>647.5</ele>
        <time>2018-05-06T07:51:09Z</time>
      </trkpt>
      <trkpt lat="42.36138" lon="0.25599">
        <ele>647.5</ele>
        <time>2018-05-06T07:51:14Z</time>
      </trkpt>
      <trkpt lat="42.36146" lon="0.25589">
        <ele>647.5</ele>
        <time>2018-05-06T07:51:16Z</time>
      </trkpt>
      <trkpt lat="42.36159" lon="0.2557">
        <ele>647.2</ele>
        <time>2018-05-06T07:51:19Z</time>
      </trkpt>
      <trkpt lat="42.36172" lon="0.25546">
        <ele>646.6</ele>
        <time>2018-05-06T07:51:22Z</time>
      </trkpt>
      <trkpt lat="42.36187" lon="0.25518">
        <ele>646</ele>
        <time>2018-05-06T07:51:25Z</time>
      </trkpt>
      <trkpt lat="42.362" lon="0.255">
        <ele>645.5</ele>
        <time>2018-05-06T07:51:27Z</time>
      </trkpt>
      <trkpt lat="42.36214" lon="0.25482">
        <ele>644.9</ele>
        <time>2018-05-06T07:51:29Z</time>
      </trkpt>
      <trkpt lat="42.36232" lon="0.25457">
        <ele>644.3</ele>
        <time>2018-05-06T07:51:32Z</time>
      </trkpt>
      <trkpt lat="42.36248" lon="0.25435">
        <ele>644.1</ele>
        <time>2018-05-06T07:51:35Z</time>
      </trkpt>
      <trkpt lat="42.36253" lon="0.25427">
        <ele>644.1</ele>
        <time>2018-05-06T07:51:36Z</time>
      </trkpt>
      <trkpt lat="42.36256" lon="0.25401">
        <ele>644.7</ele>
        <time>2018-05-06T07:51:39Z</time>
      </trkpt>
      <trkpt lat="42.36246" lon="0.25379">
        <ele>645.7</ele>
        <time>2018-05-06T07:51:42Z</time>
      </trkpt>
      <trkpt lat="42.36234" lon="0.2536">
        <ele>646.9</ele>
        <time>2018-05-06T07:51:45Z</time>
      </trkpt>
      <trkpt lat="42.36222" lon="0.25335">
        <ele>648.4</ele>
        <time>2018-05-06T07:51:49Z</time>
      </trkpt>
      <trkpt lat="42.3621" lon="0.2531">
        <ele>649.5</ele>
        <time>2018-05-06T07:51:54Z</time>
      </trkpt>
      <trkpt lat="42.362" lon="0.25289">
        <ele>650</ele>
        <time>2018-05-06T07:51:59Z</time>
      </trkpt>
      <trkpt lat="42.3619" lon="0.25266">
        <ele>650.6</ele>
        <time>2018-05-06T07:52:04Z</time>
      </trkpt>
      <trkpt lat="42.36179" lon="0.25243">
        <ele>651.8</ele>
        <time>2018-05-06T07:52:09Z</time>
      </trkpt>
      <trkpt lat="42.3617" lon="0.25221">
        <ele>653</ele>
        <time>2018-05-06T07:52:14Z</time>
      </trkpt>
      <trkpt lat="42.36159" lon="0.25199">
        <ele>654.3</ele>
        <time>2018-05-06T07:52:19Z</time>
      </trkpt>
      <trkpt lat="42.3615" lon="0.25176">
        <ele>655.3</ele>
        <time>2018-05-06T07:52:24Z</time>
      </trkpt>
      <trkpt lat="42.36143" lon="0.2515">
        <ele>656.3</ele>
        <time>2018-05-06T07:52:29Z</time>
      </trkpt>
      <trkpt lat="42.36142" lon="0.25125">
        <ele>657.3</ele>
        <time>2018-05-06T07:52:34Z</time>
      </trkpt>
      <trkpt lat="42.36144" lon="0.25096">
        <ele>659.9</ele>
        <time>2018-05-06T07:52:40Z</time>
      </trkpt>
      <trkpt lat="42.36146" lon="0.25072">
        <ele>663.6</ele>
        <time>2018-05-06T07:52:46Z</time>
      </trkpt>
      <trkpt lat="42.36147" lon="0.25047">
        <ele>664.8</ele>
        <time>2018-05-06T07:52:53Z</time>
      </trkpt>
      <trkpt lat="42.36148" lon="0.2502">
        <ele>666.1</ele>
        <time>2018-05-06T07:53:00Z</time>
      </trkpt>
      <trkpt lat="42.36146" lon="0.24992">
        <ele>667.5</ele>
        <time>2018-05-06T07:53:07Z</time>
      </trkpt>
      <trkpt lat="42.36141" lon="0.24965">
        <ele>668.9</ele>
        <time>2018-05-06T07:53:14Z</time>
      </trkpt>
      <trkpt lat="42.36139" lon="0.24939">
        <ele>670.4</ele>
        <time>2018-05-06T07:53:21Z</time>
      </trkpt>
      <trkpt lat="42.36136" lon="0.24915">
        <ele>671.8</ele>
        <time>2018-05-06T07:53:28Z</time>
      </trkpt>
      <trkpt lat="42.36132" lon="0.2489">
        <ele>673.5</ele>
        <time>2018-05-06T07:53:35Z</time>
      </trkpt>
      <trkpt lat="42.36132" lon="0.24866">
        <ele>675.2</ele>
        <time>2018-05-06T07:53:42Z</time>
      </trkpt>
      <trkpt lat="42.36132" lon="0.24841">
        <ele>676.7</ele>
        <time>2018-05-06T07:53:49Z</time>
      </trkpt>
      <trkpt lat="42.3613" lon="0.24815">
        <ele>677.5</ele>
        <time>2018-05-06T07:53:56Z</time>
      </trkpt>
      <trkpt lat="42.36126" lon="0.24789">
        <ele>678.3</ele>
        <time>2018-05-06T07:54:03Z</time>
      </trkpt>
      <trkpt lat="42.36123" lon="0.24765">
        <ele>679.9</ele>
        <time>2018-05-06T07:54:10Z</time>
      </trkpt>
      <trkpt lat="42.36118" lon="0.24741">
        <ele>682</ele>
        <time>2018-05-06T07:54:17Z</time>
      </trkpt>
      <trkpt lat="42.36113" lon="0.24718">
        <ele>684.6</ele>
        <time>2018-05-06T07:54:24Z</time>
      </trkpt>
      <trkpt lat="42.36109" lon="0.24693">
        <ele>687.3</ele>
        <time>2018-05-06T07:54:31Z</time>
      </trkpt>
      <trkpt lat="42.36104" lon="0.24669">
        <ele>689.9</ele>
        <time>2018-05-06T07:54:38Z</time>
      </trkpt>
      <trkpt lat="42.36102" lon="0.24645">
        <ele>692.7</ele>
        <time>2018-05-06T07:54:46Z</time>
      </trkpt>
      <trkpt lat="42.36111" lon="0.24624">
        <ele>695.1</ele>
        <time>2018-05-06T07:54:55Z</time>
      </trkpt>
      <trkpt lat="42.36124" lon="0.24605">
        <ele>696.6</ele>
        <time>2018-05-06T07:55:05Z</time>
      </trkpt>
      <trkpt lat="42.36136" lon="0.24586">
        <ele>698.2</ele>
        <time>2018-05-06T07:55:15Z</time>
      </trkpt>
      <trkpt lat="42.36148" lon="0.24564">
        <ele>699.9</ele>
        <time>2018-05-06T07:55:25Z</time>
      </trkpt>
      <trkpt lat="42.36159" lon="0.24545">
        <ele>701.1</ele>
        <time>2018-05-06T07:55:34Z</time>
      </trkpt>
      <trkpt lat="42.36172" lon="0.24526">
        <ele>702.9</ele>
        <time>2018-05-06T07:55:43Z</time>
      </trkpt>
      <trkpt lat="42.36186" lon="0.24506">
        <ele>704.5</ele>
        <time>2018-05-06T07:55:51Z</time>
      </trkpt>
      <trkpt lat="42.36199" lon="0.24489">
        <ele>706.4</ele>
        <time>2018-05-06T07:55:58Z</time>
      </trkpt>
      <trkpt lat="42.36216" lon="0.24476">
        <ele>707.9</ele>
        <time>2018-05-06T07:56:05Z</time>
      </trkpt>
      <trkpt lat="42.36233" lon="0.24466">
        <ele>708.7</ele>
        <time>2018-05-06T07:56:11Z</time>
      </trkpt>
      <trkpt lat="42.36252" lon="0.2446">
        <ele>709.5</ele>
        <time>2018-05-06T07:56:17Z</time>
      </trkpt>
      <trkpt lat="42.36272" lon="0.24455">
        <ele>710.8</ele>
        <time>2018-05-06T07:56:23Z</time>
      </trkpt>
      <trkpt lat="42.3629" lon="0.24446">
        <ele>712.3</ele>
        <time>2018-05-06T07:56:29Z</time>
      </trkpt>
      <trkpt lat="42.36307" lon="0.24435">
        <ele>715.2</ele>
        <time>2018-05-06T07:56:35Z</time>
      </trkpt>
      <trkpt lat="42.36324" lon="0.24422">
        <ele>717.9</ele>
        <time>2018-05-06T07:56:42Z</time>
      </trkpt>
      <trkpt lat="42.36341" lon="0.24409">
        <ele>721.3</ele>
        <time>2018-05-06T07:56:50Z</time>
      </trkpt>
      <trkpt lat="42.36358" lon="0.24401">
        <ele>722.9</ele>
        <time>2018-05-06T07:56:58Z</time>
      </trkpt>
      <trkpt lat="42.36379" lon="0.24397">
        <ele>724</ele>
        <time>2018-05-06T07:57:06Z</time>
      </trkpt>
      <trkpt lat="42.36399" lon="0.24392">
        <ele>725.3</ele>
        <time>2018-05-06T07:57:14Z</time>
      </trkpt>
      <trkpt lat="42.36418" lon="0.24387">
        <ele>726.7</ele>
        <time>2018-05-06T07:57:22Z</time>
      </trkpt>
      <trkpt lat="42.36437" lon="0.24385">
        <ele>727.6</ele>
        <time>2018-05-06T07:57:31Z</time>
      </trkpt>
      <trkpt lat="42.36455" lon="0.24378">
        <ele>728.7</ele>
        <time>2018-05-06T07:57:42Z</time>
      </trkpt>
      <trkpt lat="42.36472" lon="0.2437">
        <ele>730.9</ele>
        <time>2018-05-06T07:57:54Z</time>
      </trkpt>
      <trkpt lat="42.3649" lon="0.24362">
        <ele>734</ele>
        <time>2018-05-06T07:58:04Z</time>
      </trkpt>
      <trkpt lat="42.36509" lon="0.24359">
        <ele>733.9</ele>
        <time>2018-05-06T07:58:14Z</time>
      </trkpt>
      <trkpt lat="42.36528" lon="0.24358">
        <ele>734.4</ele>
        <time>2018-05-06T07:58:24Z</time>
      </trkpt>
      <trkpt lat="42.36546" lon="0.24356">
        <ele>736.4</ele>
        <time>2018-05-06T07:58:34Z</time>
      </trkpt>
      <trkpt lat="42.36557" lon="0.24337">
        <ele>743.2</ele>
        <time>2018-05-06T07:58:44Z</time>
      </trkpt>
      <trkpt lat="42.36556" lon="0.24335">
        <ele>743.9</ele>
        <time>2018-05-06T07:58:45Z</time>
      </trkpt>
      <trkpt lat="42.3654" lon="0.24325">
        <ele>744.4</ele>
        <time>2018-05-06T07:58:56Z</time>
      </trkpt>
      <trkpt lat="42.36521" lon="0.24325">
        <ele>746</ele>
        <time>2018-05-06T07:59:06Z</time>
      </trkpt>
      <trkpt lat="42.36502" lon="0.24321">
        <ele>747.4</ele>
        <time>2018-05-06T07:59:16Z</time>
      </trkpt>
      <trkpt lat="42.36484" lon="0.24316">
        <ele>749.2</ele>
        <time>2018-05-06T07:59:27Z</time>
      </trkpt>
      <trkpt lat="42.36465" lon="0.24308">
        <ele>751.2</ele>
        <time>2018-05-06T07:59:39Z</time>
      </trkpt>
      <trkpt lat="42.36447" lon="0.24299">
        <ele>753.3</ele>
        <time>2018-05-06T07:59:51Z</time>
      </trkpt>
      <trkpt lat="42.36428" lon="0.24295">
        <ele>753.2</ele>
        <time>2018-05-06T08:00:02Z</time>
      </trkpt>
      <trkpt lat="42.3641" lon="0.24289">
        <ele>753.9</ele>
        <time>2018-05-06T08:00:12Z</time>
      </trkpt>
      <trkpt lat="42.36394" lon="0.24276">
        <ele>756.9</ele>
        <time>2018-05-06T08:00:22Z</time>
      </trkpt>
      <trkpt lat="42.36381" lon="0.24256">
        <ele>759.7</ele>
        <time>2018-05-06T08:00:31Z</time>
      </trkpt>
      <trkpt lat="42.36366" lon="0.2424">
        <ele>762.2</ele>
        <time>2018-05-06T08:00:40Z</time>
      </trkpt>
      <trkpt lat="42.36352" lon="0.24223">
        <ele>765.2</ele>
        <time>2018-05-06T08:00:49Z</time>
      </trkpt>
      <trkpt lat="42.3636" lon="0.24202">
        <ele>767.2</ele>
        <time>2018-05-06T08:00:59Z</time>
      </trkpt>
      <trkpt lat="42.3638" lon="0.24203">
        <ele>768.9</ele>
        <time>2018-05-06T08:01:09Z</time>
      </trkpt>
      <trkpt lat="42.36399" lon="0.24207">
        <ele>769.7</ele>
        <time>2018-05-06T08:01:19Z</time>
      </trkpt>
      <trkpt lat="42.36416" lon="0.24216">
        <ele>770.7</ele>
        <time>2018-05-06T08:01:28Z</time>
      </trkpt>
      <trkpt lat="42.36433" lon="0.24229">
        <ele>770.7</ele>
        <time>2018-05-06T08:01:38Z</time>
      </trkpt>
      <trkpt lat="42.36449" lon="0.24241">
        <ele>769.5</ele>
        <time>2018-05-06T08:01:48Z</time>
      </trkpt>
      <trkpt lat="42.36456" lon="0.24224">
        <ele>772.7</ele>
        <time>2018-05-06T08:01:57Z</time>
      </trkpt>
      <trkpt lat="42.36446" lon="0.24203">
        <ele>775.3</ele>
        <time>2018-05-06T08:02:06Z</time>
      </trkpt>
      <trkpt lat="42.36436" lon="0.24181">
        <ele>776.6</ele>
        <time>2018-05-06T08:02:15Z</time>
      </trkpt>
      <trkpt lat="42.36425" lon="0.24161">
        <ele>775.7</ele>
        <time>2018-05-06T08:02:24Z</time>
      </trkpt>
      <trkpt lat="42.36413" lon="0.24143">
        <ele>774.2</ele>
        <time>2018-05-06T08:02:33Z</time>
      </trkpt>
      <trkpt lat="42.36404" lon="0.24122">
        <ele>772.4</ele>
        <time>2018-05-06T08:02:42Z</time>
      </trkpt>
      <trkpt lat="42.36388" lon="0.24107">
        <ele>770.4</ele>
        <time>2018-05-06T08:02:52Z</time>
      </trkpt>
      <trkpt lat="42.36371" lon="0.24093">
        <ele>769.3</ele>
        <time>2018-05-06T08:03:01Z</time>
      </trkpt>
      <trkpt lat="42.36354" lon="0.24083">
        <ele>769.8</ele>
        <time>2018-05-06T08:03:09Z</time>
      </trkpt>
      <trkpt lat="42.36336" lon="0.24075">
        <ele>770.6</ele>
        <time>2018-05-06T08:03:17Z</time>
      </trkpt>
      <trkpt lat="42.36317" lon="0.24067">
        <ele>773.8</ele>
        <time>2018-05-06T08:03:24Z</time>
      </trkpt>
      <trkpt lat="42.363" lon="0.24059">
        <ele>777.5</ele>
        <time>2018-05-06T08:03:30Z</time>
      </trkpt>
      <trkpt lat="42.36283" lon="0.24046">
        <ele>779.2</ele>
        <time>2018-05-06T08:03:37Z</time>
      </trkpt>
      <trkpt lat="42.36267" lon="0.24032">
        <ele>782.3</ele>
        <time>2018-05-06T08:03:44Z</time>
      </trkpt>
      <trkpt lat="42.36251" lon="0.24015">
        <ele>784.7</ele>
        <time>2018-05-06T08:03:52Z</time>
      </trkpt>
      <trkpt lat="42.36233" lon="0.24007">
        <ele>788.9</ele>
        <time>2018-05-06T08:04:00Z</time>
      </trkpt>
      <trkpt lat="42.36213" lon="0.24001">
        <ele>792.3</ele>
        <time>2018-05-06T08:04:08Z</time>
      </trkpt>
      <trkpt lat="42.36193" lon="0.23998">
        <ele>796.3</ele>
        <time>2018-05-06T08:04:15Z</time>
      </trkpt>
      <trkpt lat="42.36174" lon="0.23988">
        <ele>799.4</ele>
        <time>2018-05-06T08:04:21Z</time>
      </trkpt>
      <trkpt lat="42.36157" lon="0.23974">
        <ele>801.4</ele>
        <time>2018-05-06T08:04:27Z</time>
      </trkpt>
      <trkpt lat="42.36139" lon="0.23962">
        <ele>803.9</ele>
        <time>2018-05-06T08:04:34Z</time>
      </trkpt>
      <trkpt lat="42.36125" lon="0.23944">
        <ele>805</ele>
        <time>2018-05-06T08:04:40Z</time>
      </trkpt>
      <trkpt lat="42.36119" lon="0.23916">
        <ele>804</ele>
        <time>2018-05-06T08:04:45Z</time>
      </trkpt>
      <trkpt lat="42.3612" lon="0.23893">
        <ele>806.3</ele>
        <time>2018-05-06T08:04:49Z</time>
      </trkpt>
      <trkpt lat="42.36121" lon="0.23868">
        <ele>809.9</ele>
        <time>2018-05-06T08:04:54Z</time>
      </trkpt>
      <trkpt lat="42.36125" lon="0.23842">
        <ele>813.8</ele>
        <time>2018-05-06T08:05:00Z</time>
      </trkpt>
      <trkpt lat="42.36127" lon="0.23817">
        <ele>818</ele>
        <time>2018-05-06T08:05:07Z</time>
      </trkpt>
      <trkpt lat="42.36117" lon="0.23796">
        <ele>822.8</ele>
        <time>2018-05-06T08:05:17Z</time>
      </trkpt>
      <trkpt lat="42.36099" lon="0.23785">
        <ele>826</ele>
        <time>2018-05-06T08:05:27Z</time>
      </trkpt>
      <trkpt lat="42.36081" lon="0.23778">
        <ele>829.2</ele>
        <time>2018-05-06T08:05:38Z</time>
      </trkpt>
      <trkpt lat="42.36074" lon="0.23776">
        <ele>830.5</ele>
        <time>2018-05-06T08:05:43Z</time>
      </trkpt>
      <trkpt lat="42.36073" lon="0.23762">
        <ele>832.4</ele>
        <time>2018-05-06T08:05:51Z</time>
      </trkpt>
      <trkpt lat="42.36076" lon="0.23756">
        <ele>833.4</ele>
        <time>2018-05-06T08:05:55Z</time>
      </trkpt>
      <trkpt lat="42.36091" lon="0.2374">
        <ele>835.5</ele>
        <time>2018-05-06T08:06:08Z</time>
      </trkpt>
      <trkpt lat="42.36105" lon="0.23723">
        <ele>837.3</ele>
        <time>2018-05-06T08:06:22Z</time>
      </trkpt>
      <trkpt lat="42.36123" lon="0.2371">
        <ele>839.5</ele>
        <time>2018-05-06T08:06:34Z</time>
      </trkpt>
      <trkpt lat="42.36137" lon="0.23693">
        <ele>841.6</ele>
        <time>2018-05-06T08:06:45Z</time>
      </trkpt>
      <trkpt lat="42.3615" lon="0.23681">
        <ele>842.7</ele>
        <time>2018-05-06T08:06:54Z</time>
      </trkpt>
      <trkpt lat="42.36169" lon="0.23677">
        <ele>840.7</ele>
        <time>2018-05-06T08:07:06Z</time>
      </trkpt>
      <trkpt lat="42.36181" lon="0.23656">
        <ele>846.3</ele>
        <time>2018-05-06T08:07:19Z</time>
      </trkpt>
      <trkpt lat="42.36172" lon="0.23639">
        <ele>853</ele>
        <time>2018-05-06T08:07:34Z</time>
      </trkpt>
      <trkpt lat="42.36153" lon="0.23638">
        <ele>854.9</ele>
        <time>2018-05-06T08:07:47Z</time>
      </trkpt>
      <trkpt lat="42.36134" lon="0.23637">
        <ele>858.3</ele>
        <time>2018-05-06T08:07:58Z</time>
      </trkpt>
      <trkpt lat="42.36115" lon="0.23636">
        <ele>860</ele>
        <time>2018-05-06T08:08:10Z</time>
      </trkpt>
      <trkpt lat="42.36097" lon="0.23642">
        <ele>861.9</ele>
        <time>2018-05-06T08:08:22Z</time>
      </trkpt>
      <trkpt lat="42.3608" lon="0.23652">
        <ele>858.5</ele>
        <time>2018-05-06T08:08:34Z</time>
      </trkpt>
      <trkpt lat="42.36062" lon="0.23652">
        <ele>860.1</ele>
        <time>2018-05-06T08:08:46Z</time>
      </trkpt>
      <trkpt lat="42.36043" lon="0.2365">
        <ele>862.1</ele>
        <time>2018-05-06T08:08:58Z</time>
      </trkpt>
      <trkpt lat="42.36026" lon="0.23642">
        <ele>865.9</ele>
        <time>2018-05-06T08:09:08Z</time>
      </trkpt>
      <trkpt lat="42.36011" lon="0.23629">
        <ele>869.5</ele>
        <time>2018-05-06T08:09:19Z</time>
      </trkpt>
      <trkpt lat="42.35994" lon="0.23621">
        <ele>873.4</ele>
        <time>2018-05-06T08:09:33Z</time>
      </trkpt>
      <trkpt lat="42.35986" lon="0.23611">
        <ele>875.2</ele>
        <time>2018-05-06T08:09:41Z</time>
      </trkpt>
      <trkpt lat="42.35989" lon="0.23604">
        <ele>876</ele>
        <time>2018-05-06T08:09:46Z</time>
      </trkpt>
      <trkpt lat="42.36007" lon="0.23599">
        <ele>876.9</ele>
        <time>2018-05-06T08:10:00Z</time>
      </trkpt>
      <trkpt lat="42.36026" lon="0.23598">
        <ele>876.9</ele>
        <time>2018-05-06T08:10:13Z</time>
      </trkpt>
      <trkpt lat="42.36037" lon="0.23591">
        <ele>878.2</ele>
        <time>2018-05-06T08:10:22Z</time>
      </trkpt>
      <trkpt lat="42.36028" lon="0.23579">
        <ele>880.9</ele>
        <time>2018-05-06T08:10:36Z</time>
      </trkpt>
      <trkpt lat="42.36011" lon="0.23573">
        <ele>883.5</ele>
        <time>2018-05-06T08:10:49Z</time>
      </trkpt>
      <trkpt lat="42.36009" lon="0.2357">
        <ele>884.2</ele>
        <time>2018-05-06T08:10:51Z</time>
      </trkpt>
      <trkpt lat="42.36008" lon="0.23563">
        <ele>884.4</ele>
        <time>2018-05-06T08:10:55Z</time>
      </trkpt>
      <trkpt lat="42.36013" lon="0.23558">
        <ele>885.9</ele>
        <time>2018-05-06T08:10:59Z</time>
      </trkpt>
      <trkpt lat="42.3603" lon="0.23549">
        <ele>888.9</ele>
        <time>2018-05-06T08:11:12Z</time>
      </trkpt>
      <trkpt lat="42.36047" lon="0.2354">
        <ele>891.4</ele>
        <time>2018-05-06T08:11:25Z</time>
      </trkpt>
      <trkpt lat="42.36065" lon="0.23533">
        <ele>894.1</ele>
        <time>2018-05-06T08:11:38Z</time>
      </trkpt>
      <trkpt lat="42.36082" lon="0.23521">
        <ele>896.1</ele>
        <time>2018-05-06T08:11:51Z</time>
      </trkpt>
      <trkpt lat="42.36097" lon="0.23507">
        <ele>897.6</ele>
        <time>2018-05-06T08:12:05Z</time>
      </trkpt>
      <trkpt lat="42.36112" lon="0.23493">
        <ele>900.6</ele>
        <time>2018-05-06T08:12:18Z</time>
      </trkpt>
      <trkpt lat="42.36126" lon="0.23477">
        <ele>902.9</ele>
        <time>2018-05-06T08:12:31Z</time>
      </trkpt>
      <trkpt lat="42.3614" lon="0.23461">
        <ele>905.2</ele>
        <time>2018-05-06T08:12:45Z</time>
      </trkpt>
      <trkpt lat="42.36151" lon="0.23441">
        <ele>907.6</ele>
        <time>2018-05-06T08:12:58Z</time>
      </trkpt>
      <trkpt lat="42.36158" lon="0.23418">
        <ele>910.4</ele>
        <time>2018-05-06T08:13:09Z</time>
      </trkpt>
      <trkpt lat="42.36162" lon="0.23393">
        <ele>913.9</ele>
        <time>2018-05-06T08:13:21Z</time>
      </trkpt>
      <trkpt lat="42.36163" lon="0.23367">
        <ele>917.8</ele>
        <time>2018-05-06T08:13:32Z</time>
      </trkpt>
      <trkpt lat="42.36175" lon="0.23347">
        <ele>921.3</ele>
        <time>2018-05-06T08:13:41Z</time>
      </trkpt>
      <trkpt lat="42.36188" lon="0.23328">
        <ele>925.1</ele>
        <time>2018-05-06T08:13:49Z</time>
      </trkpt>
      <trkpt lat="42.36206" lon="0.23312">
        <ele>927.5</ele>
        <time>2018-05-06T08:13:56Z</time>
      </trkpt>
      <trkpt lat="42.36225" lon="0.23308">
        <ele>927.8</ele>
        <time>2018-05-06T08:14:03Z</time>
      </trkpt>
      <trkpt lat="42.36242" lon="0.23315">
        <ele>927.1</ele>
        <time>2018-05-06T08:14:10Z</time>
      </trkpt>
      <trkpt lat="42.36261" lon="0.23318">
        <ele>926.2</ele>
        <time>2018-05-06T08:14:17Z</time>
      </trkpt>
      <trkpt lat="42.36279" lon="0.23311">
        <ele>925.7</ele>
        <time>2018-05-06T08:14:26Z</time>
      </trkpt>
      <trkpt lat="42.36295" lon="0.233">
        <ele>924.9</ele>
        <time>2018-05-06T08:14:33Z</time>
      </trkpt>
      <trkpt lat="42.3631" lon="0.23283">
        <ele>924.1</ele>
        <time>2018-05-06T08:14:40Z</time>
      </trkpt>
      <trkpt lat="42.36317" lon="0.23267">
        <ele>925.7</ele>
        <time>2018-05-06T08:14:47Z</time>
      </trkpt>
      <trkpt lat="42.36311" lon="0.23259">
        <ele>926.9</ele>
        <time>2018-05-06T08:14:53Z</time>
      </trkpt>
      <trkpt lat="42.36293" lon="0.23257">
        <ele>930.5</ele>
        <time>2018-05-06T08:15:08Z</time>
      </trkpt>
      <trkpt lat="42.36274" lon="0.23255">
        <ele>932.5</ele>
        <time>2018-05-06T08:15:21Z</time>
      </trkpt>
      <trkpt lat="42.36256" lon="0.23244">
        <ele>934.8</ele>
        <time>2018-05-06T08:15:36Z</time>
      </trkpt>
      <trkpt lat="42.36257" lon="0.23229">
        <ele>937</ele>
        <time>2018-05-06T08:15:44Z</time>
      </trkpt>
      <trkpt lat="42.36269" lon="0.23211">
        <ele>939</ele>
        <time>2018-05-06T08:15:57Z</time>
      </trkpt>
      <trkpt lat="42.36278" lon="0.2319">
        <ele>940</ele>
        <time>2018-05-06T08:16:10Z</time>
      </trkpt>
      <trkpt lat="42.36284" lon="0.23167">
        <ele>942.2</ele>
        <time>2018-05-06T08:16:21Z</time>
      </trkpt>
      <trkpt lat="42.36285" lon="0.23144">
        <ele>944.1</ele>
        <time>2018-05-06T08:16:31Z</time>
      </trkpt>
      <trkpt lat="42.36285" lon="0.23119">
        <ele>945.9</ele>
        <time>2018-05-06T08:16:41Z</time>
      </trkpt>
      <trkpt lat="42.36287" lon="0.23093">
        <ele>947.9</ele>
        <time>2018-05-06T08:16:50Z</time>
      </trkpt>
      <trkpt lat="42.36288" lon="0.23066">
        <ele>949.5</ele>
        <time>2018-05-06T08:16:59Z</time>
      </trkpt>
      <trkpt lat="42.36288" lon="0.23041">
        <ele>951.3</ele>
        <time>2018-05-06T08:17:08Z</time>
      </trkpt>
      <trkpt lat="42.3629" lon="0.23014">
        <ele>952.2</ele>
        <time>2018-05-06T08:17:17Z</time>
      </trkpt>
      <trkpt lat="42.36296" lon="0.22991">
        <ele>952.9</ele>
        <time>2018-05-06T08:17:25Z</time>
      </trkpt>
      <trkpt lat="42.36302" lon="0.22967">
        <ele>952.6</ele>
        <time>2018-05-06T08:17:34Z</time>
      </trkpt>
      <trkpt lat="42.3631" lon="0.22943">
        <ele>950.6</ele>
        <time>2018-05-06T08:17:43Z</time>
      </trkpt>
      <trkpt lat="42.36311" lon="0.2292">
        <ele>947.6</ele>
        <time>2018-05-06T08:17:52Z</time>
      </trkpt>
      <trkpt lat="42.36298" lon="0.22923">
        <ele>947.4</ele>
        <time>2018-05-06T08:18:01Z</time>
      </trkpt>
      <trkpt lat="42.36283" lon="0.22941">
        <ele>951.3</ele>
        <time>2018-05-06T08:18:11Z</time>
      </trkpt>
      <trkpt lat="42.36267" lon="0.22955">
        <ele>954.7</ele>
        <time>2018-05-06T08:18:21Z</time>
      </trkpt>
      <trkpt lat="42.3625" lon="0.22969">
        <ele>956.9</ele>
        <time>2018-05-06T08:18:31Z</time>
      </trkpt>
      <trkpt lat="42.36235" lon="0.22983">
        <ele>959.5</ele>
        <time>2018-05-06T08:18:40Z</time>
      </trkpt>
      <trkpt lat="42.36217" lon="0.22993">
        <ele>962.6</ele>
        <time>2018-05-06T08:18:48Z</time>
      </trkpt>
      <trkpt lat="42.36199" lon="0.23006">
        <ele>965.4</ele>
        <time>2018-05-06T08:18:56Z</time>
      </trkpt>
      <trkpt lat="42.36182" lon="0.23013">
        <ele>968</ele>
        <time>2018-05-06T08:19:03Z</time>
      </trkpt>
      <trkpt lat="42.36162" lon="0.23018">
        <ele>970.2</ele>
        <time>2018-05-06T08:19:11Z</time>
      </trkpt>
      <trkpt lat="42.36142" lon="0.23021">
        <ele>971.2</ele>
        <time>2018-05-06T08:19:19Z</time>
      </trkpt>
      <trkpt lat="42.36122" lon="0.23025">
        <ele>971.5</ele>
        <time>2018-05-06T08:19:27Z</time>
      </trkpt>
      <trkpt lat="42.36104" lon="0.23031">
        <ele>971.9</ele>
        <time>2018-05-06T08:19:35Z</time>
      </trkpt>
      <trkpt lat="42.36091" lon="0.23031">
        <ele>972</ele>
        <time>2018-05-06T08:19:41Z</time>
      </trkpt>
      <trkpt lat="42.36085" lon="0.23032">
        <ele>972</ele>
        <time>2018-05-06T08:19:57Z</time>
      </trkpt>
      <trkpt lat="42.36077" lon="0.23034">
        <ele>970.9</ele>
        <time>2018-05-06T08:20:01Z</time>
      </trkpt>
      <trkpt lat="42.36063" lon="0.23037">
        <ele>969.4</ele>
        <time>2018-05-06T08:20:08Z</time>
      </trkpt>
      <trkpt lat="42.36059" lon="0.23043">
        <ele>970.4</ele>
        <time>2018-05-06T08:20:25Z</time>
      </trkpt>
      <trkpt lat="42.36042" lon="0.23054">
        <ele>973.8</ele>
        <time>2018-05-06T08:20:34Z</time>
      </trkpt>
      <trkpt lat="42.36027" lon="0.23067">
        <ele>978.6</ele>
        <time>2018-05-06T08:20:43Z</time>
      </trkpt>
      <trkpt lat="42.36022" lon="0.23072">
        <ele>979.9</ele>
        <time>2018-05-06T08:20:46Z</time>
      </trkpt>
      <trkpt lat="42.36009" lon="0.23091">
        <ele>984.2</ele>
        <time>2018-05-06T08:20:57Z</time>
      </trkpt>
      <trkpt lat="42.36006" lon="0.23094">
        <ele>985.2</ele>
        <time>2018-05-06T08:21:20Z</time>
      </trkpt>
      <trkpt lat="42.3602" lon="0.23076">
        <ele>980.8</ele>
        <time>2018-05-06T08:21:25Z</time>
      </trkpt>
      <trkpt lat="42.36034" lon="0.23061">
        <ele>976.6</ele>
        <time>2018-05-06T08:21:29Z</time>
      </trkpt>
      <trkpt lat="42.36038" lon="0.23057">
        <ele>975.2</ele>
        <time>2018-05-06T08:21:30Z</time>
      </trkpt>
      <trkpt lat="42.36058" lon="0.23042">
        <ele>970.4</ele>
        <time>2018-05-06T08:21:34Z</time>
      </trkpt>
      <trkpt lat="42.36078" lon="0.23032">
        <ele>971</ele>
        <time>2018-05-06T08:21:37Z</time>
      </trkpt>
      <trkpt lat="42.36089" lon="0.23027">
        <ele>972</ele>
        <time>2018-05-06T08:21:39Z</time>
      </trkpt>
      <trkpt lat="42.36107" lon="0.23011">
        <ele>966.1</ele>
        <time>2018-05-06T08:21:43Z</time>
      </trkpt>
      <trkpt lat="42.36124" lon="0.23">
        <ele>958.8</ele>
        <time>2018-05-06T08:21:50Z</time>
      </trkpt>
      <trkpt lat="42.36142" lon="0.22996">
        <ele>950.5</ele>
        <time>2018-05-06T08:22:00Z</time>
      </trkpt>
      <trkpt lat="42.36159" lon="0.22987">
        <ele>950</ele>
        <time>2018-05-06T08:22:08Z</time>
      </trkpt>
      <trkpt lat="42.36137" lon="0.22997">
        <ele>958.4</ele>
        <time>2018-05-06T08:22:26Z</time>
      </trkpt>
      <trkpt lat="42.36115" lon="0.23006">
        <ele>965.2</ele>
        <time>2018-05-06T08:22:31Z</time>
      </trkpt>
      <trkpt lat="42.3611" lon="0.23009">
        <ele>966.5</ele>
        <time>2018-05-06T08:22:32Z</time>
      </trkpt>
      <trkpt lat="42.36093" lon="0.23023">
        <ele>971.8</ele>
        <time>2018-05-06T08:22:36Z</time>
      </trkpt>
      <trkpt lat="42.36075" lon="0.23031">
        <ele>970.5</ele>
        <time>2018-05-06T08:22:42Z</time>
      </trkpt>
      <trkpt lat="42.36059" lon="0.2304">
        <ele>970.2</ele>
        <time>2018-05-06T08:22:51Z</time>
      </trkpt>
      <trkpt lat="42.36042" lon="0.23053">
        <ele>973.3</ele>
        <time>2018-05-06T08:23:01Z</time>
      </trkpt>
      <trkpt lat="42.36026" lon="0.23069">
        <ele>977.7</ele>
        <time>2018-05-06T08:23:11Z</time>
      </trkpt>
      <trkpt lat="42.36012" lon="0.23087">
        <ele>981.4</ele>
        <time>2018-05-06T08:23:22Z</time>
      </trkpt>
      <trkpt lat="42.35998" lon="0.23103">
        <ele>984.8</ele>
        <time>2018-05-06T08:23:34Z</time>
      </trkpt>
      <trkpt lat="42.35991" lon="0.23106">
        <ele>986.7</ele>
        <time>2018-05-06T08:23:39Z</time>
      </trkpt>
      <trkpt lat="42.35978" lon="0.23124">
        <ele>990.8</ele>
        <time>2018-05-06T08:23:51Z</time>
      </trkpt>
      <trkpt lat="42.3597" lon="0.23134">
        <ele>993</ele>
        <time>2018-05-06T08:33:55Z</time>
      </trkpt>
      <trkpt lat="42.35964" lon="0.2314">
        <ele>993</ele>
        <time>2018-05-06T08:33:59Z</time>
      </trkpt>
      <trkpt lat="42.35948" lon="0.23151">
        <ele>994.1</ele>
        <time>2018-05-06T08:34:09Z</time>
      </trkpt>
      <trkpt lat="42.3593" lon="0.23159">
        <ele>994.2</ele>
        <time>2018-05-06T08:34:16Z</time>
      </trkpt>
      <trkpt lat="42.35911" lon="0.23166">
        <ele>994.7</ele>
        <time>2018-05-06T08:34:24Z</time>
      </trkpt>
      <trkpt lat="42.35893" lon="0.23172">
        <ele>994.9</ele>
        <time>2018-05-06T08:34:29Z</time>
      </trkpt>
      <trkpt lat="42.35874" lon="0.23175">
        <ele>994.2</ele>
        <time>2018-05-06T08:34:34Z</time>
      </trkpt>
      <trkpt lat="42.35855" lon="0.23172">
        <ele>993.3</ele>
        <time>2018-05-06T08:34:41Z</time>
      </trkpt>
      <trkpt lat="42.35837" lon="0.23165">
        <ele>990.6</ele>
        <time>2018-05-06T08:34:47Z</time>
      </trkpt>
      <trkpt lat="42.35829" lon="0.23162">
        <ele>988.9</ele>
        <time>2018-05-06T08:34:51Z</time>
      </trkpt>
      <trkpt lat="42.35817" lon="0.23167">
        <ele>987.4</ele>
        <time>2018-05-06T08:34:55Z</time>
      </trkpt>
      <trkpt lat="42.35808" lon="0.23169">
        <ele>985.8</ele>
        <time>2018-05-06T08:34:59Z</time>
      </trkpt>
      <trkpt lat="42.35805" lon="0.23176">
        <ele>985.6</ele>
        <time>2018-05-06T08:35:03Z</time>
      </trkpt>
      <trkpt lat="42.35808" lon="0.23181">
        <ele>986.2</ele>
        <time>2018-05-06T08:35:07Z</time>
      </trkpt>
      <trkpt lat="42.35805" lon="0.23188">
        <ele>985.5</ele>
        <time>2018-05-06T08:35:13Z</time>
      </trkpt>
      <trkpt lat="42.35797" lon="0.23192">
        <ele>984</ele>
        <time>2018-05-06T08:35:17Z</time>
      </trkpt>
      <trkpt lat="42.35777" lon="0.23194">
        <ele>981.2</ele>
        <time>2018-05-06T08:35:25Z</time>
      </trkpt>
      <trkpt lat="42.3576" lon="0.23199">
        <ele>979.7</ele>
        <time>2018-05-06T08:35:31Z</time>
      </trkpt>
      <trkpt lat="42.3575" lon="0.23207">
        <ele>979.3</ele>
        <time>2018-05-06T08:35:36Z</time>
      </trkpt>
      <trkpt lat="42.35733" lon="0.23213">
        <ele>979</ele>
        <time>2018-05-06T08:35:41Z</time>
      </trkpt>
      <trkpt lat="42.35715" lon="0.23217">
        <ele>978.5</ele>
        <time>2018-05-06T08:35:46Z</time>
      </trkpt>
      <trkpt lat="42.35708" lon="0.23213">
        <ele>978.3</ele>
        <time>2018-05-06T08:35:49Z</time>
      </trkpt>
      <trkpt lat="42.35706" lon="0.23205">
        <ele>978.3</ele>
        <time>2018-05-06T08:35:55Z</time>
      </trkpt>
      <trkpt lat="42.35723" lon="0.23194">
        <ele>978</ele>
        <time>2018-05-06T08:36:13Z</time>
      </trkpt>
      <trkpt lat="42.35736" lon="0.23192">
        <ele>978.8</ele>
        <time>2018-05-06T08:36:16Z</time>
      </trkpt>
      <trkpt lat="42.35754" lon="0.23184">
        <ele>979.1</ele>
        <time>2018-05-06T08:36:21Z</time>
      </trkpt>
      <trkpt lat="42.35757" lon="0.23183">
        <ele>979.5</ele>
        <time>2018-05-06T08:36:22Z</time>
      </trkpt>
      <trkpt lat="42.35775" lon="0.23172">
        <ele>980.6</ele>
        <time>2018-05-06T08:36:31Z</time>
      </trkpt>
      <trkpt lat="42.35793" lon="0.23161">
        <ele>983.5</ele>
        <time>2018-05-06T08:36:38Z</time>
      </trkpt>
      <trkpt lat="42.35801" lon="0.23156">
        <ele>985</ele>
        <time>2018-05-06T08:36:43Z</time>
      </trkpt>
      <trkpt lat="42.35819" lon="0.23142">
        <ele>987.1</ele>
        <time>2018-05-06T08:36:58Z</time>
      </trkpt>
      <trkpt lat="42.35836" lon="0.23135">
        <ele>990.2</ele>
        <time>2018-05-06T08:37:21Z</time>
      </trkpt>
      <trkpt lat="42.35849" lon="0.23127">
        <ele>991.5</ele>
        <time>2018-05-06T08:37:29Z</time>
      </trkpt>
      <trkpt lat="42.35867" lon="0.23116">
        <ele>993.2</ele>
        <time>2018-05-06T08:37:40Z</time>
      </trkpt>
      <trkpt lat="42.35885" lon="0.23107">
        <ele>993.9</ele>
        <time>2018-05-06T08:37:50Z</time>
      </trkpt>
      <trkpt lat="42.35904" lon="0.231">
        <ele>993.1</ele>
        <time>2018-05-06T08:37:58Z</time>
      </trkpt>
      <trkpt lat="42.35923" lon="0.23094">
        <ele>992.8</ele>
        <time>2018-05-06T08:38:06Z</time>
      </trkpt>
      <trkpt lat="42.35941" lon="0.23089">
        <ele>991.7</ele>
        <time>2018-05-06T08:38:14Z</time>
      </trkpt>
      <trkpt lat="42.35959" lon="0.23087">
        <ele>990.2</ele>
        <time>2018-05-06T08:38:25Z</time>
      </trkpt>
      <trkpt lat="42.35973" lon="0.23088">
        <ele>989.6</ele>
        <time>2018-05-06T08:38:48Z</time>
      </trkpt>
      <trkpt lat="42.3598" lon="0.23106">
        <ele>992.3</ele>
        <time>2018-05-06T08:38:54Z</time>
      </trkpt>
      <trkpt lat="42.3598" lon="0.23112">
        <ele>992.8</ele>
        <time>2018-05-06T08:38:56Z</time>
      </trkpt>
      <trkpt lat="42.35982" lon="0.23117">
        <ele>991.7</ele>
        <time>2018-05-06T08:39:20Z</time>
      </trkpt>
      <trkpt lat="42.36" lon="0.23105">
        <ele>986.8</ele>
        <time>2018-05-06T08:39:27Z</time>
      </trkpt>
      <trkpt lat="42.36011" lon="0.23094">
        <ele>983.2</ele>
        <time>2018-05-06T08:39:30Z</time>
      </trkpt>
      <trkpt lat="42.36025" lon="0.23079">
        <ele>979.4</ele>
        <time>2018-05-06T08:39:33Z</time>
      </trkpt>
      <trkpt lat="42.36042" lon="0.23062">
        <ele>974.3</ele>
        <time>2018-05-06T08:39:37Z</time>
      </trkpt>
      <trkpt lat="42.36047" lon="0.23058">
        <ele>973.2</ele>
        <time>2018-05-06T08:39:38Z</time>
      </trkpt>
      <trkpt lat="42.36064" lon="0.23046">
        <ele>969.8</ele>
        <time>2018-05-06T08:39:42Z</time>
      </trkpt>
      <trkpt lat="42.36082" lon="0.2303">
        <ele>971.5</ele>
        <time>2018-05-06T08:39:53Z</time>
      </trkpt>
      <trkpt lat="42.36093" lon="0.23021">
        <ele>971.4</ele>
        <time>2018-05-06T08:39:56Z</time>
      </trkpt>
      <trkpt lat="42.36105" lon="0.23011">
        <ele>967.9</ele>
        <time>2018-05-06T08:39:59Z</time>
      </trkpt>
      <trkpt lat="42.36123" lon="0.22999">
        <ele>962.4</ele>
        <time>2018-05-06T08:40:04Z</time>
      </trkpt>
      <trkpt lat="42.36141" lon="0.22994">
        <ele>956.4</ele>
        <time>2018-05-06T08:40:11Z</time>
      </trkpt>
      <trkpt lat="42.36158" lon="0.22988">
        <ele>950</ele>
        <time>2018-05-06T08:40:19Z</time>
      </trkpt>
      <trkpt lat="42.36166" lon="0.22965">
        <ele>948.4</ele>
        <time>2018-05-06T08:40:28Z</time>
      </trkpt>
      <trkpt lat="42.36172" lon="0.22953">
        <ele>946.6</ele>
        <time>2018-05-06T08:40:40Z</time>
      </trkpt>
      <trkpt lat="42.36181" lon="0.2295">
        <ele>945.2</ele>
        <time>2018-05-06T08:40:46Z</time>
      </trkpt>
      <trkpt lat="42.36199" lon="0.22942">
        <ele>942.4</ele>
        <time>2018-05-06T08:40:53Z</time>
      </trkpt>
      <trkpt lat="42.36215" lon="0.22936">
        <ele>939.9</ele>
        <time>2018-05-06T08:40:57Z</time>
      </trkpt>
      <trkpt lat="42.36226" lon="0.22933">
        <ele>937.4</ele>
        <time>2018-05-06T08:41:00Z</time>
      </trkpt>
      <trkpt lat="42.36245" lon="0.22932">
        <ele>935.5</ele>
        <time>2018-05-06T08:41:06Z</time>
      </trkpt>
      <trkpt lat="42.36256" lon="0.22931">
        <ele>934.9</ele>
        <time>2018-05-06T08:41:09Z</time>
      </trkpt>
      <trkpt lat="42.36268" lon="0.22929">
        <ele>933.4</ele>
        <time>2018-05-06T08:41:13Z</time>
      </trkpt>
      <trkpt lat="42.36277" lon="0.22919">
        <ele>931</ele>
        <time>2018-05-06T08:41:17Z</time>
      </trkpt>
      <trkpt lat="42.36298" lon="0.22915">
        <ele>928.9</ele>
        <time>2018-05-06T08:41:22Z</time>
      </trkpt>
      <trkpt lat="42.36316" lon="0.22911">
        <ele>927.4</ele>
        <time>2018-05-06T08:41:27Z</time>
      </trkpt>
      <trkpt lat="42.36331" lon="0.22917">
        <ele>928.5</ele>
        <time>2018-05-06T08:41:41Z</time>
      </trkpt>
      <trkpt lat="42.36331" lon="0.2292">
        <ele>928.9</ele>
        <time>2018-05-06T08:41:42Z</time>
      </trkpt>
      <trkpt lat="42.36342" lon="0.22935">
        <ele>929.9</ele>
        <time>2018-05-06T08:41:49Z</time>
      </trkpt>
      <trkpt lat="42.36346" lon="0.2294">
        <ele>929.7</ele>
        <time>2018-05-06T08:41:51Z</time>
      </trkpt>
      <trkpt lat="42.3635" lon="0.2296">
        <ele>929.4</ele>
        <time>2018-05-06T08:41:56Z</time>
      </trkpt>
      <trkpt lat="42.36347" lon="0.22974">
        <ele>929.8</ele>
        <time>2018-05-06T08:41:59Z</time>
      </trkpt>
      <trkpt lat="42.36348" lon="0.2299">
        <ele>929.7</ele>
        <time>2018-05-06T08:42:03Z</time>
      </trkpt>
      <trkpt lat="42.36367" lon="0.22986">
        <ele>927.2</ele>
        <time>2018-05-06T08:42:10Z</time>
      </trkpt>
      <trkpt lat="42.36381" lon="0.22984">
        <ele>926.1</ele>
        <time>2018-05-06T08:42:13Z</time>
      </trkpt>
      <trkpt lat="42.36396" lon="0.22987">
        <ele>923.8</ele>
        <time>2018-05-06T08:42:17Z</time>
      </trkpt>
      <trkpt lat="42.36412" lon="0.22984">
        <ele>922.3</ele>
        <time>2018-05-06T08:42:21Z</time>
      </trkpt>
      <trkpt lat="42.36431" lon="0.22978">
        <ele>919.8</ele>
        <time>2018-05-06T08:42:25Z</time>
      </trkpt>
      <trkpt lat="42.3645" lon="0.22975">
        <ele>917.3</ele>
        <time>2018-05-06T08:42:29Z</time>
      </trkpt>
      <trkpt lat="42.36469" lon="0.22964">
        <ele>916.5</ele>
        <time>2018-05-06T08:42:35Z</time>
      </trkpt>
      <trkpt lat="42.36485" lon="0.22951">
        <ele>916</ele>
        <time>2018-05-06T08:42:41Z</time>
      </trkpt>
      <trkpt lat="42.36494" lon="0.22944">
        <ele>915.4</ele>
        <time>2018-05-06T08:42:45Z</time>
      </trkpt>
      <trkpt lat="42.36512" lon="0.22935">
        <ele>913</ele>
        <time>2018-05-06T08:42:50Z</time>
      </trkpt>
      <trkpt lat="42.36523" lon="0.22929">
        <ele>912.8</ele>
        <time>2018-05-06T08:42:52Z</time>
      </trkpt>
      <trkpt lat="42.3654" lon="0.22918">
        <ele>909.7</ele>
        <time>2018-05-06T08:43:00Z</time>
      </trkpt>
      <trkpt lat="42.3656" lon="0.22907">
        <ele>906.7</ele>
        <time>2018-05-06T08:43:08Z</time>
      </trkpt>
      <trkpt lat="42.36578" lon="0.22899">
        <ele>903.6</ele>
        <time>2018-05-06T08:43:15Z</time>
      </trkpt>
      <trkpt lat="42.36597" lon="0.22883">
        <ele>900.5</ele>
        <time>2018-05-06T08:43:21Z</time>
      </trkpt>
      <trkpt lat="42.36614" lon="0.22875">
        <ele>897.5</ele>
        <time>2018-05-06T08:43:28Z</time>
      </trkpt>
      <trkpt lat="42.36617" lon="0.22875">
        <ele>897</ele>
        <time>2018-05-06T08:43:29Z</time>
      </trkpt>
      <trkpt lat="42.36636" lon="0.22877">
        <ele>892.8</ele>
        <time>2018-05-06T08:43:34Z</time>
      </trkpt>
      <trkpt lat="42.36654" lon="0.22876">
        <ele>888.1</ele>
        <time>2018-05-06T08:43:39Z</time>
      </trkpt>
      <trkpt lat="42.36673" lon="0.22876">
        <ele>882.6</ele>
        <time>2018-05-06T08:43:44Z</time>
      </trkpt>
      <trkpt lat="42.36695" lon="0.22873">
        <ele>876.9</ele>
        <time>2018-05-06T08:43:49Z</time>
      </trkpt>
      <trkpt lat="42.36715" lon="0.22868">
        <ele>872.4</ele>
        <time>2018-05-06T08:43:54Z</time>
      </trkpt>
      <trkpt lat="42.36728" lon="0.22866">
        <ele>869.4</ele>
        <time>2018-05-06T08:43:58Z</time>
      </trkpt>
      <trkpt lat="42.36745" lon="0.2287">
        <ele>865.6</ele>
        <time>2018-05-06T08:44:03Z</time>
      </trkpt>
      <trkpt lat="42.36749" lon="0.22869">
        <ele>865.1</ele>
        <time>2018-05-06T08:44:04Z</time>
      </trkpt>
      <trkpt lat="42.36766" lon="0.22867">
        <ele>860.2</ele>
        <time>2018-05-06T08:44:09Z</time>
      </trkpt>
      <trkpt lat="42.36786" lon="0.22861">
        <ele>855.7</ele>
        <time>2018-05-06T08:44:16Z</time>
      </trkpt>
      <trkpt lat="42.36801" lon="0.22856">
        <ele>852.2</ele>
        <time>2018-05-06T08:44:22Z</time>
      </trkpt>
      <trkpt lat="42.36819" lon="0.22845">
        <ele>846.5</ele>
        <time>2018-05-06T08:44:28Z</time>
      </trkpt>
      <trkpt lat="42.36836" lon="0.22838">
        <ele>841</ele>
        <time>2018-05-06T08:44:35Z</time>
      </trkpt>
      <trkpt lat="42.36844" lon="0.22828">
        <ele>837.7</ele>
        <time>2018-05-06T08:44:40Z</time>
      </trkpt>
      <trkpt lat="42.36864" lon="0.22835">
        <ele>833.2</ele>
        <time>2018-05-06T08:44:48Z</time>
      </trkpt>
      <trkpt lat="42.36871" lon="0.22831">
        <ele>831.9</ele>
        <time>2018-05-06T08:44:51Z</time>
      </trkpt>
      <trkpt lat="42.36885" lon="0.22831">
        <ele>828.8</ele>
        <time>2018-05-06T08:44:58Z</time>
      </trkpt>
      <trkpt lat="42.36889" lon="0.22832">
        <ele>827.3</ele>
        <time>2018-05-06T08:45:01Z</time>
      </trkpt>
      <trkpt lat="42.36895" lon="0.22832">
        <ele>825.8</ele>
        <time>2018-05-06T08:45:04Z</time>
      </trkpt>
      <trkpt lat="42.36901" lon="0.22836">
        <ele>825.6</ele>
        <time>2018-05-06T08:45:08Z</time>
      </trkpt>
      <trkpt lat="42.3691" lon="0.2284">
        <ele>823.9</ele>
        <time>2018-05-06T08:45:12Z</time>
      </trkpt>
      <trkpt lat="42.36912" lon="0.22842">
        <ele>823.5</ele>
        <time>2018-05-06T08:45:13Z</time>
      </trkpt>
      <trkpt lat="42.36927" lon="0.2285">
        <ele>820.1</ele>
        <time>2018-05-06T08:45:19Z</time>
      </trkpt>
      <trkpt lat="42.36947" lon="0.22839">
        <ele>814.1</ele>
        <time>2018-05-06T08:45:32Z</time>
      </trkpt>
      <trkpt lat="42.36965" lon="0.22846">
        <ele>809.7</ele>
        <time>2018-05-06T08:45:39Z</time>
      </trkpt>
      <trkpt lat="42.36973" lon="0.22849">
        <ele>808.4</ele>
        <time>2018-05-06T08:45:42Z</time>
      </trkpt>
      <trkpt lat="42.36982" lon="0.22839">
        <ele>804.8</ele>
        <time>2018-05-06T08:45:48Z</time>
      </trkpt>
      <trkpt lat="42.36984" lon="0.22823">
        <ele>802.6</ele>
        <time>2018-05-06T08:45:54Z</time>
      </trkpt>
      <trkpt lat="42.36998" lon="0.22823">
        <ele>798.6</ele>
        <time>2018-05-06T08:46:00Z</time>
      </trkpt>
      <trkpt lat="42.37016" lon="0.22822">
        <ele>791.7</ele>
        <time>2018-05-06T08:46:11Z</time>
      </trkpt>
      <trkpt lat="42.3702" lon="0.22824">
        <ele>791.6</ele>
        <time>2018-05-06T08:46:13Z</time>
      </trkpt>
      <trkpt lat="42.37031" lon="0.22825">
        <ele>788.8</ele>
        <time>2018-05-06T08:46:18Z</time>
      </trkpt>
      <trkpt lat="42.37032" lon="0.22819">
        <ele>787.6</ele>
        <time>2018-05-06T08:46:25Z</time>
      </trkpt>
      <trkpt lat="42.37031" lon="0.22802">
        <ele>785.5</ele>
        <time>2018-05-06T08:46:30Z</time>
      </trkpt>
      <trkpt lat="42.37032" lon="0.22794">
        <ele>784.7</ele>
        <time>2018-05-06T08:46:33Z</time>
      </trkpt>
      <trkpt lat="42.37048" lon="0.22784">
        <ele>779.5</ele>
        <time>2018-05-06T08:46:43Z</time>
      </trkpt>
      <trkpt lat="42.37054" lon="0.22786">
        <ele>778.5</ele>
        <time>2018-05-06T08:46:46Z</time>
      </trkpt>
      <trkpt lat="42.37065" lon="0.22791">
        <ele>777.5</ele>
        <time>2018-05-06T08:46:50Z</time>
      </trkpt>
      <trkpt lat="42.37073" lon="0.22813">
        <ele>779.9</ele>
        <time>2018-05-06T08:46:56Z</time>
      </trkpt>
      <trkpt lat="42.37075" lon="0.22816">
        <ele>780.3</ele>
        <time>2018-05-06T08:46:58Z</time>
      </trkpt>
      <trkpt lat="42.37078" lon="0.22827">
        <ele>781.3</ele>
        <time>2018-05-06T08:47:05Z</time>
      </trkpt>
      <trkpt lat="42.37087" lon="0.2285">
        <ele>783.2</ele>
        <time>2018-05-06T08:47:18Z</time>
      </trkpt>
      <trkpt lat="42.37089" lon="0.22876">
        <ele>784.9</ele>
        <time>2018-05-06T08:47:28Z</time>
      </trkpt>
      <trkpt lat="42.37087" lon="0.22902">
        <ele>786.3</ele>
        <time>2018-05-06T08:47:38Z</time>
      </trkpt>
      <trkpt lat="42.37079" lon="0.22925">
        <ele>787.8</ele>
        <time>2018-05-06T08:47:48Z</time>
      </trkpt>
      <trkpt lat="42.37065" lon="0.22941">
        <ele>789.1</ele>
        <time>2018-05-06T08:47:57Z</time>
      </trkpt>
      <trkpt lat="42.37048" lon="0.22953">
        <ele>790.4</ele>
        <time>2018-05-06T08:48:06Z</time>
      </trkpt>
      <trkpt lat="42.37032" lon="0.22967">
        <ele>791.7</ele>
        <time>2018-05-06T08:48:15Z</time>
      </trkpt>
      <trkpt lat="42.37017" lon="0.22986">
        <ele>793.1</ele>
        <time>2018-05-06T08:48:23Z</time>
      </trkpt>
      <trkpt lat="42.37007" lon="0.23008">
        <ele>794</ele>
        <time>2018-05-06T08:48:30Z</time>
      </trkpt>
      <trkpt lat="42.36991" lon="0.23027">
        <ele>794.8</ele>
        <time>2018-05-06T08:48:39Z</time>
      </trkpt>
      <trkpt lat="42.36975" lon="0.23045">
        <ele>795.4</ele>
        <time>2018-05-06T08:48:45Z</time>
      </trkpt>
      <trkpt lat="42.36962" lon="0.23066">
        <ele>795.8</ele>
        <time>2018-05-06T08:48:50Z</time>
      </trkpt>
      <trkpt lat="42.36949" lon="0.23086">
        <ele>796.3</ele>
        <time>2018-05-06T08:48:55Z</time>
      </trkpt>
      <trkpt lat="42.36932" lon="0.23101">
        <ele>796.7</ele>
        <time>2018-05-06T08:49:01Z</time>
      </trkpt>
      <trkpt lat="42.36913" lon="0.23107">
        <ele>797</ele>
        <time>2018-05-06T08:49:07Z</time>
      </trkpt>
      <trkpt lat="42.36893" lon="0.23112">
        <ele>797.3</ele>
        <time>2018-05-06T08:49:13Z</time>
      </trkpt>
      <trkpt lat="42.36877" lon="0.2313">
        <ele>797.8</ele>
        <time>2018-05-06T08:49:18Z</time>
      </trkpt>
      <trkpt lat="42.36871" lon="0.23153">
        <ele>798.2</ele>
        <time>2018-05-06T08:49:23Z</time>
      </trkpt>
      <trkpt lat="42.36856" lon="0.23174">
        <ele>798.8</ele>
        <time>2018-05-06T08:49:30Z</time>
      </trkpt>
      <trkpt lat="42.36851" lon="0.23182">
        <ele>799.1</ele>
        <time>2018-05-06T08:49:32Z</time>
      </trkpt>
      <trkpt lat="42.36838" lon="0.23204">
        <ele>799.7</ele>
        <time>2018-05-06T08:49:37Z</time>
      </trkpt>
      <trkpt lat="42.36825" lon="0.23226">
        <ele>800.4</ele>
        <time>2018-05-06T08:49:43Z</time>
      </trkpt>
      <trkpt lat="42.36813" lon="0.23248">
        <ele>801.3</ele>
        <time>2018-05-06T08:49:49Z</time>
      </trkpt>
      <trkpt lat="42.36799" lon="0.23268">
        <ele>802.3</ele>
        <time>2018-05-06T08:49:55Z</time>
      </trkpt>
      <trkpt lat="42.36782" lon="0.23282">
        <ele>803.6</ele>
        <time>2018-05-06T08:50:02Z</time>
      </trkpt>
      <trkpt lat="42.36766" lon="0.23293">
        <ele>804.8</ele>
        <time>2018-05-06T08:50:09Z</time>
      </trkpt>
      <trkpt lat="42.36749" lon="0.23301">
        <ele>805.8</ele>
        <time>2018-05-06T08:50:15Z</time>
      </trkpt>
      <trkpt lat="42.3673" lon="0.23302">
        <ele>806.4</ele>
        <time>2018-05-06T08:50:21Z</time>
      </trkpt>
      <trkpt lat="42.36711" lon="0.23304">
        <ele>806.7</ele>
        <time>2018-05-06T08:50:27Z</time>
      </trkpt>
      <trkpt lat="42.36691" lon="0.23303">
        <ele>806.9</ele>
        <time>2018-05-06T08:50:32Z</time>
      </trkpt>
      <trkpt lat="42.36679" lon="0.23321">
        <ele>807.3</ele>
        <time>2018-05-06T08:50:38Z</time>
      </trkpt>
      <trkpt lat="42.36678" lon="0.23347">
        <ele>808.5</ele>
        <time>2018-05-06T08:50:47Z</time>
      </trkpt>
      <trkpt lat="42.367" lon="0.23357">
        <ele>802.2</ele>
        <time>2018-05-06T08:51:39Z</time>
      </trkpt>
      <trkpt lat="42.36712" lon="0.2336">
        <ele>798.4</ele>
        <time>2018-05-06T08:51:42Z</time>
      </trkpt>
      <trkpt lat="42.36729" lon="0.23373">
        <ele>791.9</ele>
        <time>2018-05-06T08:51:48Z</time>
      </trkpt>
      <trkpt lat="42.36731" lon="0.23376">
        <ele>790.3</ele>
        <time>2018-05-06T08:51:49Z</time>
      </trkpt>
      <trkpt lat="42.36741" lon="0.23388">
        <ele>786.1</ele>
        <time>2018-05-06T08:51:54Z</time>
      </trkpt>
      <trkpt lat="42.36759" lon="0.23391">
        <ele>778.3</ele>
        <time>2018-05-06T08:52:01Z</time>
      </trkpt>
      <trkpt lat="42.36765" lon="0.23396">
        <ele>775.2</ele>
        <time>2018-05-06T08:52:05Z</time>
      </trkpt>
      <trkpt lat="42.36786" lon="0.234">
        <ele>767.2</ele>
        <time>2018-05-06T08:52:12Z</time>
      </trkpt>
      <trkpt lat="42.36806" lon="0.23404">
        <ele>759.6</ele>
        <time>2018-05-06T08:52:18Z</time>
      </trkpt>
      <trkpt lat="42.36812" lon="0.23406">
        <ele>757.8</ele>
        <time>2018-05-06T08:52:20Z</time>
      </trkpt>
      <trkpt lat="42.3683" lon="0.23407">
        <ele>752.7</ele>
        <time>2018-05-06T08:52:26Z</time>
      </trkpt>
      <trkpt lat="42.3685" lon="0.23404">
        <ele>748.2</ele>
        <time>2018-05-06T08:52:32Z</time>
      </trkpt>
      <trkpt lat="42.36868" lon="0.23404">
        <ele>745.2</ele>
        <time>2018-05-06T08:52:40Z</time>
      </trkpt>
      <trkpt lat="42.36876" lon="0.23404">
        <ele>743.4</ele>
        <time>2018-05-06T08:52:45Z</time>
      </trkpt>
      <trkpt lat="42.36892" lon="0.23407">
        <ele>738.7</ele>
        <time>2018-05-06T08:52:53Z</time>
      </trkpt>
      <trkpt lat="42.36894" lon="0.23413">
        <ele>737.9</ele>
        <time>2018-05-06T08:52:56Z</time>
      </trkpt>
      <trkpt lat="42.36897" lon="0.23437">
        <ele>733.2</ele>
        <time>2018-05-06T08:53:22Z</time>
      </trkpt>
      <trkpt lat="42.36898" lon="0.23457">
        <ele>730</ele>
        <time>2018-05-06T08:54:20Z</time>
      </trkpt>
      <trkpt lat="42.36907" lon="0.23477">
        <ele>726.1</ele>
        <time>2018-05-06T08:55:38Z</time>
      </trkpt>
      <trkpt lat="42.36911" lon="0.23485">
        <ele>723.6</ele>
        <time>2018-05-06T08:55:41Z</time>
      </trkpt>
      <trkpt lat="42.36914" lon="0.23501">
        <ele>720.6</ele>
        <time>2018-05-06T08:55:47Z</time>
      </trkpt>
      <trkpt lat="42.36921" lon="0.23521">
        <ele>716.7</ele>
        <time>2018-05-06T08:56:39Z</time>
      </trkpt>
      <trkpt lat="42.36924" lon="0.23531">
        <ele>714.3</ele>
        <time>2018-05-06T08:56:44Z</time>
      </trkpt>
      <trkpt lat="42.36937" lon="0.23547">
        <ele>709.6</ele>
        <time>2018-05-06T08:56:56Z</time>
      </trkpt>
      <trkpt lat="42.36939" lon="0.23547">
        <ele>709.6</ele>
        <time>2018-05-06T08:56:57Z</time>
      </trkpt>
      <trkpt lat="42.36945" lon="0.23545">
        <ele>706.8</ele>
        <time>2018-05-06T08:57:01Z</time>
      </trkpt>
      <trkpt lat="42.36959" lon="0.23559">
        <ele>702.3</ele>
        <time>2018-05-06T08:57:08Z</time>
      </trkpt>
      <trkpt lat="42.36963" lon="0.23566">
        <ele>700.8</ele>
        <time>2018-05-06T08:57:11Z</time>
      </trkpt>
      <trkpt lat="42.3697" lon="0.23567">
        <ele>699</ele>
        <time>2018-05-06T08:57:30Z</time>
      </trkpt>
      <trkpt lat="42.36983" lon="0.23583">
        <ele>694</ele>
        <time>2018-05-06T08:57:52Z</time>
      </trkpt>
      <trkpt lat="42.36988" lon="0.23608">
        <ele>690.9</ele>
        <time>2018-05-06T08:57:59Z</time>
      </trkpt>
      <trkpt lat="42.36991" lon="0.23614">
        <ele>689.9</ele>
        <time>2018-05-06T08:58:01Z</time>
      </trkpt>
      <trkpt lat="42.37011" lon="0.23612">
        <ele>685.5</ele>
        <time>2018-05-06T08:58:08Z</time>
      </trkpt>
      <trkpt lat="42.37013" lon="0.23612">
        <ele>684.9</ele>
        <time>2018-05-06T08:58:09Z</time>
      </trkpt>
      <trkpt lat="42.37028" lon="0.23626">
        <ele>681.7</ele>
        <time>2018-05-06T08:58:14Z</time>
      </trkpt>
      <trkpt lat="42.37032" lon="0.23649">
        <ele>681.4</ele>
        <time>2018-05-06T08:58:18Z</time>
      </trkpt>
      <trkpt lat="42.37035" lon="0.2367">
        <ele>681.6</ele>
        <time>2018-05-06T08:58:25Z</time>
      </trkpt>
      <trkpt lat="42.37042" lon="0.23695">
        <ele>683.1</ele>
        <time>2018-05-06T08:58:33Z</time>
      </trkpt>
      <trkpt lat="42.37044" lon="0.23703">
        <ele>683.7</ele>
        <time>2018-05-06T08:58:35Z</time>
      </trkpt>
      <trkpt lat="42.37045" lon="0.23706">
        <ele>683.7</ele>
        <time>2018-05-06T08:58:36Z</time>
      </trkpt>
      <trkpt lat="42.37051" lon="0.23709">
        <ele>684</ele>
        <time>2018-05-06T08:58:40Z</time>
      </trkpt>
      <trkpt lat="42.37053" lon="0.23703">
        <ele>683.4</ele>
        <time>2018-05-06T08:58:44Z</time>
      </trkpt>
      <trkpt lat="42.37054" lon="0.23679">
        <ele>680.7</ele>
        <time>2018-05-06T08:59:30Z</time>
      </trkpt>
      <trkpt lat="42.37056" lon="0.23653">
        <ele>678.8</ele>
        <time>2018-05-06T08:59:44Z</time>
      </trkpt>
      <trkpt lat="42.37056" lon="0.23652">
        <ele>678.6</ele>
        <time>2018-05-06T08:59:45Z</time>
      </trkpt>
      <trkpt lat="42.37062" lon="0.23652">
        <ele>678.3</ele>
        <time>2018-05-06T08:59:49Z</time>
      </trkpt>
      <trkpt lat="42.37064" lon="0.23652">
        <ele>678</ele>
        <time>2018-05-06T08:59:50Z</time>
      </trkpt>
      <trkpt lat="42.37062" lon="0.23662">
        <ele>678.8</ele>
        <time>2018-05-06T08:59:54Z</time>
      </trkpt>
      <trkpt lat="42.3707" lon="0.23683">
        <ele>680.5</ele>
        <time>2018-05-06T09:00:06Z</time>
      </trkpt>
      <trkpt lat="42.37087" lon="0.23691">
        <ele>680.9</ele>
        <time>2018-05-06T09:00:21Z</time>
      </trkpt>
      <trkpt lat="42.37105" lon="0.23685">
        <ele>678.9</ele>
        <time>2018-05-06T09:00:33Z</time>
      </trkpt>
      <trkpt lat="42.37109" lon="0.23662">
        <ele>676.2</ele>
        <time>2018-05-06T09:00:44Z</time>
      </trkpt>
      <trkpt lat="42.37105" lon="0.23641">
        <ele>674.6</ele>
        <time>2018-05-06T09:01:24Z</time>
      </trkpt>
      <trkpt lat="42.3709" lon="0.23623">
        <ele>674</ele>
        <time>2018-05-06T09:01:33Z</time>
      </trkpt>
      <trkpt lat="42.37083" lon="0.23601">
        <ele>672.9</ele>
        <time>2018-05-06T09:01:43Z</time>
      </trkpt>
      <trkpt lat="42.37082" lon="0.23578">
        <ele>671.9</ele>
        <time>2018-05-06T09:01:51Z</time>
      </trkpt>
      <trkpt lat="42.37099" lon="0.23571">
        <ele>668.5</ele>
        <time>2018-05-06T09:01:59Z</time>
      </trkpt>
      <trkpt lat="42.37104" lon="0.2357">
        <ele>668.1</ele>
        <time>2018-05-06T09:02:01Z</time>
      </trkpt>
      <trkpt lat="42.37124" lon="0.2357">
        <ele>667</ele>
        <time>2018-05-06T09:02:10Z</time>
      </trkpt>
      <trkpt lat="42.37142" lon="0.23566">
        <ele>667.1</ele>
        <time>2018-05-06T09:02:19Z</time>
      </trkpt>
      <trkpt lat="42.37156" lon="0.23552">
        <ele>667.2</ele>
        <time>2018-05-06T09:02:26Z</time>
      </trkpt>
      <trkpt lat="42.37159" lon="0.23548">
        <ele>667.5</ele>
        <time>2018-05-06T09:02:28Z</time>
      </trkpt>
      <trkpt lat="42.37166" lon="0.2354">
        <ele>667.7</ele>
        <time>2018-05-06T09:02:32Z</time>
      </trkpt>
      <trkpt lat="42.37171" lon="0.23537">
        <ele>668</ele>
        <time>2018-05-06T09:02:35Z</time>
      </trkpt>
      <trkpt lat="42.3718" lon="0.23546">
        <ele>667.9</ele>
        <time>2018-05-06T09:02:41Z</time>
      </trkpt>
      <trkpt lat="42.37182" lon="0.23546">
        <ele>667.8</ele>
        <time>2018-05-06T09:02:42Z</time>
      </trkpt>
      <trkpt lat="42.37189" lon="0.23551">
        <ele>668</ele>
        <time>2018-05-06T09:02:53Z</time>
      </trkpt>
      <trkpt lat="42.37207" lon="0.23557">
        <ele>668.5</ele>
        <time>2018-05-06T09:03:07Z</time>
      </trkpt>
      <trkpt lat="42.37224" lon="0.23549">
        <ele>668.8</ele>
        <time>2018-05-06T09:03:19Z</time>
      </trkpt>
      <trkpt lat="42.37236" lon="0.23532">
        <ele>667.9</ele>
        <time>2018-05-06T09:03:29Z</time>
      </trkpt>
      <trkpt lat="42.37246" lon="0.23511">
        <ele>666.5</ele>
        <time>2018-05-06T09:03:38Z</time>
      </trkpt>
      <trkpt lat="42.37258" lon="0.23504">
        <ele>666.1</ele>
        <time>2018-05-06T09:03:45Z</time>
      </trkpt>
      <trkpt lat="42.3726" lon="0.23489">
        <ele>666.5</ele>
        <time>2018-05-06T09:04:20Z</time>
      </trkpt>
      <trkpt lat="42.37269" lon="0.2348">
        <ele>666.1</ele>
        <time>2018-05-06T09:04:28Z</time>
      </trkpt>
      <trkpt lat="42.37286" lon="0.23465">
        <ele>665.9</ele>
        <time>2018-05-06T09:04:38Z</time>
      </trkpt>
      <trkpt lat="42.37302" lon="0.23453">
        <ele>665.4</ele>
        <time>2018-05-06T09:04:47Z</time>
      </trkpt>
      <trkpt lat="42.37311" lon="0.23471">
        <ele>663.7</ele>
        <time>2018-05-06T09:04:58Z</time>
      </trkpt>
      <trkpt lat="42.3731" lon="0.23479">
        <ele>663.7</ele>
        <time>2018-05-06T09:05:01Z</time>
      </trkpt>
      <trkpt lat="42.37324" lon="0.23494">
        <ele>664.7</ele>
        <time>2018-05-06T09:05:12Z</time>
      </trkpt>
      <trkpt lat="42.3734" lon="0.23481">
        <ele>664</ele>
        <time>2018-05-06T09:06:19Z</time>
      </trkpt>
      <trkpt lat="42.3735" lon="0.23459">
        <ele>662.7</ele>
        <time>2018-05-06T09:06:29Z</time>
      </trkpt>
      <trkpt lat="42.37363" lon="0.23444">
        <ele>661.7</ele>
        <time>2018-05-06T09:06:39Z</time>
      </trkpt>
      <trkpt lat="42.37382" lon="0.23439">
        <ele>661</ele>
        <time>2018-05-06T09:06:49Z</time>
      </trkpt>
      <trkpt lat="42.374" lon="0.23445">
        <ele>661</ele>
        <time>2018-05-06T09:07:01Z</time>
      </trkpt>
      <trkpt lat="42.37418" lon="0.23441">
        <ele>661.5</ele>
        <time>2018-05-06T09:07:14Z</time>
      </trkpt>
      <trkpt lat="42.3742" lon="0.23425">
        <ele>659.7</ele>
        <time>2018-05-06T09:07:23Z</time>
      </trkpt>
      <trkpt lat="42.3741" lon="0.23403">
        <ele>658</ele>
        <time>2018-05-06T09:07:37Z</time>
      </trkpt>
      <trkpt lat="42.37404" lon="0.23381">
        <ele>657.8</ele>
        <time>2018-05-06T09:07:51Z</time>
      </trkpt>
      <trkpt lat="42.37401" lon="0.23369">
        <ele>658.2</ele>
        <time>2018-05-06T09:07:56Z</time>
      </trkpt>
      <trkpt lat="42.37398" lon="0.23361">
        <ele>658.8</ele>
        <time>2018-05-06T09:08:00Z</time>
      </trkpt>
      <trkpt lat="42.37398" lon="0.23337">
        <ele>659.7</ele>
        <time>2018-05-06T09:08:31Z</time>
      </trkpt>
      <trkpt lat="42.37413" lon="0.23325">
        <ele>658.2</ele>
        <time>2018-05-06T09:08:44Z</time>
      </trkpt>
      <trkpt lat="42.37432" lon="0.23328">
        <ele>655.8</ele>
        <time>2018-05-06T09:08:55Z</time>
      </trkpt>
      <trkpt lat="42.3745" lon="0.23323">
        <ele>654</ele>
        <time>2018-05-06T09:09:05Z</time>
      </trkpt>
      <trkpt lat="42.3746" lon="0.23328">
        <ele>653.1</ele>
        <time>2018-05-06T09:09:11Z</time>
      </trkpt>
      <trkpt lat="42.37478" lon="0.23321">
        <ele>651.1</ele>
        <time>2018-05-06T09:09:21Z</time>
      </trkpt>
      <trkpt lat="42.37484" lon="0.23314">
        <ele>650.6</ele>
        <time>2018-05-06T09:09:24Z</time>
      </trkpt>
      <trkpt lat="42.37487" lon="0.23305">
        <ele>650.6</ele>
        <time>2018-05-06T09:09:28Z</time>
      </trkpt>
      <trkpt lat="42.37485" lon="0.23298">
        <ele>651.3</ele>
        <time>2018-05-06T09:09:36Z</time>
      </trkpt>
      <trkpt lat="42.37485" lon="0.2328">
        <ele>652.3</ele>
        <time>2018-05-06T09:09:54Z</time>
      </trkpt>
      <trkpt lat="42.37502" lon="0.23276">
        <ele>651.3</ele>
        <time>2018-05-06T09:10:08Z</time>
      </trkpt>
      <trkpt lat="42.3752" lon="0.23284">
        <ele>648.9</ele>
        <time>2018-05-06T09:10:19Z</time>
      </trkpt>
      <trkpt lat="42.37532" lon="0.23284">
        <ele>647.7</ele>
        <time>2018-05-06T09:10:24Z</time>
      </trkpt>
      <trkpt lat="42.37549" lon="0.23272">
        <ele>647.5</ele>
        <time>2018-05-06T09:10:30Z</time>
      </trkpt>
      <trkpt lat="42.37567" lon="0.23269">
        <ele>646.6</ele>
        <time>2018-05-06T09:10:37Z</time>
      </trkpt>
      <trkpt lat="42.37572" lon="0.23279">
        <ele>646.2</ele>
        <time>2018-05-06T09:10:42Z</time>
      </trkpt>
      <trkpt lat="42.37563" lon="0.23294">
        <ele>646.3</ele>
        <time>2018-05-06T09:10:50Z</time>
      </trkpt>
      <trkpt lat="42.37573" lon="0.23314">
        <ele>646.8</ele>
        <time>2018-05-06T09:11:14Z</time>
      </trkpt>
      <trkpt lat="42.37593" lon="0.23316">
        <ele>645.8</ele>
        <time>2018-05-06T09:11:21Z</time>
      </trkpt>
      <trkpt lat="42.37614" lon="0.23311">
        <ele>644.2</ele>
        <time>2018-05-06T09:11:27Z</time>
      </trkpt>
      <trkpt lat="42.37634" lon="0.23303">
        <ele>642.4</ele>
        <time>2018-05-06T09:11:33Z</time>
      </trkpt>
      <trkpt lat="42.37653" lon="0.23292">
        <ele>640.7</ele>
        <time>2018-05-06T09:11:40Z</time>
      </trkpt>
      <trkpt lat="42.37668" lon="0.23277">
        <ele>639.7</ele>
        <time>2018-05-06T09:11:46Z</time>
      </trkpt>
      <trkpt lat="42.37669" lon="0.23258">
        <ele>639</ele>
        <time>2018-05-06T09:11:53Z</time>
      </trkpt>
      <trkpt lat="42.37655" lon="0.23238">
        <ele>639.2</ele>
        <time>2018-05-06T09:12:00Z</time>
      </trkpt>
      <trkpt lat="42.37653" lon="0.23236">
        <ele>639.2</ele>
        <time>2018-05-06T09:12:01Z</time>
      </trkpt>
      <trkpt lat="42.37641" lon="0.23217">
        <ele>641.9</ele>
        <time>2018-05-06T09:12:16Z</time>
      </trkpt>
      <trkpt lat="42.37642" lon="0.23189">
        <ele>645</ele>
        <time>2018-05-06T09:12:25Z</time>
      </trkpt>
      <trkpt lat="42.37658" lon="0.23174">
        <ele>646.3</ele>
        <time>2018-05-06T09:12:31Z</time>
      </trkpt>
      <trkpt lat="42.37678" lon="0.23175">
        <ele>646.4</ele>
        <time>2018-05-06T09:12:36Z</time>
      </trkpt>
      <trkpt lat="42.37697" lon="0.23187">
        <ele>646</ele>
        <time>2018-05-06T09:12:41Z</time>
      </trkpt>
      <trkpt lat="42.37711" lon="0.23203">
        <ele>644.7</ele>
        <time>2018-05-06T09:12:46Z</time>
      </trkpt>
      <trkpt lat="42.37723" lon="0.23221">
        <ele>643</ele>
        <time>2018-05-06T09:12:56Z</time>
      </trkpt>
      <trkpt lat="42.3773" lon="0.23244">
        <ele>640.1</ele>
        <time>2018-05-06T09:13:05Z</time>
      </trkpt>
      <trkpt lat="42.37745" lon="0.23264">
        <ele>639.3</ele>
        <time>2018-05-06T09:13:14Z</time>
      </trkpt>
      <trkpt lat="42.37763" lon="0.23273">
        <ele>640.1</ele>
        <time>2018-05-06T09:13:22Z</time>
      </trkpt>
      <trkpt lat="42.37784" lon="0.23275">
        <ele>641</ele>
        <time>2018-05-06T09:13:29Z</time>
      </trkpt>
      <trkpt lat="42.37804" lon="0.23273">
        <ele>641.4</ele>
        <time>2018-05-06T09:13:38Z</time>
      </trkpt>
      <trkpt lat="42.37822" lon="0.23268">
        <ele>641.2</ele>
        <time>2018-05-06T09:13:43Z</time>
      </trkpt>
      <trkpt lat="42.37842" lon="0.23266">
        <ele>641</ele>
        <time>2018-05-06T09:13:51Z</time>
      </trkpt>
      <trkpt lat="42.37859" lon="0.23267">
        <ele>640.7</ele>
        <time>2018-05-06T09:13:59Z</time>
      </trkpt>
      <trkpt lat="42.37875" lon="0.23278">
        <ele>637.7</ele>
        <time>2018-05-06T09:14:08Z</time>
      </trkpt>
      <trkpt lat="42.37894" lon="0.23281">
        <ele>637.2</ele>
        <time>2018-05-06T09:14:14Z</time>
      </trkpt>
      <trkpt lat="42.37912" lon="0.23292">
        <ele>636.1</ele>
        <time>2018-05-06T09:14:20Z</time>
      </trkpt>
      <trkpt lat="42.37931" lon="0.23287">
        <ele>635.6</ele>
        <time>2018-05-06T09:14:28Z</time>
      </trkpt>
      <trkpt lat="42.37948" lon="0.23294">
        <ele>634.2</ele>
        <time>2018-05-06T09:14:41Z</time>
      </trkpt>
      <trkpt lat="42.37948" lon="0.23296">
        <ele>633.9</ele>
        <time>2018-05-06T09:14:42Z</time>
      </trkpt>
      <trkpt lat="42.37954" lon="0.2332">
        <ele>632.8</ele>
        <time>2018-05-06T09:14:50Z</time>
      </trkpt>
      <trkpt lat="42.37967" lon="0.23339">
        <ele>631.8</ele>
        <time>2018-05-06T09:14:58Z</time>
      </trkpt>
      <trkpt lat="42.37971" lon="0.23342">
        <ele>631.6</ele>
        <time>2018-05-06T09:15:00Z</time>
      </trkpt>
      <trkpt lat="42.37982" lon="0.23343">
        <ele>630.3</ele>
        <time>2018-05-06T09:15:05Z</time>
      </trkpt>
      <trkpt lat="42.38" lon="0.23339">
        <ele>627.9</ele>
        <time>2018-05-06T09:15:14Z</time>
      </trkpt>
      <trkpt lat="42.38018" lon="0.2333">
        <ele>626.5</ele>
        <time>2018-05-06T09:15:23Z</time>
      </trkpt>
      <trkpt lat="42.38036" lon="0.23324">
        <ele>626.3</ele>
        <time>2018-05-06T09:15:36Z</time>
      </trkpt>
      <trkpt lat="42.38047" lon="0.23343">
        <ele>623.7</ele>
        <time>2018-05-06T09:15:46Z</time>
      </trkpt>
      <trkpt lat="42.38046" lon="0.23348">
        <ele>623.5</ele>
        <time>2018-05-06T09:15:48Z</time>
      </trkpt>
      <trkpt lat="42.38052" lon="0.23372">
        <ele>623.9</ele>
        <time>2018-05-06T09:15:56Z</time>
      </trkpt>
      <trkpt lat="42.38068" lon="0.23381">
        <ele>623.6</ele>
        <time>2018-05-06T09:16:04Z</time>
      </trkpt>
      <trkpt lat="42.38087" lon="0.23386">
        <ele>623</ele>
        <time>2018-05-06T09:16:13Z</time>
      </trkpt>
      <trkpt lat="42.38104" lon="0.23395">
        <ele>622.4</ele>
        <time>2018-05-06T09:16:21Z</time>
      </trkpt>
      <trkpt lat="42.38122" lon="0.23401">
        <ele>621.7</ele>
        <time>2018-05-06T09:16:30Z</time>
      </trkpt>
      <trkpt lat="42.38142" lon="0.23405">
        <ele>621.4</ele>
        <time>2018-05-06T09:16:38Z</time>
      </trkpt>
      <trkpt lat="42.38162" lon="0.234">
        <ele>621.1</ele>
        <time>2018-05-06T09:16:44Z</time>
      </trkpt>
      <trkpt lat="42.3818" lon="0.23396">
        <ele>621</ele>
        <time>2018-05-06T09:16:50Z</time>
      </trkpt>
      <trkpt lat="42.38196" lon="0.23406">
        <ele>620.4</ele>
        <time>2018-05-06T09:16:58Z</time>
      </trkpt>
      <trkpt lat="42.38213" lon="0.23419">
        <ele>619.7</ele>
        <time>2018-05-06T09:17:07Z</time>
      </trkpt>
      <trkpt lat="42.38232" lon="0.2342">
        <ele>619.3</ele>
        <time>2018-05-06T09:17:16Z</time>
      </trkpt>
      <trkpt lat="42.38248" lon="0.23409">
        <ele>619.7</ele>
        <time>2018-05-06T09:17:27Z</time>
      </trkpt>
      <trkpt lat="42.38259" lon="0.23411">
        <ele>619</ele>
        <time>2018-05-06T09:17:34Z</time>
      </trkpt>
      <trkpt lat="42.38279" lon="0.23412">
        <ele>618</ele>
        <time>2018-05-06T09:17:43Z</time>
      </trkpt>
      <trkpt lat="42.38297" lon="0.23402">
        <ele>617.6</ele>
        <time>2018-05-06T09:17:53Z</time>
      </trkpt>
      <trkpt lat="42.38315" lon="0.23395">
        <ele>618</ele>
        <time>2018-05-06T09:18:01Z</time>
      </trkpt>
      <trkpt lat="42.38333" lon="0.23396">
        <ele>617.5</ele>
        <time>2018-05-06T09:18:27Z</time>
      </trkpt>
      <trkpt lat="42.38353" lon="0.23399">
        <ele>616.3</ele>
        <time>2018-05-06T09:18:37Z</time>
      </trkpt>
      <trkpt lat="42.38372" lon="0.23402">
        <ele>615.4</ele>
        <time>2018-05-06T09:18:44Z</time>
      </trkpt>
      <trkpt lat="42.38387" lon="0.23395">
        <ele>615</ele>
        <time>2018-05-06T09:18:50Z</time>
      </trkpt>
      <trkpt lat="42.38394" lon="0.23379">
        <ele>615.7</ele>
        <time>2018-05-06T09:18:56Z</time>
      </trkpt>
      <trkpt lat="42.38395" lon="0.2337">
        <ele>616.3</ele>
        <time>2018-05-06T09:19:00Z</time>
      </trkpt>
      <trkpt lat="42.38411" lon="0.23359">
        <ele>616.6</ele>
        <time>2018-05-06T09:19:20Z</time>
      </trkpt>
      <trkpt lat="42.38427" lon="0.23348">
        <ele>615.7</ele>
        <time>2018-05-06T09:19:38Z</time>
      </trkpt>
      <trkpt lat="42.38448" lon="0.23349">
        <ele>612.2</ele>
        <time>2018-05-06T09:19:45Z</time>
      </trkpt>
      <trkpt lat="42.38467" lon="0.23345">
        <ele>610.4</ele>
        <time>2018-05-06T09:19:50Z</time>
      </trkpt>
      <trkpt lat="42.38485" lon="0.23347">
        <ele>608.3</ele>
        <time>2018-05-06T09:20:12Z</time>
      </trkpt>
      <trkpt lat="42.38501" lon="0.23359">
        <ele>606.3</ele>
        <time>2018-05-06T09:20:25Z</time>
      </trkpt>
      <trkpt lat="42.38519" lon="0.23367">
        <ele>605.2</ele>
        <time>2018-05-06T09:20:32Z</time>
      </trkpt>
      <trkpt lat="42.38536" lon="0.23375">
        <ele>604.6</ele>
        <time>2018-05-06T09:20:39Z</time>
      </trkpt>
      <trkpt lat="42.38555" lon="0.2338">
        <ele>603.6</ele>
        <time>2018-05-06T09:20:46Z</time>
      </trkpt>
      <trkpt lat="42.38573" lon="0.23385">
        <ele>604</ele>
        <time>2018-05-06T09:20:56Z</time>
      </trkpt>
      <trkpt lat="42.3859" lon="0.23381">
        <ele>604.7</ele>
        <time>2018-05-06T09:21:06Z</time>
      </trkpt>
      <trkpt lat="42.38602" lon="0.23364">
        <ele>604</ele>
        <time>2018-05-06T09:21:17Z</time>
      </trkpt>
      <trkpt lat="42.38609" lon="0.23342">
        <ele>602.9</ele>
        <time>2018-05-06T09:21:27Z</time>
      </trkpt>
      <trkpt lat="42.38601" lon="0.23318">
        <ele>603.2</ele>
        <time>2018-05-06T09:21:37Z</time>
      </trkpt>
      <trkpt lat="42.38594" lon="0.23298">
        <ele>604.7</ele>
        <time>2018-05-06T09:21:45Z</time>
      </trkpt>
      <trkpt lat="42.38601" lon="0.23302">
        <ele>604.1</ele>
        <time>2018-05-06T09:23:12Z</time>
      </trkpt>
      <trkpt lat="42.3861" lon="0.23296">
        <ele>603.8</ele>
        <time>2018-05-06T09:24:59Z</time>
      </trkpt>
      <trkpt lat="42.38628" lon="0.23288">
        <ele>603.1</ele>
        <time>2018-05-06T09:25:12Z</time>
      </trkpt>
      <trkpt lat="42.38642" lon="0.23273">
        <ele>601.6</ele>
        <time>2018-05-06T09:25:21Z</time>
      </trkpt>
      <trkpt lat="42.38655" lon="0.23255">
        <ele>600.3</ele>
        <time>2018-05-06T09:25:29Z</time>
      </trkpt>
      <trkpt lat="42.38667" lon="0.23239">
        <ele>599.5</ele>
        <time>2018-05-06T09:25:41Z</time>
      </trkpt>
      <trkpt lat="42.3867" lon="0.23224">
        <ele>599.4</ele>
        <time>2018-05-06T09:25:46Z</time>
      </trkpt>
      <trkpt lat="42.38676" lon="0.232">
        <ele>598.1</ele>
        <time>2018-05-06T09:25:52Z</time>
      </trkpt>
      <trkpt lat="42.38686" lon="0.23175">
        <ele>598.8</ele>
        <time>2018-05-06T09:25:58Z</time>
      </trkpt>
      <trkpt lat="42.38698" lon="0.23154">
        <ele>600.5</ele>
        <time>2018-05-06T09:26:04Z</time>
      </trkpt>
      <trkpt lat="42.38714" lon="0.2314">
        <ele>602.6</ele>
        <time>2018-05-06T09:26:12Z</time>
      </trkpt>
      <trkpt lat="42.3873" lon="0.23126">
        <ele>604.3</ele>
        <time>2018-05-06T09:26:21Z</time>
      </trkpt>
      <trkpt lat="42.38748" lon="0.23118">
        <ele>604.6</ele>
        <time>2018-05-06T09:26:29Z</time>
      </trkpt>
      <trkpt lat="42.38766" lon="0.23125">
        <ele>601.7</ele>
        <time>2018-05-06T09:26:35Z</time>
      </trkpt>
      <trkpt lat="42.38783" lon="0.23134">
        <ele>599</ele>
        <time>2018-05-06T09:26:41Z</time>
      </trkpt>
      <trkpt lat="42.38803" lon="0.23139">
        <ele>596.6</ele>
        <time>2018-05-06T09:26:50Z</time>
      </trkpt>
      <trkpt lat="42.38817" lon="0.23136">
        <ele>595.3</ele>
        <time>2018-05-06T09:26:54Z</time>
      </trkpt>
      <trkpt lat="42.38835" lon="0.23129">
        <ele>594.4</ele>
        <time>2018-05-06T09:26:59Z</time>
      </trkpt>
      <trkpt lat="42.38853" lon="0.23117">
        <ele>594</ele>
        <time>2018-05-06T09:27:06Z</time>
      </trkpt>
      <trkpt lat="42.38868" lon="0.23099">
        <ele>593.6</ele>
        <time>2018-05-06T09:27:14Z</time>
      </trkpt>
      <trkpt lat="42.3888" lon="0.23078">
        <ele>594.1</ele>
        <time>2018-05-06T09:27:23Z</time>
      </trkpt>
      <trkpt lat="42.38894" lon="0.23061">
        <ele>594.9</ele>
        <time>2018-05-06T09:27:32Z</time>
      </trkpt>
      <trkpt lat="42.38911" lon="0.23054">
        <ele>593.5</ele>
        <time>2018-05-06T09:27:42Z</time>
      </trkpt>
      <trkpt lat="42.38915" lon="0.23054">
        <ele>593.2</ele>
        <time>2018-05-06T09:27:45Z</time>
      </trkpt>
      <trkpt lat="42.38921" lon="0.23061">
        <ele>592</ele>
        <time>2018-05-06T09:27:49Z</time>
      </trkpt>
      <trkpt lat="42.38934" lon="0.23079">
        <ele>589</ele>
        <time>2018-05-06T09:27:59Z</time>
      </trkpt>
      <trkpt lat="42.38947" lon="0.23096">
        <ele>587.8</ele>
        <time>2018-05-06T09:28:10Z</time>
      </trkpt>
      <trkpt lat="42.38967" lon="0.23097">
        <ele>587.4</ele>
        <time>2018-05-06T09:28:21Z</time>
      </trkpt>
      <trkpt lat="42.38984" lon="0.23083">
        <ele>588.6</ele>
        <time>2018-05-06T09:28:27Z</time>
      </trkpt>
      <trkpt lat="42.39" lon="0.23072">
        <ele>590</ele>
        <time>2018-05-06T09:28:37Z</time>
      </trkpt>
      <trkpt lat="42.39018" lon="0.23064">
        <ele>591.2</ele>
        <time>2018-05-06T09:28:49Z</time>
      </trkpt>
      <trkpt lat="42.39037" lon="0.23057">
        <ele>591.6</ele>
        <time>2018-05-06T09:28:58Z</time>
      </trkpt>
      <trkpt lat="42.39055" lon="0.23064">
        <ele>589.4</ele>
        <time>2018-05-06T09:29:06Z</time>
      </trkpt>
      <trkpt lat="42.39073" lon="0.23061">
        <ele>588.8</ele>
        <time>2018-05-06T09:29:13Z</time>
      </trkpt>
      <trkpt lat="42.39091" lon="0.23056">
        <ele>588.1</ele>
        <time>2018-05-06T09:29:22Z</time>
      </trkpt>
      <trkpt lat="42.39109" lon="0.23044">
        <ele>587.4</ele>
        <time>2018-05-06T09:29:30Z</time>
      </trkpt>
      <trkpt lat="42.39124" lon="0.23029">
        <ele>587.3</ele>
        <time>2018-05-06T09:29:36Z</time>
      </trkpt>
      <trkpt lat="42.39139" lon="0.23012">
        <ele>587.1</ele>
        <time>2018-05-06T09:29:43Z</time>
      </trkpt>
      <trkpt lat="42.39157" lon="0.22999">
        <ele>586.8</ele>
        <time>2018-05-06T09:29:51Z</time>
      </trkpt>
      <trkpt lat="42.39175" lon="0.22994">
        <ele>585.3</ele>
        <time>2018-05-06T09:29:59Z</time>
      </trkpt>
      <trkpt lat="42.39192" lon="0.22985">
        <ele>584.3</ele>
        <time>2018-05-06T09:30:06Z</time>
      </trkpt>
      <trkpt lat="42.39201" lon="0.22975">
        <ele>584.2</ele>
        <time>2018-05-06T09:30:12Z</time>
      </trkpt>
      <trkpt lat="42.39201" lon="0.22964">
        <ele>585.1</ele>
        <time>2018-05-06T09:30:16Z</time>
      </trkpt>
      <trkpt lat="42.39198" lon="0.22939">
        <ele>587.4</ele>
        <time>2018-05-06T09:30:24Z</time>
      </trkpt>
      <trkpt lat="42.39208" lon="0.22919">
        <ele>587</ele>
        <time>2018-05-06T09:31:17Z</time>
      </trkpt>
      <trkpt lat="42.39225" lon="0.22907">
        <ele>584.2</ele>
        <time>2018-05-06T09:31:27Z</time>
      </trkpt>
      <trkpt lat="42.39242" lon="0.22898">
        <ele>581.9</ele>
        <time>2018-05-06T09:31:37Z</time>
      </trkpt>
      <trkpt lat="42.39261" lon="0.22896">
        <ele>578.8</ele>
        <time>2018-05-06T09:31:45Z</time>
      </trkpt>
      <trkpt lat="42.3928" lon="0.22897">
        <ele>576.7</ele>
        <time>2018-05-06T09:31:51Z</time>
      </trkpt>
      <trkpt lat="42.393" lon="0.22903">
        <ele>575.5</ele>
        <time>2018-05-06T09:31:58Z</time>
      </trkpt>
      <trkpt lat="42.39318" lon="0.22904">
        <ele>574.8</ele>
        <time>2018-05-06T09:32:03Z</time>
      </trkpt>
      <trkpt lat="42.39336" lon="0.22896">
        <ele>574.5</ele>
        <time>2018-05-06T09:32:08Z</time>
      </trkpt>
      <trkpt lat="42.3934" lon="0.22893">
        <ele>574.5</ele>
        <time>2018-05-06T09:32:09Z</time>
      </trkpt>
      <trkpt lat="42.39349" lon="0.22882">
        <ele>574.4</ele>
        <time>2018-05-06T09:32:13Z</time>
      </trkpt>
      <trkpt lat="42.39354" lon="0.22857">
        <ele>574.1</ele>
        <time>2018-05-06T09:32:23Z</time>
      </trkpt>
      <trkpt lat="42.39356" lon="0.22832">
        <ele>574.1</ele>
        <time>2018-05-06T09:32:30Z</time>
      </trkpt>
      <trkpt lat="42.39359" lon="0.22807">
        <ele>574.4</ele>
        <time>2018-05-06T09:32:38Z</time>
      </trkpt>
      <trkpt lat="42.39366" lon="0.22784">
        <ele>574.4</ele>
        <time>2018-05-06T09:32:50Z</time>
      </trkpt>
      <trkpt lat="42.39374" lon="0.22769">
        <ele>574</ele>
        <time>2018-05-06T09:32:57Z</time>
      </trkpt>
      <trkpt lat="42.39393" lon="0.22758">
        <ele>572.4</ele>
        <time>2018-05-06T09:33:06Z</time>
      </trkpt>
      <trkpt lat="42.39412" lon="0.22749">
        <ele>571.1</ele>
        <time>2018-05-06T09:33:14Z</time>
      </trkpt>
      <trkpt lat="42.39415" lon="0.22747">
        <ele>570.9</ele>
        <time>2018-05-06T09:33:16Z</time>
      </trkpt>
      <trkpt lat="42.39424" lon="0.22735">
        <ele>570.6</ele>
        <time>2018-05-06T09:33:23Z</time>
      </trkpt>
      <trkpt lat="42.3944" lon="0.22725">
        <ele>569.6</ele>
        <time>2018-05-06T09:33:33Z</time>
      </trkpt>
      <trkpt lat="42.39457" lon="0.22713">
        <ele>568.8</ele>
        <time>2018-05-06T09:33:40Z</time>
      </trkpt>
      <trkpt lat="42.39465" lon="0.22706">
        <ele>568.5</ele>
        <time>2018-05-06T09:33:44Z</time>
      </trkpt>
      <trkpt lat="42.39466" lon="0.22695">
        <ele>568.3</ele>
        <time>2018-05-06T09:33:48Z</time>
      </trkpt>
      <trkpt lat="42.3947" lon="0.22695">
        <ele>568.2</ele>
        <time>2018-05-06T09:34:30Z</time>
      </trkpt>
      <trkpt lat="42.39468" lon="0.22697">
        <ele>568.3</ele>
        <time>2018-05-06T09:34:31Z</time>
      </trkpt>
      <trkpt lat="42.39464" lon="0.2271">
        <ele>568.5</ele>
        <time>2018-05-06T09:34:36Z</time>
      </trkpt>
      <trkpt lat="42.39448" lon="0.22722">
        <ele>569.2</ele>
        <time>2018-05-06T09:34:43Z</time>
      </trkpt>
      <trkpt lat="42.39431" lon="0.22731">
        <ele>570.1</ele>
        <time>2018-05-06T09:34:50Z</time>
      </trkpt>
      <trkpt lat="42.39427" lon="0.2273">
        <ele>570.4</ele>
        <time>2018-05-06T09:34:52Z</time>
      </trkpt>
      <trkpt lat="42.39428" lon="0.22723">
        <ele>570.3</ele>
        <time>2018-05-06T09:34:58Z</time>
      </trkpt>
      <trkpt lat="42.39434" lon="0.22698">
        <ele>569.9</ele>
        <time>2018-05-06T09:35:10Z</time>
      </trkpt>
      <trkpt lat="42.39441" lon="0.22678">
        <ele>569.4</ele>
        <time>2018-05-06T09:35:19Z</time>
      </trkpt>
      <trkpt lat="42.39434" lon="0.22678">
        <ele>569.4</ele>
        <time>2018-05-06T09:35:25Z</time>
      </trkpt>
      <trkpt lat="42.39431" lon="0.2268">
        <ele>569.4</ele>
        <time>2018-05-06T09:35:28Z</time>
      </trkpt>
      <trkpt lat="42.39415" lon="0.22692">
        <ele>569.6</ele>
        <time>2018-05-06T09:35:40Z</time>
      </trkpt>
      <trkpt lat="42.39398" lon="0.22699">
        <ele>570.8</ele>
        <time>2018-05-06T09:35:49Z</time>
      </trkpt>
      <trkpt lat="42.39381" lon="0.22709">
        <ele>571.8</ele>
        <time>2018-05-06T09:35:59Z</time>
      </trkpt>
      <trkpt lat="42.39364" lon="0.22719">
        <ele>573.6</ele>
        <time>2018-05-06T09:36:08Z</time>
      </trkpt>
      <trkpt lat="42.39348" lon="0.22733">
        <ele>576.8</ele>
        <time>2018-05-06T09:36:18Z</time>
      </trkpt>
      <trkpt lat="42.39331" lon="0.22748">
        <ele>580.4</ele>
        <time>2018-05-06T09:36:26Z</time>
      </trkpt>
      <trkpt lat="42.39313" lon="0.2276">
        <ele>583.2</ele>
        <time>2018-05-06T09:36:32Z</time>
      </trkpt>
      <trkpt lat="42.39294" lon="0.22759">
        <ele>584.1</ele>
        <time>2018-05-06T09:36:38Z</time>
      </trkpt>
      <trkpt lat="42.39275" lon="0.22757">
        <ele>584.2</ele>
        <time>2018-05-06T09:36:46Z</time>
      </trkpt>
      <trkpt lat="42.39261" lon="0.22772">
        <ele>584.3</ele>
        <time>2018-05-06T09:36:55Z</time>
      </trkpt>
      <trkpt lat="42.39246" lon="0.22781">
        <ele>584.7</ele>
        <time>2018-05-06T09:37:04Z</time>
      </trkpt>
      <trkpt lat="42.39239" lon="0.22778">
        <ele>585.7</ele>
        <time>2018-05-06T09:37:10Z</time>
      </trkpt>
      <trkpt lat="42.39223" lon="0.22766">
        <ele>588.5</ele>
        <time>2018-05-06T09:37:22Z</time>
      </trkpt>
      <trkpt lat="42.39206" lon="0.22754">
        <ele>590.9</ele>
        <time>2018-05-06T09:37:35Z</time>
      </trkpt>
      <trkpt lat="42.39198" lon="0.22747">
        <ele>592.3</ele>
        <time>2018-05-06T09:37:42Z</time>
      </trkpt>
      <trkpt lat="42.3918" lon="0.22751">
        <ele>595.1</ele>
        <time>2018-05-06T09:38:30Z</time>
      </trkpt>
      <trkpt lat="42.3916" lon="0.22744">
        <ele>598.6</ele>
        <time>2018-05-06T09:38:51Z</time>
      </trkpt>
      <trkpt lat="42.39142" lon="0.22745">
        <ele>602.4</ele>
        <time>2018-05-06T09:39:03Z</time>
      </trkpt>
      <trkpt lat="42.39126" lon="0.22758">
        <ele>605.6</ele>
        <time>2018-05-06T09:39:16Z</time>
      </trkpt>
      <trkpt lat="42.39112" lon="0.22773">
        <ele>609.5</ele>
        <time>2018-05-06T09:39:27Z</time>
      </trkpt>
      <trkpt lat="42.39109" lon="0.22777">
        <ele>610.2</ele>
        <time>2018-05-06T09:39:36Z</time>
      </trkpt>
      <trkpt lat="42.39099" lon="0.22797">
        <ele>614.3</ele>
        <time>2018-05-06T09:39:48Z</time>
      </trkpt>
      <trkpt lat="42.39087" lon="0.22815">
        <ele>616.5</ele>
        <time>2018-05-06T09:40:06Z</time>
      </trkpt>
      <trkpt lat="42.39072" lon="0.2283">
        <ele>618.4</ele>
        <time>2018-05-06T09:42:26Z</time>
      </trkpt>
      <trkpt lat="42.39055" lon="0.22838">
        <ele>620.7</ele>
        <time>2018-05-06T09:42:36Z</time>
      </trkpt>
      <trkpt lat="42.39037" lon="0.22839">
        <ele>622.8</ele>
        <time>2018-05-06T09:42:47Z</time>
      </trkpt>
      <trkpt lat="42.3902" lon="0.22829">
        <ele>624.6</ele>
        <time>2018-05-06T09:42:59Z</time>
      </trkpt>
      <trkpt lat="42.39011" lon="0.22827">
        <ele>625.5</ele>
        <time>2018-05-06T09:43:05Z</time>
      </trkpt>
      <trkpt lat="42.39002" lon="0.2282">
        <ele>627.2</ele>
        <time>2018-05-06T09:43:12Z</time>
      </trkpt>
      <trkpt lat="42.38997" lon="0.22816">
        <ele>628.1</ele>
        <time>2018-05-06T09:43:16Z</time>
      </trkpt>
      <trkpt lat="42.38981" lon="0.22802">
        <ele>631.3</ele>
        <time>2018-05-06T09:43:29Z</time>
      </trkpt>
      <trkpt lat="42.38964" lon="0.22795">
        <ele>633.4</ele>
        <time>2018-05-06T09:43:41Z</time>
      </trkpt>
      <trkpt lat="42.38946" lon="0.22788">
        <ele>635.4</ele>
        <time>2018-05-06T09:43:53Z</time>
      </trkpt>
      <trkpt lat="42.38928" lon="0.22785">
        <ele>638.3</ele>
        <time>2018-05-06T09:44:05Z</time>
      </trkpt>
      <trkpt lat="42.3891" lon="0.22784">
        <ele>641.2</ele>
        <time>2018-05-06T09:44:17Z</time>
      </trkpt>
      <trkpt lat="42.38892" lon="0.22786">
        <ele>643.1</ele>
        <time>2018-05-06T09:44:31Z</time>
      </trkpt>
      <trkpt lat="42.38873" lon="0.22786">
        <ele>645.2</ele>
        <time>2018-05-06T09:44:44Z</time>
      </trkpt>
      <trkpt lat="42.38854" lon="0.22782">
        <ele>647.5</ele>
        <time>2018-05-06T09:44:58Z</time>
      </trkpt>
      <trkpt lat="42.38852" lon="0.22783">
        <ele>647.8</ele>
        <time>2018-05-06T09:45:00Z</time>
      </trkpt>
      <trkpt lat="42.38857" lon="0.22801">
        <ele>650.1</ele>
        <time>2018-05-06T09:45:13Z</time>
      </trkpt>
      <trkpt lat="42.38862" lon="0.22822">
        <ele>652.9</ele>
        <time>2018-05-06T09:45:28Z</time>
      </trkpt>
      <trkpt lat="42.38846" lon="0.22833">
        <ele>656.6</ele>
        <time>2018-05-06T09:45:38Z</time>
      </trkpt>
      <trkpt lat="42.38827" lon="0.2284">
        <ele>659.4</ele>
        <time>2018-05-06T09:45:47Z</time>
      </trkpt>
      <trkpt lat="42.3881" lon="0.22855">
        <ele>661.8</ele>
        <time>2018-05-06T09:45:54Z</time>
      </trkpt>
      <trkpt lat="42.38794" lon="0.22867">
        <ele>662.4</ele>
        <time>2018-05-06T09:46:00Z</time>
      </trkpt>
      <trkpt lat="42.38775" lon="0.22878">
        <ele>663</ele>
        <time>2018-05-06T09:46:06Z</time>
      </trkpt>
      <trkpt lat="42.38757" lon="0.22893">
        <ele>664.3</ele>
        <time>2018-05-06T09:46:12Z</time>
      </trkpt>
      <trkpt lat="42.3874" lon="0.22904">
        <ele>664.5</ele>
        <time>2018-05-06T09:46:17Z</time>
      </trkpt>
      <trkpt lat="42.38719" lon="0.22912">
        <ele>665.2</ele>
        <time>2018-05-06T09:46:23Z</time>
      </trkpt>
      <trkpt lat="42.38704" lon="0.22899">
        <ele>666.5</ele>
        <time>2018-05-06T09:46:32Z</time>
      </trkpt>
      <trkpt lat="42.38693" lon="0.22877">
        <ele>666.6</ele>
        <time>2018-05-06T09:46:42Z</time>
      </trkpt>
      <trkpt lat="42.38685" lon="0.22854">
        <ele>666.8</ele>
        <time>2018-05-06T09:46:56Z</time>
      </trkpt>
      <trkpt lat="42.38679" lon="0.2283">
        <ele>667.5</ele>
        <time>2018-05-06T09:47:08Z</time>
      </trkpt>
      <trkpt lat="42.38671" lon="0.22808">
        <ele>669.6</ele>
        <time>2018-05-06T09:47:22Z</time>
      </trkpt>
      <trkpt lat="42.38658" lon="0.22789">
        <ele>672.6</ele>
        <time>2018-05-06T09:47:35Z</time>
      </trkpt>
      <trkpt lat="42.38644" lon="0.22773">
        <ele>675</ele>
        <time>2018-05-06T09:47:47Z</time>
      </trkpt>
      <trkpt lat="42.38629" lon="0.22756">
        <ele>678.1</ele>
        <time>2018-05-06T09:48:00Z</time>
      </trkpt>
      <trkpt lat="42.38618" lon="0.22735">
        <ele>681</ele>
        <time>2018-05-06T09:48:10Z</time>
      </trkpt>
      <trkpt lat="42.38612" lon="0.2271">
        <ele>683.4</ele>
        <time>2018-05-06T09:48:20Z</time>
      </trkpt>
      <trkpt lat="42.38608" lon="0.22685">
        <ele>685.8</ele>
        <time>2018-05-06T09:48:29Z</time>
      </trkpt>
      <trkpt lat="42.38606" lon="0.22659">
        <ele>688.2</ele>
        <time>2018-05-06T09:48:40Z</time>
      </trkpt>
      <trkpt lat="42.38602" lon="0.22634">
        <ele>690.9</ele>
        <time>2018-05-06T09:48:51Z</time>
      </trkpt>
      <trkpt lat="42.38596" lon="0.2261">
        <ele>691.6</ele>
        <time>2018-05-06T09:49:01Z</time>
      </trkpt>
      <trkpt lat="42.3859" lon="0.22587">
        <ele>692.2</ele>
        <time>2018-05-06T09:49:11Z</time>
      </trkpt>
      <trkpt lat="42.38582" lon="0.22562">
        <ele>695.2</ele>
        <time>2018-05-06T09:49:18Z</time>
      </trkpt>
      <trkpt lat="42.3857" lon="0.22551">
        <ele>697.3</ele>
        <time>2018-05-06T09:49:21Z</time>
      </trkpt>
      <trkpt lat="42.38559" lon="0.22531">
        <ele>699.8</ele>
        <time>2018-05-06T09:49:26Z</time>
      </trkpt>
      <trkpt lat="42.3855" lon="0.2251">
        <ele>701.5</ele>
        <time>2018-05-06T09:49:34Z</time>
      </trkpt>
      <trkpt lat="42.38545" lon="0.22486">
        <ele>701.8</ele>
        <time>2018-05-06T09:49:44Z</time>
      </trkpt>
      <trkpt lat="42.38553" lon="0.22466">
        <ele>701.8</ele>
        <time>2018-05-06T09:49:56Z</time>
      </trkpt>
      <trkpt lat="42.38553" lon="0.22448">
        <ele>701.9</ele>
        <time>2018-05-06T09:50:06Z</time>
      </trkpt>
      <trkpt lat="42.38536" lon="0.22439">
        <ele>702.3</ele>
        <time>2018-05-06T09:50:21Z</time>
      </trkpt>
      <trkpt lat="42.38518" lon="0.22431">
        <ele>704.2</ele>
        <time>2018-05-06T09:50:38Z</time>
      </trkpt>
      <trkpt lat="42.38499" lon="0.22425">
        <ele>706.5</ele>
        <time>2018-05-06T09:50:55Z</time>
      </trkpt>
      <trkpt lat="42.3848" lon="0.22421">
        <ele>710.3</ele>
        <time>2018-05-06T09:51:09Z</time>
      </trkpt>
      <trkpt lat="42.38459" lon="0.22425">
        <ele>713.2</ele>
        <time>2018-05-06T09:51:25Z</time>
      </trkpt>
      <trkpt lat="42.38436" lon="0.22434">
        <ele>718.4</ele>
        <time>2018-05-06T09:51:43Z</time>
      </trkpt>
      <trkpt lat="42.38416" lon="0.22429">
        <ele>721.7</ele>
        <time>2018-05-06T09:51:56Z</time>
      </trkpt>
      <trkpt lat="42.38399" lon="0.22419">
        <ele>725.4</ele>
        <time>2018-05-06T09:52:08Z</time>
      </trkpt>
      <trkpt lat="42.38383" lon="0.22408">
        <ele>727.6</ele>
        <time>2018-05-06T09:52:19Z</time>
      </trkpt>
      <trkpt lat="42.38375" lon="0.2239">
        <ele>729.3</ele>
        <time>2018-05-06T09:52:30Z</time>
      </trkpt>
      <trkpt lat="42.38375" lon="0.22385">
        <ele>729.5</ele>
        <time>2018-05-06T09:52:32Z</time>
      </trkpt>
      <trkpt lat="42.38385" lon="0.22362">
        <ele>732.4</ele>
        <time>2018-05-06T09:52:49Z</time>
      </trkpt>
      <trkpt lat="42.38401" lon="0.22348">
        <ele>733.5</ele>
        <time>2018-05-06T09:53:02Z</time>
      </trkpt>
      <trkpt lat="42.38419" lon="0.22345">
        <ele>735.2</ele>
        <time>2018-05-06T09:53:12Z</time>
      </trkpt>
      <trkpt lat="42.38438" lon="0.2234">
        <ele>738.2</ele>
        <time>2018-05-06T09:53:23Z</time>
      </trkpt>
      <trkpt lat="42.38452" lon="0.22323">
        <ele>741.5</ele>
        <time>2018-05-06T09:53:35Z</time>
      </trkpt>
      <trkpt lat="42.38468" lon="0.2231">
        <ele>744.4</ele>
        <time>2018-05-06T09:53:43Z</time>
      </trkpt>
      <trkpt lat="42.38477" lon="0.22291">
        <ele>746.3</ele>
        <time>2018-05-06T09:53:52Z</time>
      </trkpt>
      <trkpt lat="42.38472" lon="0.22286">
        <ele>746.9</ele>
        <time>2018-05-06T09:53:56Z</time>
      </trkpt>
      <trkpt lat="42.38453" lon="0.22286">
        <ele>748</ele>
        <time>2018-05-06T09:54:08Z</time>
      </trkpt>
      <trkpt lat="42.38434" lon="0.22291">
        <ele>749.7</ele>
        <time>2018-05-06T09:54:18Z</time>
      </trkpt>
      <trkpt lat="42.38416" lon="0.22292">
        <ele>750.3</ele>
        <time>2018-05-06T09:54:27Z</time>
      </trkpt>
      <trkpt lat="42.38395" lon="0.22296">
        <ele>750.9</ele>
        <time>2018-05-06T09:54:35Z</time>
      </trkpt>
      <trkpt lat="42.38377" lon="0.22304">
        <ele>753.1</ele>
        <time>2018-05-06T09:54:42Z</time>
      </trkpt>
      <trkpt lat="42.38361" lon="0.22313">
        <ele>755.7</ele>
        <time>2018-05-06T09:55:08Z</time>
      </trkpt>
      <trkpt lat="42.38341" lon="0.2232">
        <ele>757</ele>
        <time>2018-05-06T09:55:16Z</time>
      </trkpt>
      <trkpt lat="42.38324" lon="0.22326">
        <ele>758.3</ele>
        <time>2018-05-06T09:55:21Z</time>
      </trkpt>
      <trkpt lat="42.38303" lon="0.22335">
        <ele>758.5</ele>
        <time>2018-05-06T09:55:26Z</time>
      </trkpt>
      <trkpt lat="42.38288" lon="0.22344">
        <ele>758.5</ele>
        <time>2018-05-06T09:55:29Z</time>
      </trkpt>
      <trkpt lat="42.38269" lon="0.22343">
        <ele>758.5</ele>
        <time>2018-05-06T09:55:33Z</time>
      </trkpt>
      <trkpt lat="42.38254" lon="0.22322">
        <ele>758.5</ele>
        <time>2018-05-06T09:55:38Z</time>
      </trkpt>
      <trkpt lat="42.38244" lon="0.22306">
        <ele>758.5</ele>
        <time>2018-05-06T09:55:43Z</time>
      </trkpt>
      <trkpt lat="42.3824" lon="0.22309">
        <ele>758.5</ele>
        <time>2018-05-06T09:55:46Z</time>
      </trkpt>
      <trkpt lat="42.38233" lon="0.22332">
        <ele>758.5</ele>
        <time>2018-05-06T09:55:54Z</time>
      </trkpt>
      <trkpt lat="42.38227" lon="0.22358">
        <ele>758.5</ele>
        <time>2018-05-06T09:56:00Z</time>
      </trkpt>
      <trkpt lat="42.38214" lon="0.22377">
        <ele>758.5</ele>
        <time>2018-05-06T09:56:06Z</time>
      </trkpt>
      <trkpt lat="42.382" lon="0.22396">
        <ele>758.5</ele>
        <time>2018-05-06T09:56:13Z</time>
      </trkpt>
      <trkpt lat="42.3819" lon="0.22417">
        <ele>758.6</ele>
        <time>2018-05-06T09:56:22Z</time>
      </trkpt>
      <trkpt lat="42.38171" lon="0.22436">
        <ele>759.7</ele>
        <time>2018-05-06T09:56:28Z</time>
      </trkpt>
      <trkpt lat="42.38152" lon="0.22443">
        <ele>760.8</ele>
        <time>2018-05-06T09:56:34Z</time>
      </trkpt>
      <trkpt lat="42.3813" lon="0.22448">
        <ele>761.9</ele>
        <time>2018-05-06T09:56:41Z</time>
      </trkpt>
      <trkpt lat="42.38113" lon="0.22461">
        <ele>763.1</ele>
        <time>2018-05-06T09:56:48Z</time>
      </trkpt>
      <trkpt lat="42.38098" lon="0.22479">
        <ele>764.5</ele>
        <time>2018-05-06T09:56:53Z</time>
      </trkpt>
      <trkpt lat="42.38079" lon="0.22482">
        <ele>765.1</ele>
        <time>2018-05-06T09:56:58Z</time>
      </trkpt>
      <trkpt lat="42.38061" lon="0.22485">
        <ele>765.6</ele>
        <time>2018-05-06T09:57:03Z</time>
      </trkpt>
      <trkpt lat="42.38048" lon="0.22504">
        <ele>767.1</ele>
        <time>2018-05-06T09:57:09Z</time>
      </trkpt>
      <trkpt lat="42.38035" lon="0.22524">
        <ele>768.8</ele>
        <time>2018-05-06T09:57:15Z</time>
      </trkpt>
      <trkpt lat="42.38018" lon="0.22537">
        <ele>769.4</ele>
        <time>2018-05-06T09:57:22Z</time>
      </trkpt>
      <trkpt lat="42.38001" lon="0.22545">
        <ele>769.6</ele>
        <time>2018-05-06T09:57:30Z</time>
      </trkpt>
      <trkpt lat="42.37985" lon="0.22555">
        <ele>769.3</ele>
        <time>2018-05-06T09:57:37Z</time>
      </trkpt>
      <trkpt lat="42.37967" lon="0.22551">
        <ele>769</ele>
        <time>2018-05-06T09:57:45Z</time>
      </trkpt>
      <trkpt lat="42.37951" lon="0.2254">
        <ele>769.1</ele>
        <time>2018-05-06T09:57:53Z</time>
      </trkpt>
      <trkpt lat="42.37935" lon="0.22529">
        <ele>770.3</ele>
        <time>2018-05-06T09:58:02Z</time>
      </trkpt>
      <trkpt lat="42.37916" lon="0.22522">
        <ele>773</ele>
        <time>2018-05-06T09:58:14Z</time>
      </trkpt>
      <trkpt lat="42.37914" lon="0.22521">
        <ele>773.8</ele>
        <time>2018-05-06T09:58:16Z</time>
      </trkpt>
      <trkpt lat="42.37909" lon="0.22517">
        <ele>775.3</ele>
        <time>2018-05-06T09:58:20Z</time>
      </trkpt>
      <trkpt lat="42.37895" lon="0.22499">
        <ele>778.6</ele>
        <time>2018-05-06T09:58:32Z</time>
      </trkpt>
      <trkpt lat="42.37877" lon="0.22493">
        <ele>779.5</ele>
        <time>2018-05-06T09:58:42Z</time>
      </trkpt>
      <trkpt lat="42.37857" lon="0.22488">
        <ele>780.8</ele>
        <time>2018-05-06T09:58:53Z</time>
      </trkpt>
      <trkpt lat="42.37839" lon="0.22479">
        <ele>781.4</ele>
        <time>2018-05-06T09:59:01Z</time>
      </trkpt>
      <trkpt lat="42.37826" lon="0.22462">
        <ele>784.5</ele>
        <time>2018-05-06T09:59:11Z</time>
      </trkpt>
      <trkpt lat="42.37821" lon="0.2245">
        <ele>787.1</ele>
        <time>2018-05-06T09:59:18Z</time>
      </trkpt>
      <trkpt lat="42.37828" lon="0.22428">
        <ele>791</ele>
        <time>2018-05-06T09:59:31Z</time>
      </trkpt>
      <trkpt lat="42.37847" lon="0.22423">
        <ele>793.1</ele>
        <time>2018-05-06T09:59:44Z</time>
      </trkpt>
      <trkpt lat="42.3785" lon="0.22419">
        <ele>795.2</ele>
        <time>2018-05-06T09:59:49Z</time>
      </trkpt>
      <trkpt lat="42.37853" lon="0.22393">
        <ele>798.7</ele>
        <time>2018-05-06T10:00:06Z</time>
      </trkpt>
      <trkpt lat="42.37852" lon="0.22388">
        <ele>800.5</ele>
        <time>2018-05-06T10:00:10Z</time>
      </trkpt>
      <trkpt lat="42.37842" lon="0.22401">
        <ele>798.4</ele>
        <time>2018-05-06T10:00:16Z</time>
      </trkpt>
      <trkpt lat="42.37826" lon="0.22404">
        <ele>797</ele>
        <time>2018-05-06T10:00:32Z</time>
      </trkpt>
      <trkpt lat="42.37828" lon="0.2238">
        <ele>800.2</ele>
        <time>2018-05-06T10:00:38Z</time>
      </trkpt>
      <trkpt lat="42.37819" lon="0.22366">
        <ele>802.5</ele>
        <time>2018-05-06T10:00:56Z</time>
      </trkpt>
      <trkpt lat="42.378" lon="0.22377">
        <ele>800</ele>
        <time>2018-05-06T10:01:06Z</time>
      </trkpt>
      <trkpt lat="42.37785" lon="0.22392">
        <ele>796.5</ele>
        <time>2018-05-06T10:01:12Z</time>
      </trkpt>
      <trkpt lat="42.37775" lon="0.22371">
        <ele>797.9</ele>
        <time>2018-05-06T10:01:17Z</time>
      </trkpt>
      <trkpt lat="42.37767" lon="0.22347">
        <ele>800.6</ele>
        <time>2018-05-06T10:01:21Z</time>
      </trkpt>
      <trkpt lat="42.37762" lon="0.22323">
        <ele>804.4</ele>
        <time>2018-05-06T10:01:30Z</time>
      </trkpt>
      <trkpt lat="42.37751" lon="0.22303">
        <ele>808.8</ele>
        <time>2018-05-06T10:01:40Z</time>
      </trkpt>
      <trkpt lat="42.37742" lon="0.22282">
        <ele>813.3</ele>
        <time>2018-05-06T10:01:48Z</time>
      </trkpt>
      <trkpt lat="42.37733" lon="0.22272">
        <ele>817</ele>
        <time>2018-05-06T10:01:53Z</time>
      </trkpt>
      <trkpt lat="42.37713" lon="0.22271">
        <ele>815.9</ele>
        <time>2018-05-06T10:02:00Z</time>
      </trkpt>
      <trkpt lat="42.37694" lon="0.2227">
        <ele>814.8</ele>
        <time>2018-05-06T10:02:06Z</time>
      </trkpt>
      <trkpt lat="42.37682" lon="0.2228">
        <ele>812.2</ele>
        <time>2018-05-06T10:02:11Z</time>
      </trkpt>
      <trkpt lat="42.37672" lon="0.22294">
        <ele>805.9</ele>
        <time>2018-05-06T10:02:15Z</time>
      </trkpt>
      <trkpt lat="42.37652" lon="0.22293">
        <ele>801.9</ele>
        <time>2018-05-06T10:02:19Z</time>
      </trkpt>
      <trkpt lat="42.37634" lon="0.2229">
        <ele>799.7</ele>
        <time>2018-05-06T10:02:22Z</time>
      </trkpt>
      <trkpt lat="42.37628" lon="0.22288">
        <ele>798.9</ele>
        <time>2018-05-06T10:02:23Z</time>
      </trkpt>
      <trkpt lat="42.3761" lon="0.22282">
        <ele>796.5</ele>
        <time>2018-05-06T10:02:26Z</time>
      </trkpt>
      <trkpt lat="42.37605" lon="0.22279">
        <ele>796.2</ele>
        <time>2018-05-06T10:02:27Z</time>
      </trkpt>
      <trkpt lat="42.37593" lon="0.22272">
        <ele>793.9</ele>
        <time>2018-05-06T10:02:29Z</time>
      </trkpt>
      <trkpt lat="42.37575" lon="0.2226">
        <ele>792.4</ele>
        <time>2018-05-06T10:02:33Z</time>
      </trkpt>
      <trkpt lat="42.37575" lon="0.22244">
        <ele>795.6</ele>
        <time>2018-05-06T10:02:37Z</time>
      </trkpt>
      <trkpt lat="42.3758" lon="0.22226">
        <ele>802.9</ele>
        <time>2018-05-06T10:02:42Z</time>
      </trkpt>
      <trkpt lat="42.37576" lon="0.22209">
        <ele>808.6</ele>
        <time>2018-05-06T10:02:47Z</time>
      </trkpt>
      <trkpt lat="42.37569" lon="0.22188">
        <ele>812.2</ele>
        <time>2018-05-06T10:02:55Z</time>
      </trkpt>
      <trkpt lat="42.37549" lon="0.22187">
        <ele>808.8</ele>
        <time>2018-05-06T10:03:06Z</time>
      </trkpt>
      <trkpt lat="42.37535" lon="0.22172">
        <ele>809</ele>
        <time>2018-05-06T10:03:17Z</time>
      </trkpt>
      <trkpt lat="42.37521" lon="0.22155">
        <ele>809.8</ele>
        <time>2018-05-06T10:03:29Z</time>
      </trkpt>
      <trkpt lat="42.37503" lon="0.22146">
        <ele>808.4</ele>
        <time>2018-05-06T10:03:42Z</time>
      </trkpt>
      <trkpt lat="42.37485" lon="0.22139">
        <ele>806.5</ele>
        <time>2018-05-06T10:03:55Z</time>
      </trkpt>
      <trkpt lat="42.3747" lon="0.22127">
        <ele>803.5</ele>
        <time>2018-05-06T10:04:08Z</time>
      </trkpt>
      <trkpt lat="42.37464" lon="0.22105">
        <ele>806.1</ele>
        <time>2018-05-06T10:04:19Z</time>
      </trkpt>
      <trkpt lat="42.37465" lon="0.2208">
        <ele>810.2</ele>
        <time>2018-05-06T10:04:29Z</time>
      </trkpt>
      <trkpt lat="42.37457" lon="0.22061">
        <ele>812.5</ele>
        <time>2018-05-06T10:04:37Z</time>
      </trkpt>
      <trkpt lat="42.37439" lon="0.22057">
        <ele>811.9</ele>
        <time>2018-05-06T10:05:14Z</time>
      </trkpt>
      <trkpt lat="42.37434" lon="0.22058">
        <ele>811.4</ele>
        <time>2018-05-06T10:05:16Z</time>
      </trkpt>
      <trkpt lat="42.37446" lon="0.22065">
        <ele>812</ele>
        <time>2018-05-06T10:05:31Z</time>
      </trkpt>
      <trkpt lat="42.37448" lon="0.22067">
        <ele>811.8</ele>
        <time>2018-05-06T10:05:33Z</time>
      </trkpt>
      <trkpt lat="42.37444" lon="0.22085">
        <ele>807.8</ele>
        <time>2018-05-06T10:06:16Z</time>
      </trkpt>
      <trkpt lat="42.37431" lon="0.22098">
        <ele>802.2</ele>
        <time>2018-05-06T10:06:44Z</time>
      </trkpt>
      <trkpt lat="42.37414" lon="0.22112">
        <ele>795.8</ele>
        <time>2018-05-06T10:06:58Z</time>
      </trkpt>
      <trkpt lat="42.37409" lon="0.22114">
        <ele>794.7</ele>
        <time>2018-05-06T10:07:00Z</time>
      </trkpt>
      <trkpt lat="42.37402" lon="0.22132">
        <ele>790.3</ele>
        <time>2018-05-06T10:07:06Z</time>
      </trkpt>
      <trkpt lat="42.37397" lon="0.2214">
        <ele>787.7</ele>
        <time>2018-05-06T10:07:09Z</time>
      </trkpt>
      <trkpt lat="42.37378" lon="0.2214">
        <ele>784.2</ele>
        <time>2018-05-06T10:07:15Z</time>
      </trkpt>
      <trkpt lat="42.37361" lon="0.22147">
        <ele>781</ele>
        <time>2018-05-06T10:07:27Z</time>
      </trkpt>
      <trkpt lat="42.37353" lon="0.22156">
        <ele>778.3</ele>
        <time>2018-05-06T10:07:31Z</time>
      </trkpt>
      <trkpt lat="42.37347" lon="0.22164">
        <ele>776.1</ele>
        <time>2018-05-06T10:07:36Z</time>
      </trkpt>
      <trkpt lat="42.37336" lon="0.22185">
        <ele>771.7</ele>
        <time>2018-05-06T10:07:44Z</time>
      </trkpt>
      <trkpt lat="42.37323" lon="0.22204">
        <ele>767.6</ele>
        <time>2018-05-06T10:07:52Z</time>
      </trkpt>
      <trkpt lat="42.3731" lon="0.22221">
        <ele>764.1</ele>
        <time>2018-05-06T10:09:21Z</time>
      </trkpt>
      <trkpt lat="42.373" lon="0.22241">
        <ele>761.6</ele>
        <time>2018-05-06T10:09:26Z</time>
      </trkpt>
      <trkpt lat="42.37295" lon="0.22266">
        <ele>759.1</ele>
        <time>2018-05-06T10:09:29Z</time>
      </trkpt>
      <trkpt lat="42.37293" lon="0.22277">
        <ele>758.4</ele>
        <time>2018-05-06T10:09:30Z</time>
      </trkpt>
      <trkpt lat="42.37289" lon="0.22307">
        <ele>755.9</ele>
        <time>2018-05-06T10:09:33Z</time>
      </trkpt>
      <trkpt lat="42.37282" lon="0.22338">
        <ele>754.7</ele>
        <time>2018-05-06T10:09:36Z</time>
      </trkpt>
      <trkpt lat="42.37279" lon="0.22348">
        <ele>754.6</ele>
        <time>2018-05-06T10:09:37Z</time>
      </trkpt>
      <trkpt lat="42.37267" lon="0.22372">
        <ele>755.5</ele>
        <time>2018-05-06T10:09:40Z</time>
      </trkpt>
      <trkpt lat="42.37257" lon="0.22396">
        <ele>756.6</ele>
        <time>2018-05-06T10:09:44Z</time>
      </trkpt>
      <trkpt lat="42.37246" lon="0.2242">
        <ele>757.4</ele>
        <time>2018-05-06T10:09:51Z</time>
      </trkpt>
      <trkpt lat="42.3723" lon="0.22437">
        <ele>759</ele>
        <time>2018-05-06T10:09:57Z</time>
      </trkpt>
      <trkpt lat="42.37216" lon="0.22456">
        <ele>759</ele>
        <time>2018-05-06T10:10:01Z</time>
      </trkpt>
      <trkpt lat="42.37207" lon="0.2248">
        <ele>757.9</ele>
        <time>2018-05-06T10:10:04Z</time>
      </trkpt>
      <trkpt lat="42.37204" lon="0.2249">
        <ele>757.3</ele>
        <time>2018-05-06T10:10:05Z</time>
      </trkpt>
      <trkpt lat="42.37194" lon="0.22519">
        <ele>756</ele>
        <time>2018-05-06T10:10:08Z</time>
      </trkpt>
      <trkpt lat="42.3719" lon="0.22532">
        <ele>755.5</ele>
        <time>2018-05-06T10:10:10Z</time>
      </trkpt>
      <trkpt lat="42.37185" lon="0.22546">
        <ele>755.2</ele>
        <time>2018-05-06T10:10:14Z</time>
      </trkpt>
      <trkpt lat="42.37183" lon="0.22552">
        <ele>755.1</ele>
        <time>2018-05-06T10:10:17Z</time>
      </trkpt>
      <trkpt lat="42.37171" lon="0.22552">
        <ele>753.1</ele>
        <time>2018-05-06T10:10:26Z</time>
      </trkpt>
      <trkpt lat="42.37162" lon="0.2253">
        <ele>751.5</ele>
        <time>2018-05-06T10:10:34Z</time>
      </trkpt>
      <trkpt lat="42.37153" lon="0.22507">
        <ele>750.9</ele>
        <time>2018-05-06T10:10:47Z</time>
      </trkpt>
      <trkpt lat="42.37144" lon="0.22486">
        <ele>750.2</ele>
        <time>2018-05-06T10:11:11Z</time>
      </trkpt>
      <trkpt lat="42.37137" lon="0.22464">
        <ele>748.2</ele>
        <time>2018-05-06T10:11:39Z</time>
      </trkpt>
      <trkpt lat="42.37135" lon="0.22442">
        <ele>745.9</ele>
        <time>2018-05-06T10:12:08Z</time>
      </trkpt>
      <trkpt lat="42.3713" lon="0.22416">
        <ele>742.7</ele>
        <time>2018-05-06T10:12:15Z</time>
      </trkpt>
      <trkpt lat="42.37125" lon="0.2239">
        <ele>740.6</ele>
        <time>2018-05-06T10:12:22Z</time>
      </trkpt>
      <trkpt lat="42.37112" lon="0.22368">
        <ele>740.2</ele>
        <time>2018-05-06T10:13:12Z</time>
      </trkpt>
      <trkpt lat="42.37101" lon="0.22343">
        <ele>740.1</ele>
        <time>2018-05-06T10:13:20Z</time>
      </trkpt>
      <trkpt lat="42.37096" lon="0.22316">
        <ele>740.1</ele>
        <time>2018-05-06T10:13:25Z</time>
      </trkpt>
      <trkpt lat="42.37093" lon="0.22288">
        <ele>740.1</ele>
        <time>2018-05-06T10:13:31Z</time>
      </trkpt>
      <trkpt lat="42.37091" lon="0.22262">
        <ele>740</ele>
        <time>2018-05-06T10:13:37Z</time>
      </trkpt>
      <trkpt lat="42.37087" lon="0.22238">
        <ele>739.9</ele>
        <time>2018-05-06T10:13:42Z</time>
      </trkpt>
      <trkpt lat="42.37086" lon="0.22228">
        <ele>739.7</ele>
        <time>2018-05-06T10:13:45Z</time>
      </trkpt>
      <trkpt lat="42.37077" lon="0.22202">
        <ele>738.9</ele>
        <time>2018-05-06T10:13:52Z</time>
      </trkpt>
      <trkpt lat="42.37072" lon="0.22188">
        <ele>738.6</ele>
        <time>2018-05-06T10:13:55Z</time>
      </trkpt>
      <trkpt lat="42.37075" lon="0.22162">
        <ele>738.7</ele>
        <time>2018-05-06T10:14:00Z</time>
      </trkpt>
      <trkpt lat="42.37076" lon="0.22158">
        <ele>738.9</ele>
        <time>2018-05-06T10:14:01Z</time>
      </trkpt>
      <trkpt lat="42.37083" lon="0.22134">
        <ele>739.8</ele>
        <time>2018-05-06T10:14:07Z</time>
      </trkpt>
      <trkpt lat="42.37084" lon="0.22107">
        <ele>740.2</ele>
        <time>2018-05-06T10:14:14Z</time>
      </trkpt>
      <trkpt lat="42.37084" lon="0.22082">
        <ele>740.3</ele>
        <time>2018-05-06T10:14:20Z</time>
      </trkpt>
      <trkpt lat="42.37073" lon="0.22063">
        <ele>740.3</ele>
        <time>2018-05-06T10:14:27Z</time>
      </trkpt>
      <trkpt lat="42.37061" lon="0.22041">
        <ele>740.3</ele>
        <time>2018-05-06T10:14:33Z</time>
      </trkpt>
      <trkpt lat="42.37049" lon="0.22022">
        <ele>740.7</ele>
        <time>2018-05-06T10:14:39Z</time>
      </trkpt>
      <trkpt lat="42.37041" lon="0.22">
        <ele>741.7</ele>
        <time>2018-05-06T10:14:45Z</time>
      </trkpt>
      <trkpt lat="42.37036" lon="0.21983">
        <ele>742.1</ele>
        <time>2018-05-06T10:14:52Z</time>
      </trkpt>
      <trkpt lat="42.37032" lon="0.21984">
        <ele>742.1</ele>
        <time>2018-05-06T10:15:33Z</time>
      </trkpt>
      <trkpt lat="42.37029" lon="0.21985">
        <ele>742.1</ele>
        <time>2018-05-06T10:19:45Z</time>
      </trkpt>
      <trkpt lat="42.37011" lon="0.21994">
        <ele>741</ele>
        <time>2018-05-06T10:19:54Z</time>
      </trkpt>
      <trkpt lat="42.36992" lon="0.22003">
        <ele>740.1</ele>
        <time>2018-05-06T10:20:02Z</time>
      </trkpt>
      <trkpt lat="42.36974" lon="0.22013">
        <ele>739.4</ele>
        <time>2018-05-06T10:20:09Z</time>
      </trkpt>
      <trkpt lat="42.36962" lon="0.22018">
        <ele>739.1</ele>
        <time>2018-05-06T10:20:12Z</time>
      </trkpt>
      <trkpt lat="42.36944" lon="0.22023">
        <ele>738.3</ele>
        <time>2018-05-06T10:20:26Z</time>
      </trkpt>
      <trkpt lat="42.36943" lon="0.22017">
        <ele>738.6</ele>
        <time>2018-05-06T10:20:31Z</time>
      </trkpt>
      <trkpt lat="42.36934" lon="0.21994">
        <ele>739</ele>
        <time>2018-05-06T10:20:44Z</time>
      </trkpt>
      <trkpt lat="42.36919" lon="0.21978">
        <ele>738.6</ele>
        <time>2018-05-06T10:20:52Z</time>
      </trkpt>
      <trkpt lat="42.36916" lon="0.21974">
        <ele>738.5</ele>
        <time>2018-05-06T10:20:54Z</time>
      </trkpt>
      <trkpt lat="42.36906" lon="0.21971">
        <ele>738.1</ele>
        <time>2018-05-06T10:21:01Z</time>
      </trkpt>
      <trkpt lat="42.36893" lon="0.21964">
        <ele>737</ele>
        <time>2018-05-06T10:21:08Z</time>
      </trkpt>
      <trkpt lat="42.36886" lon="0.21963">
        <ele>736.2</ele>
        <time>2018-05-06T10:21:12Z</time>
      </trkpt>
      <trkpt lat="42.36868" lon="0.21949">
        <ele>732.6</ele>
        <time>2018-05-06T10:21:33Z</time>
      </trkpt>
      <trkpt lat="42.36855" lon="0.21942">
        <ele>729</ele>
        <time>2018-05-06T10:22:01Z</time>
      </trkpt>
      <trkpt lat="42.36854" lon="0.21964">
        <ele>728.5</ele>
        <time>2018-05-06T10:22:21Z</time>
      </trkpt>
      <trkpt lat="42.36849" lon="0.21966">
        <ele>726.4</ele>
        <time>2018-05-06T10:22:39Z</time>
      </trkpt>
      <trkpt lat="42.36847" lon="0.21961">
        <ele>725.6</ele>
        <time>2018-05-06T10:22:43Z</time>
      </trkpt>
      <trkpt lat="42.36845" lon="0.21963">
        <ele>725.6</ele>
        <time>2018-05-06T10:22:47Z</time>
      </trkpt>
      <trkpt lat="42.36841" lon="0.21972">
        <ele>723.2</ele>
        <time>2018-05-06T10:23:17Z</time>
      </trkpt>
      <trkpt lat="42.36838" lon="0.21968">
        <ele>723.4</ele>
        <time>2018-05-06T10:23:19Z</time>
      </trkpt>
      <trkpt lat="42.36824" lon="0.21952">
        <ele>718.5</ele>
        <time>2018-05-06T10:23:26Z</time>
      </trkpt>
      <trkpt lat="42.36814" lon="0.21931">
        <ele>716</ele>
        <time>2018-05-06T10:23:32Z</time>
      </trkpt>
      <trkpt lat="42.36805" lon="0.21915">
        <ele>713.1</ele>
        <time>2018-05-06T10:24:32Z</time>
      </trkpt>
      <trkpt lat="42.36794" lon="0.21907">
        <ele>710.7</ele>
        <time>2018-05-06T10:24:59Z</time>
      </trkpt>
      <trkpt lat="42.36783" lon="0.21913">
        <ele>708.6</ele>
        <time>2018-05-06T10:25:20Z</time>
      </trkpt>
      <trkpt lat="42.36779" lon="0.21884">
        <ele>706.7</ele>
        <time>2018-05-06T10:25:27Z</time>
      </trkpt>
      <trkpt lat="42.3678" lon="0.21855">
        <ele>705.5</ele>
        <time>2018-05-06T10:25:31Z</time>
      </trkpt>
      <trkpt lat="42.36785" lon="0.21829">
        <ele>704.7</ele>
        <time>2018-05-06T10:25:38Z</time>
      </trkpt>
      <trkpt lat="42.36787" lon="0.21803">
        <ele>704.3</ele>
        <time>2018-05-06T10:25:46Z</time>
      </trkpt>
      <trkpt lat="42.36785" lon="0.21777">
        <ele>703.5</ele>
        <time>2018-05-06T10:25:56Z</time>
      </trkpt>
      <trkpt lat="42.36773" lon="0.21756">
        <ele>702.2</ele>
        <time>2018-05-06T10:26:05Z</time>
      </trkpt>
      <trkpt lat="42.36769" lon="0.21729">
        <ele>701.9</ele>
        <time>2018-05-06T10:26:16Z</time>
      </trkpt>
      <trkpt lat="42.36767" lon="0.21702">
        <ele>701.1</ele>
        <time>2018-05-06T10:26:25Z</time>
      </trkpt>
      <trkpt lat="42.36757" lon="0.21681">
        <ele>700.9</ele>
        <time>2018-05-06T10:26:37Z</time>
      </trkpt>
      <trkpt lat="42.36741" lon="0.21663">
        <ele>701.7</ele>
        <time>2018-05-06T10:26:46Z</time>
      </trkpt>
      <trkpt lat="42.36732" lon="0.21643">
        <ele>701.6</ele>
        <time>2018-05-06T10:26:57Z</time>
      </trkpt>
      <trkpt lat="42.36723" lon="0.21619">
        <ele>700.7</ele>
        <time>2018-05-06T10:27:09Z</time>
      </trkpt>
      <trkpt lat="42.3671" lon="0.216">
        <ele>701.4</ele>
        <time>2018-05-06T10:27:21Z</time>
      </trkpt>
      <trkpt lat="42.36699" lon="0.21578">
        <ele>701.4</ele>
        <time>2018-05-06T10:27:30Z</time>
      </trkpt>
      <trkpt lat="42.36686" lon="0.2156">
        <ele>701.5</ele>
        <time>2018-05-06T10:27:36Z</time>
      </trkpt>
      <trkpt lat="42.36669" lon="0.2155">
        <ele>704</ele>
        <time>2018-05-06T10:27:42Z</time>
      </trkpt>
      <trkpt lat="42.36655" lon="0.21535">
        <ele>704.8</ele>
        <time>2018-05-06T10:27:50Z</time>
      </trkpt>
      <trkpt lat="42.36638" lon="0.21524">
        <ele>707.6</ele>
        <time>2018-05-06T10:27:58Z</time>
      </trkpt>
      <trkpt lat="42.36627" lon="0.21518">
        <ele>710.1</ele>
        <time>2018-05-06T10:28:04Z</time>
      </trkpt>
      <trkpt lat="42.36611" lon="0.21503">
        <ele>711.3</ele>
        <time>2018-05-06T10:28:11Z</time>
      </trkpt>
      <trkpt lat="42.366" lon="0.2148">
        <ele>709.8</ele>
        <time>2018-05-06T10:28:16Z</time>
      </trkpt>
      <trkpt lat="42.36589" lon="0.21459">
        <ele>709.2</ele>
        <time>2018-05-06T10:28:21Z</time>
      </trkpt>
      <trkpt lat="42.36575" lon="0.21444">
        <ele>710.1</ele>
        <time>2018-05-06T10:28:26Z</time>
      </trkpt>
      <trkpt lat="42.36557" lon="0.2143">
        <ele>714.2</ele>
        <time>2018-05-06T10:28:34Z</time>
      </trkpt>
      <trkpt lat="42.36543" lon="0.21413">
        <ele>716.1</ele>
        <time>2018-05-06T10:28:40Z</time>
      </trkpt>
      <trkpt lat="42.36529" lon="0.2139">
        <ele>717.3</ele>
        <time>2018-05-06T10:28:46Z</time>
      </trkpt>
      <trkpt lat="42.36521" lon="0.21373">
        <ele>715.8</ele>
        <time>2018-05-06T10:28:49Z</time>
      </trkpt>
      <trkpt lat="42.36512" lon="0.21351">
        <ele>714.1</ele>
        <time>2018-05-06T10:28:52Z</time>
      </trkpt>
      <trkpt lat="42.36506" lon="0.21336">
        <ele>711.7</ele>
        <time>2018-05-06T10:28:54Z</time>
      </trkpt>
      <trkpt lat="42.36494" lon="0.21316">
        <ele>710.5</ele>
        <time>2018-05-06T10:28:57Z</time>
      </trkpt>
      <trkpt lat="42.36481" lon="0.21295">
        <ele>709.8</ele>
        <time>2018-05-06T10:29:01Z</time>
      </trkpt>
      <trkpt lat="42.36467" lon="0.21274">
        <ele>709</ele>
        <time>2018-05-06T10:29:06Z</time>
      </trkpt>
      <trkpt lat="42.3646" lon="0.21264">
        <ele>709.1</ele>
        <time>2018-05-06T10:29:08Z</time>
      </trkpt>
      <trkpt lat="42.36446" lon="0.21242">
        <ele>708.6</ele>
        <time>2018-05-06T10:29:12Z</time>
      </trkpt>
      <trkpt lat="42.3643" lon="0.21219">
        <ele>709.6</ele>
        <time>2018-05-06T10:29:16Z</time>
      </trkpt>
      <trkpt lat="42.36418" lon="0.21201">
        <ele>709.4</ele>
        <time>2018-05-06T10:29:20Z</time>
      </trkpt>
      <trkpt lat="42.36402" lon="0.21183">
        <ele>709</ele>
        <time>2018-05-06T10:29:25Z</time>
      </trkpt>
      <trkpt lat="42.36386" lon="0.21168">
        <ele>710.2</ele>
        <time>2018-05-06T10:29:30Z</time>
      </trkpt>
      <trkpt lat="42.36368" lon="0.21156">
        <ele>711.3</ele>
        <time>2018-05-06T10:29:34Z</time>
      </trkpt>
      <trkpt lat="42.36347" lon="0.21142">
        <ele>712</ele>
        <time>2018-05-06T10:29:38Z</time>
      </trkpt>
      <trkpt lat="42.36328" lon="0.2113">
        <ele>711.5</ele>
        <time>2018-05-06T10:29:42Z</time>
      </trkpt>
      <trkpt lat="42.36318" lon="0.21125">
        <ele>711</ele>
        <time>2018-05-06T10:29:44Z</time>
      </trkpt>
      <trkpt lat="42.36298" lon="0.21126">
        <ele>711.2</ele>
        <time>2018-05-06T10:29:48Z</time>
      </trkpt>
      <trkpt lat="42.36279" lon="0.21131">
        <ele>712</ele>
        <time>2018-05-06T10:29:52Z</time>
      </trkpt>
      <trkpt lat="42.36259" lon="0.21137">
        <ele>713.2</ele>
        <time>2018-05-06T10:29:57Z</time>
      </trkpt>
      <trkpt lat="42.36251" lon="0.2114">
        <ele>713.5</ele>
        <time>2018-05-06T10:29:59Z</time>
      </trkpt>
      <trkpt lat="42.36232" lon="0.21154">
        <ele>714.7</ele>
        <time>2018-05-06T10:30:04Z</time>
      </trkpt>
      <trkpt lat="42.36215" lon="0.21164">
        <ele>714.7</ele>
        <time>2018-05-06T10:30:10Z</time>
      </trkpt>
      <trkpt lat="42.36198" lon="0.21174">
        <ele>714.6</ele>
        <time>2018-05-06T10:30:17Z</time>
      </trkpt>
      <trkpt lat="42.36184" lon="0.21169">
        <ele>713.8</ele>
        <time>2018-05-06T10:30:22Z</time>
      </trkpt>
      <trkpt lat="42.36176" lon="0.21152">
        <ele>713</ele>
        <time>2018-05-06T10:30:26Z</time>
      </trkpt>
      <trkpt lat="42.36163" lon="0.21133">
        <ele>712.1</ele>
        <time>2018-05-06T10:30:35Z</time>
      </trkpt>
      <trkpt lat="42.36155" lon="0.21131">
        <ele>711.8</ele>
        <time>2018-05-06T10:30:44Z</time>
      </trkpt>
      <trkpt lat="42.36155" lon="0.21135">
        <ele>712</ele>
        <time>2018-05-06T10:30:46Z</time>
      </trkpt>
      <trkpt lat="42.36165" lon="0.21158">
        <ele>713.2</ele>
        <time>2018-05-06T10:30:55Z</time>
      </trkpt>
      <trkpt lat="42.36172" lon="0.21174">
        <ele>713.8</ele>
        <time>2018-05-06T10:31:01Z</time>
      </trkpt>
      <trkpt lat="42.36169" lon="0.21203">
        <ele>713.8</ele>
        <time>2018-05-06T10:31:10Z</time>
      </trkpt>
      <trkpt lat="42.36164" lon="0.21226">
        <ele>712.2</ele>
        <time>2018-05-06T10:31:14Z</time>
      </trkpt>
      <trkpt lat="42.36164" lon="0.2125">
        <ele>711.5</ele>
        <time>2018-05-06T10:31:18Z</time>
      </trkpt>
      <trkpt lat="42.36171" lon="0.21274">
        <ele>712.5</ele>
        <time>2018-05-06T10:31:28Z</time>
      </trkpt>
      <trkpt lat="42.36182" lon="0.21296">
        <ele>715.3</ele>
        <time>2018-05-06T10:31:36Z</time>
      </trkpt>
      <trkpt lat="42.36168" lon="0.21317">
        <ele>712.8</ele>
        <time>2018-05-06T10:32:08Z</time>
      </trkpt>
      <trkpt lat="42.36157" lon="0.21332">
        <ele>710.2</ele>
        <time>2018-05-06T10:32:17Z</time>
      </trkpt>
      <trkpt lat="42.3614" lon="0.21344">
        <ele>706.6</ele>
        <time>2018-05-06T10:32:28Z</time>
      </trkpt>
      <trkpt lat="42.36123" lon="0.21356">
        <ele>703.5</ele>
        <time>2018-05-06T10:32:34Z</time>
      </trkpt>
      <trkpt lat="42.36106" lon="0.21368">
        <ele>699.9</ele>
        <time>2018-05-06T10:32:39Z</time>
      </trkpt>
      <trkpt lat="42.36089" lon="0.21375">
        <ele>694.4</ele>
        <time>2018-05-06T10:32:44Z</time>
      </trkpt>
      <trkpt lat="42.36084" lon="0.21378">
        <ele>693.7</ele>
        <time>2018-05-06T10:32:45Z</time>
      </trkpt>
      <trkpt lat="42.36071" lon="0.21399">
        <ele>691.6</ele>
        <time>2018-05-06T10:32:49Z</time>
      </trkpt>
      <trkpt lat="42.36069" lon="0.21404">
        <ele>691</ele>
        <time>2018-05-06T10:32:50Z</time>
      </trkpt>
      <trkpt lat="42.36068" lon="0.21429">
        <ele>694.2</ele>
        <time>2018-05-06T10:32:54Z</time>
      </trkpt>
      <trkpt lat="42.36066" lon="0.21456">
        <ele>696.1</ele>
        <time>2018-05-06T10:32:59Z</time>
      </trkpt>
      <trkpt lat="42.36063" lon="0.21483">
        <ele>696.7</ele>
        <time>2018-05-06T10:33:04Z</time>
      </trkpt>
      <trkpt lat="42.3606" lon="0.2151">
        <ele>696.3</ele>
        <time>2018-05-06T10:33:08Z</time>
      </trkpt>
      <trkpt lat="42.36057" lon="0.21539">
        <ele>695</ele>
        <time>2018-05-06T10:33:12Z</time>
      </trkpt>
      <trkpt lat="42.36055" lon="0.21565">
        <ele>694.5</ele>
        <time>2018-05-06T10:33:18Z</time>
      </trkpt>
      <trkpt lat="42.36051" lon="0.2159">
        <ele>692.9</ele>
        <time>2018-05-06T10:33:24Z</time>
      </trkpt>
      <trkpt lat="42.3605" lon="0.21602">
        <ele>692.8</ele>
        <time>2018-05-06T10:33:26Z</time>
      </trkpt>
      <trkpt lat="42.36054" lon="0.21625">
        <ele>693</ele>
        <time>2018-05-06T10:33:32Z</time>
      </trkpt>
      <trkpt lat="42.3605" lon="0.21632">
        <ele>692.6</ele>
        <time>2018-05-06T10:33:34Z</time>
      </trkpt>
      <trkpt lat="42.36045" lon="0.21657">
        <ele>692.3</ele>
        <time>2018-05-06T10:33:40Z</time>
      </trkpt>
      <trkpt lat="42.36044" lon="0.21682">
        <ele>692.4</ele>
        <time>2018-05-06T10:33:48Z</time>
      </trkpt>
      <trkpt lat="42.36045" lon="0.21707">
        <ele>692.7</ele>
        <time>2018-05-06T10:34:02Z</time>
      </trkpt>
      <trkpt lat="42.36048" lon="0.21733">
        <ele>693</ele>
        <time>2018-05-06T10:34:11Z</time>
      </trkpt>
      <trkpt lat="42.36052" lon="0.2176">
        <ele>693</ele>
        <time>2018-05-06T10:34:26Z</time>
      </trkpt>
      <trkpt lat="42.36051" lon="0.21764">
        <ele>692.8</ele>
        <time>2018-05-06T10:34:27Z</time>
      </trkpt>
      <trkpt lat="42.36046" lon="0.21758">
        <ele>692.6</ele>
        <time>2018-05-06T10:34:52Z</time>
      </trkpt>
      <trkpt lat="42.36035" lon="0.21739">
        <ele>692.4</ele>
        <time>2018-05-06T10:35:06Z</time>
      </trkpt>
      <trkpt lat="42.36017" lon="0.21735">
        <ele>692.3</ele>
        <time>2018-05-06T10:35:29Z</time>
      </trkpt>
      <trkpt lat="42.36008" lon="0.21716">
        <ele>692.7</ele>
        <time>2018-05-06T10:36:00Z</time>
      </trkpt>
      <trkpt lat="42.35994" lon="0.217">
        <ele>694.3</ele>
        <time>2018-05-06T10:36:25Z</time>
      </trkpt>
      <trkpt lat="42.35978" lon="0.21685">
        <ele>696.9</ele>
        <time>2018-05-06T10:36:37Z</time>
      </trkpt>
      <trkpt lat="42.35967" lon="0.21666">
        <ele>698.7</ele>
        <time>2018-05-06T10:36:46Z</time>
      </trkpt>
      <trkpt lat="42.35959" lon="0.21644">
        <ele>698.1</ele>
        <time>2018-05-06T10:36:58Z</time>
      </trkpt>
      <trkpt lat="42.35951" lon="0.21622">
        <ele>697</ele>
        <time>2018-05-06T10:37:08Z</time>
      </trkpt>
      <trkpt lat="42.35946" lon="0.21612">
        <ele>696.9</ele>
        <time>2018-05-06T10:37:13Z</time>
      </trkpt>
      <trkpt lat="42.35943" lon="0.21606">
        <ele>696.1</ele>
        <time>2018-05-06T10:37:17Z</time>
      </trkpt>
      <trkpt lat="42.35925" lon="0.21596">
        <ele>697.7</ele>
        <time>2018-05-06T10:37:34Z</time>
      </trkpt>
      <trkpt lat="42.35915" lon="0.21591">
        <ele>698.9</ele>
        <time>2018-05-06T10:37:38Z</time>
      </trkpt>
      <trkpt lat="42.35897" lon="0.21583">
        <ele>701.1</ele>
        <time>2018-05-06T10:37:47Z</time>
      </trkpt>
      <trkpt lat="42.35883" lon="0.21577">
        <ele>702.6</ele>
        <time>2018-05-06T10:37:56Z</time>
      </trkpt>
      <trkpt lat="42.35864" lon="0.2157">
        <ele>704.7</ele>
        <time>2018-05-06T10:38:06Z</time>
      </trkpt>
      <trkpt lat="42.35851" lon="0.21571">
        <ele>707.7</ele>
        <time>2018-05-06T10:38:12Z</time>
      </trkpt>
      <trkpt lat="42.35834" lon="0.21564">
        <ele>708.4</ele>
        <time>2018-05-06T10:38:22Z</time>
      </trkpt>
      <trkpt lat="42.35831" lon="0.21565">
        <ele>709.6</ele>
        <time>2018-05-06T10:38:24Z</time>
      </trkpt>
      <trkpt lat="42.35816" lon="0.21581">
        <ele>713.2</ele>
        <time>2018-05-06T10:38:34Z</time>
      </trkpt>
      <trkpt lat="42.35805" lon="0.21586">
        <ele>713.6</ele>
        <time>2018-05-06T10:38:40Z</time>
      </trkpt>
      <trkpt lat="42.35793" lon="0.21605">
        <ele>713</ele>
        <time>2018-05-06T10:38:50Z</time>
      </trkpt>
      <trkpt lat="42.35778" lon="0.21616">
        <ele>713.7</ele>
        <time>2018-05-06T10:39:22Z</time>
      </trkpt>
      <trkpt lat="42.35778" lon="0.2162">
        <ele>713.7</ele>
        <time>2018-05-06T10:39:23Z</time>
      </trkpt>
      <trkpt lat="42.35782" lon="0.21646">
        <ele>713.7</ele>
        <time>2018-05-06T10:39:29Z</time>
      </trkpt>
      <trkpt lat="42.35783" lon="0.21673">
        <ele>714.5</ele>
        <time>2018-05-06T10:39:34Z</time>
      </trkpt>
      <trkpt lat="42.35784" lon="0.21677">
        <ele>714.9</ele>
        <time>2018-05-06T10:39:35Z</time>
      </trkpt>
      <trkpt lat="42.35792" lon="0.21699">
        <ele>716.6</ele>
        <time>2018-05-06T10:39:41Z</time>
      </trkpt>
      <trkpt lat="42.35804" lon="0.21718">
        <ele>718.2</ele>
        <time>2018-05-06T10:39:48Z</time>
      </trkpt>
      <trkpt lat="42.35816" lon="0.21737">
        <ele>719.7</ele>
        <time>2018-05-06T10:39:56Z</time>
      </trkpt>
      <trkpt lat="42.35823" lon="0.21761">
        <ele>720.9</ele>
        <time>2018-05-06T10:40:05Z</time>
      </trkpt>
      <trkpt lat="42.35829" lon="0.21785">
        <ele>720.8</ele>
        <time>2018-05-06T10:40:15Z</time>
      </trkpt>
      <trkpt lat="42.35828" lon="0.2181">
        <ele>721.7</ele>
        <time>2018-05-06T10:40:26Z</time>
      </trkpt>
      <trkpt lat="42.35819" lon="0.21832">
        <ele>730.1</ele>
        <time>2018-05-06T10:40:37Z</time>
      </trkpt>
      <trkpt lat="42.35817" lon="0.21857">
        <ele>740.5</ele>
        <time>2018-05-06T10:40:49Z</time>
      </trkpt>
      <trkpt lat="42.35822" lon="0.21859">
        <ele>741</ele>
        <time>2018-05-06T10:40:54Z</time>
      </trkpt>
      <trkpt lat="42.35838" lon="0.21851">
        <ele>742.2</ele>
        <time>2018-05-06T10:41:04Z</time>
      </trkpt>
      <trkpt lat="42.35855" lon="0.21853">
        <ele>742</ele>
        <time>2018-05-06T10:41:15Z</time>
      </trkpt>
      <trkpt lat="42.35869" lon="0.21869">
        <ele>741.1</ele>
        <time>2018-05-06T10:41:25Z</time>
      </trkpt>
      <trkpt lat="42.35885" lon="0.21885">
        <ele>740.1</ele>
        <time>2018-05-06T10:41:36Z</time>
      </trkpt>
      <trkpt lat="42.35904" lon="0.21894">
        <ele>739.3</ele>
        <time>2018-05-06T10:41:43Z</time>
      </trkpt>
      <trkpt lat="42.35918" lon="0.21913">
        <ele>737.7</ele>
        <time>2018-05-06T10:41:50Z</time>
      </trkpt>
      <trkpt lat="42.35928" lon="0.2192">
        <ele>736.5</ele>
        <time>2018-05-06T10:41:53Z</time>
      </trkpt>
      <trkpt lat="42.35941" lon="0.21917">
        <ele>735</ele>
        <time>2018-05-06T10:41:57Z</time>
      </trkpt>
      <trkpt lat="42.35959" lon="0.21916">
        <ele>733.8</ele>
        <time>2018-05-06T10:42:04Z</time>
      </trkpt>
      <trkpt lat="42.35976" lon="0.21925">
        <ele>732.2</ele>
        <time>2018-05-06T10:42:11Z</time>
      </trkpt>
      <trkpt lat="42.35994" lon="0.21934">
        <ele>731.5</ele>
        <time>2018-05-06T10:42:18Z</time>
      </trkpt>
      <trkpt lat="42.36013" lon="0.21937">
        <ele>729.6</ele>
        <time>2018-05-06T10:42:25Z</time>
      </trkpt>
      <trkpt lat="42.36032" lon="0.21937">
        <ele>729.6</ele>
        <time>2018-05-06T10:42:31Z</time>
      </trkpt>
      <trkpt lat="42.36049" lon="0.21944">
        <ele>729.3</ele>
        <time>2018-05-06T10:42:37Z</time>
      </trkpt>
      <trkpt lat="42.36064" lon="0.21958">
        <ele>733.3</ele>
        <time>2018-05-06T10:42:45Z</time>
      </trkpt>
      <trkpt lat="42.3608" lon="0.21972">
        <ele>738.6</ele>
        <time>2018-05-06T10:42:53Z</time>
      </trkpt>
      <trkpt lat="42.36094" lon="0.21988">
        <ele>743.8</ele>
        <time>2018-05-06T10:43:02Z</time>
      </trkpt>
      <trkpt lat="42.36106" lon="0.22008">
        <ele>747.5</ele>
        <time>2018-05-06T10:43:12Z</time>
      </trkpt>
      <trkpt lat="42.36117" lon="0.22028">
        <ele>751.5</ele>
        <time>2018-05-06T10:43:23Z</time>
      </trkpt>
      <trkpt lat="42.36125" lon="0.2205">
        <ele>755.9</ele>
        <time>2018-05-06T10:43:35Z</time>
      </trkpt>
      <trkpt lat="42.36128" lon="0.2206">
        <ele>757.8</ele>
        <time>2018-05-06T10:43:41Z</time>
      </trkpt>
      <trkpt lat="42.36128" lon="0.22069">
        <ele>759.5</ele>
        <time>2018-05-06T10:43:45Z</time>
      </trkpt>
      <trkpt lat="42.36126" lon="0.22085">
        <ele>761.2</ele>
        <time>2018-05-06T10:43:52Z</time>
      </trkpt>
      <trkpt lat="42.36111" lon="0.22091">
        <ele>759.7</ele>
        <time>2018-05-06T10:44:09Z</time>
      </trkpt>
      <trkpt lat="42.36105" lon="0.22068">
        <ele>756.3</ele>
        <time>2018-05-06T10:44:22Z</time>
      </trkpt>
      <trkpt lat="42.36104" lon="0.2206">
        <ele>756.5</ele>
        <time>2018-05-06T10:44:26Z</time>
      </trkpt>
      <trkpt lat="42.36101" lon="0.22052">
        <ele>757.2</ele>
        <time>2018-05-06T10:44:32Z</time>
      </trkpt>
      <trkpt lat="42.36084" lon="0.22051">
        <ele>764.7</ele>
        <time>2018-05-06T10:44:41Z</time>
      </trkpt>
      <trkpt lat="42.36082" lon="0.22062">
        <ele>766.9</ele>
        <time>2018-05-06T10:44:50Z</time>
      </trkpt>
      <trkpt lat="42.36082" lon="0.22073">
        <ele>768.8</ele>
        <time>2018-05-06T10:44:57Z</time>
      </trkpt>
      <trkpt lat="42.36082" lon="0.22083">
        <ele>770.6</ele>
        <time>2018-05-06T10:45:04Z</time>
      </trkpt>
      <trkpt lat="42.36084" lon="0.22089">
        <ele>771.9</ele>
        <time>2018-05-06T10:45:09Z</time>
      </trkpt>
      <trkpt lat="42.3608" lon="0.22113">
        <ele>778.9</ele>
        <time>2018-05-06T10:45:24Z</time>
      </trkpt>
      <trkpt lat="42.36076" lon="0.22119">
        <ele>780.9</ele>
        <time>2018-05-06T10:45:27Z</time>
      </trkpt>
      <trkpt lat="42.36066" lon="0.2214">
        <ele>787.1</ele>
        <time>2018-05-06T10:45:39Z</time>
      </trkpt>
      <trkpt lat="42.3606" lon="0.22163">
        <ele>793.5</ele>
        <time>2018-05-06T10:45:52Z</time>
      </trkpt>
      <trkpt lat="42.36057" lon="0.22185">
        <ele>796.2</ele>
        <time>2018-05-06T10:46:06Z</time>
      </trkpt>
      <trkpt lat="42.36064" lon="0.22207">
        <ele>796.2</ele>
        <time>2018-05-06T10:46:16Z</time>
      </trkpt>
      <trkpt lat="42.36071" lon="0.22231">
        <ele>797.3</ele>
        <time>2018-05-06T10:46:26Z</time>
      </trkpt>
      <trkpt lat="42.36081" lon="0.22251">
        <ele>796.2</ele>
        <time>2018-05-06T10:46:35Z</time>
      </trkpt>
      <trkpt lat="42.36093" lon="0.22271">
        <ele>794.6</ele>
        <time>2018-05-06T10:46:44Z</time>
      </trkpt>
      <trkpt lat="42.36098" lon="0.22297">
        <ele>794.1</ele>
        <time>2018-05-06T10:46:53Z</time>
      </trkpt>
      <trkpt lat="42.36108" lon="0.22322">
        <ele>793</ele>
        <time>2018-05-06T10:46:58Z</time>
      </trkpt>
      <trkpt lat="42.36117" lon="0.22341">
        <ele>792.1</ele>
        <time>2018-05-06T10:47:01Z</time>
      </trkpt>
      <trkpt lat="42.36128" lon="0.22368">
        <ele>792.2</ele>
        <time>2018-05-06T10:47:04Z</time>
      </trkpt>
      <trkpt lat="42.3613" lon="0.22373">
        <ele>792</ele>
        <time>2018-05-06T10:47:05Z</time>
      </trkpt>
      <trkpt lat="42.36139" lon="0.22396">
        <ele>794.6</ele>
        <time>2018-05-06T10:47:09Z</time>
      </trkpt>
      <trkpt lat="42.36138" lon="0.22422">
        <ele>799.5</ele>
        <time>2018-05-06T10:47:16Z</time>
      </trkpt>
      <trkpt lat="42.36126" lon="0.22441">
        <ele>805</ele>
        <time>2018-05-06T10:47:26Z</time>
      </trkpt>
      <trkpt lat="42.3611" lon="0.22455">
        <ele>809.8</ele>
        <time>2018-05-06T10:47:36Z</time>
      </trkpt>
      <trkpt lat="42.36093" lon="0.22465">
        <ele>814.1</ele>
        <time>2018-05-06T10:47:47Z</time>
      </trkpt>
      <trkpt lat="42.36075" lon="0.22472">
        <ele>819.3</ele>
        <time>2018-05-06T10:48:01Z</time>
      </trkpt>
      <trkpt lat="42.36066" lon="0.22484">
        <ele>818</ele>
        <time>2018-05-06T10:48:12Z</time>
      </trkpt>
      <trkpt lat="42.36069" lon="0.22491">
        <ele>817.2</ele>
        <time>2018-05-06T10:48:17Z</time>
      </trkpt>
      <trkpt lat="42.36085" lon="0.22505">
        <ele>814.8</ele>
        <time>2018-05-06T10:48:30Z</time>
      </trkpt>
      <trkpt lat="42.36098" lon="0.22511">
        <ele>815.1</ele>
        <time>2018-05-06T10:48:37Z</time>
      </trkpt>
      <trkpt lat="42.36088" lon="0.22523">
        <ele>817.1</ele>
        <time>2018-05-06T10:51:16Z</time>
      </trkpt>
      <trkpt lat="42.3607" lon="0.22522">
        <ele>820.1</ele>
        <time>2018-05-06T10:51:28Z</time>
      </trkpt>
      <trkpt lat="42.36053" lon="0.2253">
        <ele>823</ele>
        <time>2018-05-06T10:51:41Z</time>
      </trkpt>
      <trkpt lat="42.36035" lon="0.22543">
        <ele>825.9</ele>
        <time>2018-05-06T10:51:55Z</time>
      </trkpt>
      <trkpt lat="42.36018" lon="0.2255">
        <ele>828.2</ele>
        <time>2018-05-06T10:52:06Z</time>
      </trkpt>
      <trkpt lat="42.35998" lon="0.22551">
        <ele>830.6</ele>
        <time>2018-05-06T10:52:17Z</time>
      </trkpt>
      <trkpt lat="42.35985" lon="0.22553">
        <ele>831.6</ele>
        <time>2018-05-06T10:52:24Z</time>
      </trkpt>
      <trkpt lat="42.3598" lon="0.22564">
        <ele>831.9</ele>
        <time>2018-05-06T10:52:29Z</time>
      </trkpt>
      <trkpt lat="42.35973" lon="0.22589">
        <ele>832.3</ele>
        <time>2018-05-06T10:52:39Z</time>
      </trkpt>
      <trkpt lat="42.35959" lon="0.22608">
        <ele>833.1</ele>
        <time>2018-05-06T10:52:50Z</time>
      </trkpt>
      <trkpt lat="42.35947" lon="0.22629">
        <ele>833.4</ele>
        <time>2018-05-06T10:52:59Z</time>
      </trkpt>
      <trkpt lat="42.35928" lon="0.22639">
        <ele>834.5</ele>
        <time>2018-05-06T10:53:06Z</time>
      </trkpt>
      <trkpt lat="42.35907" lon="0.22636">
        <ele>835.3</ele>
        <time>2018-05-06T10:53:12Z</time>
      </trkpt>
      <trkpt lat="42.35891" lon="0.22647">
        <ele>834.4</ele>
        <time>2018-05-06T10:53:21Z</time>
      </trkpt>
      <trkpt lat="42.35879" lon="0.22666">
        <ele>833.6</ele>
        <time>2018-05-06T10:53:30Z</time>
      </trkpt>
      <trkpt lat="42.35864" lon="0.22682">
        <ele>833.5</ele>
        <time>2018-05-06T10:53:38Z</time>
      </trkpt>
      <trkpt lat="42.35845" lon="0.22692">
        <ele>834.4</ele>
        <time>2018-05-06T10:53:47Z</time>
      </trkpt>
      <trkpt lat="42.35825" lon="0.22698">
        <ele>835.4</ele>
        <time>2018-05-06T10:53:58Z</time>
      </trkpt>
      <trkpt lat="42.35807" lon="0.22706">
        <ele>838.5</ele>
        <time>2018-05-06T10:54:12Z</time>
      </trkpt>
      <trkpt lat="42.35791" lon="0.22719">
        <ele>841.1</ele>
        <time>2018-05-06T10:54:28Z</time>
      </trkpt>
      <trkpt lat="42.35776" lon="0.22734">
        <ele>844.1</ele>
        <time>2018-05-06T10:54:43Z</time>
      </trkpt>
      <trkpt lat="42.35765" lon="0.22754">
        <ele>846.4</ele>
        <time>2018-05-06T10:55:00Z</time>
      </trkpt>
      <trkpt lat="42.35759" lon="0.22778">
        <ele>847.7</ele>
        <time>2018-05-06T10:55:13Z</time>
      </trkpt>
      <trkpt lat="42.35756" lon="0.22802">
        <ele>849.5</ele>
        <time>2018-05-06T10:55:26Z</time>
      </trkpt>
      <trkpt lat="42.35753" lon="0.22828">
        <ele>851.5</ele>
        <time>2018-05-06T10:55:39Z</time>
      </trkpt>
      <trkpt lat="42.35742" lon="0.22848">
        <ele>853.2</ele>
        <time>2018-05-06T10:55:54Z</time>
      </trkpt>
      <trkpt lat="42.35728" lon="0.22861">
        <ele>855.4</ele>
        <time>2018-05-06T10:56:06Z</time>
      </trkpt>
      <trkpt lat="42.35712" lon="0.22878">
        <ele>858.4</ele>
        <time>2018-05-06T10:56:16Z</time>
      </trkpt>
      <trkpt lat="42.35706" lon="0.22885">
        <ele>859.7</ele>
        <time>2018-05-06T10:56:22Z</time>
      </trkpt>
      <trkpt lat="42.35687" lon="0.22888">
        <ele>858.9</ele>
        <time>2018-05-06T10:56:39Z</time>
      </trkpt>
      <trkpt lat="42.3567" lon="0.22898">
        <ele>857.7</ele>
        <time>2018-05-06T10:56:58Z</time>
      </trkpt>
      <trkpt lat="42.35651" lon="0.22898">
        <ele>857.9</ele>
        <time>2018-05-06T10:57:06Z</time>
      </trkpt>
      <trkpt lat="42.35633" lon="0.22894">
        <ele>858.1</ele>
        <time>2018-05-06T10:57:13Z</time>
      </trkpt>
      <trkpt lat="42.35615" lon="0.22885">
        <ele>860.4</ele>
        <time>2018-05-06T10:57:21Z</time>
      </trkpt>
      <trkpt lat="42.35596" lon="0.22878">
        <ele>862.2</ele>
        <time>2018-05-06T10:57:28Z</time>
      </trkpt>
      <trkpt lat="42.35578" lon="0.22883">
        <ele>865.4</ele>
        <time>2018-05-06T10:57:36Z</time>
      </trkpt>
      <trkpt lat="42.35559" lon="0.22893">
        <ele>866.9</ele>
        <time>2018-05-06T10:57:45Z</time>
      </trkpt>
      <trkpt lat="42.35539" lon="0.22897">
        <ele>869.6</ele>
        <time>2018-05-06T10:57:53Z</time>
      </trkpt>
      <trkpt lat="42.35523" lon="0.2291">
        <ele>870</ele>
        <time>2018-05-06T10:57:59Z</time>
      </trkpt>
      <trkpt lat="42.35515" lon="0.22913">
        <ele>870.3</ele>
        <time>2018-05-06T10:58:02Z</time>
      </trkpt>
      <trkpt lat="42.35498" lon="0.22903">
        <ele>871.1</ele>
        <time>2018-05-06T10:58:09Z</time>
      </trkpt>
      <trkpt lat="42.3548" lon="0.22896">
        <ele>871.4</ele>
        <time>2018-05-06T10:58:15Z</time>
      </trkpt>
      <trkpt lat="42.35462" lon="0.22892">
        <ele>873.3</ele>
        <time>2018-05-06T10:58:23Z</time>
      </trkpt>
      <trkpt lat="42.35443" lon="0.2289">
        <ele>875.7</ele>
        <time>2018-05-06T10:58:31Z</time>
      </trkpt>
      <trkpt lat="42.35427" lon="0.2288">
        <ele>879.4</ele>
        <time>2018-05-06T10:58:39Z</time>
      </trkpt>
      <trkpt lat="42.35418" lon="0.22858">
        <ele>879.9</ele>
        <time>2018-05-06T10:58:52Z</time>
      </trkpt>
      <trkpt lat="42.35408" lon="0.22836">
        <ele>878.6</ele>
        <time>2018-05-06T10:59:09Z</time>
      </trkpt>
      <trkpt lat="42.35396" lon="0.22818">
        <ele>877.1</ele>
        <time>2018-05-06T10:59:22Z</time>
      </trkpt>
      <trkpt lat="42.35388" lon="0.22806">
        <ele>876.6</ele>
        <time>2018-05-06T10:59:32Z</time>
      </trkpt>
      <trkpt lat="42.35371" lon="0.22797">
        <ele>876.4</ele>
        <time>2018-05-06T10:59:46Z</time>
      </trkpt>
      <trkpt lat="42.35354" lon="0.22798">
        <ele>879.1</ele>
        <time>2018-05-06T11:00:03Z</time>
      </trkpt>
      <trkpt lat="42.35337" lon="0.22808">
        <ele>884.3</ele>
        <time>2018-05-06T11:00:19Z</time>
      </trkpt>
      <trkpt lat="42.35318" lon="0.22816">
        <ele>889.4</ele>
        <time>2018-05-06T11:00:34Z</time>
      </trkpt>
      <trkpt lat="42.35306" lon="0.22817">
        <ele>892.1</ele>
        <time>2018-05-06T11:00:43Z</time>
      </trkpt>
      <trkpt lat="42.35286" lon="0.22815">
        <ele>895.3</ele>
        <time>2018-05-06T11:00:53Z</time>
      </trkpt>
      <trkpt lat="42.35266" lon="0.22813">
        <ele>898.2</ele>
        <time>2018-05-06T11:01:00Z</time>
      </trkpt>
      <trkpt lat="42.35246" lon="0.22814">
        <ele>901.2</ele>
        <time>2018-05-06T11:01:07Z</time>
      </trkpt>
      <trkpt lat="42.35227" lon="0.22812">
        <ele>902.9</ele>
        <time>2018-05-06T11:01:14Z</time>
      </trkpt>
      <trkpt lat="42.35207" lon="0.22818">
        <ele>904.6</ele>
        <time>2018-05-06T11:01:22Z</time>
      </trkpt>
      <trkpt lat="42.3519" lon="0.22829">
        <ele>905.6</ele>
        <time>2018-05-06T11:03:26Z</time>
      </trkpt>
      <trkpt lat="42.35179" lon="0.22851">
        <ele>905.8</ele>
        <time>2018-05-06T11:03:35Z</time>
      </trkpt>
      <trkpt lat="42.35162" lon="0.22856">
        <ele>905.2</ele>
        <time>2018-05-06T11:03:45Z</time>
      </trkpt>
      <trkpt lat="42.35154" lon="0.22838">
        <ele>904.3</ele>
        <time>2018-05-06T11:03:53Z</time>
      </trkpt>
      <trkpt lat="42.3514" lon="0.22825">
        <ele>905.4</ele>
        <time>2018-05-06T11:04:01Z</time>
      </trkpt>
      <trkpt lat="42.35121" lon="0.22822">
        <ele>906.5</ele>
        <time>2018-05-06T11:04:11Z</time>
      </trkpt>
      <trkpt lat="42.35101" lon="0.22817">
        <ele>907.8</ele>
        <time>2018-05-06T11:04:20Z</time>
      </trkpt>
      <trkpt lat="42.35084" lon="0.22824">
        <ele>906.4</ele>
        <time>2018-05-06T11:04:30Z</time>
      </trkpt>
      <trkpt lat="42.35064" lon="0.22828">
        <ele>904.6</ele>
        <time>2018-05-06T11:04:40Z</time>
      </trkpt>
      <trkpt lat="42.35054" lon="0.22828">
        <ele>903.5</ele>
        <time>2018-05-06T11:04:45Z</time>
      </trkpt>
      <trkpt lat="42.35047" lon="0.2282">
        <ele>904.7</ele>
        <time>2018-05-06T11:04:50Z</time>
      </trkpt>
      <trkpt lat="42.35035" lon="0.22802">
        <ele>906.2</ele>
        <time>2018-05-06T11:04:56Z</time>
      </trkpt>
      <trkpt lat="42.35016" lon="0.22794">
        <ele>902.8</ele>
        <time>2018-05-06T11:05:02Z</time>
      </trkpt>
      <trkpt lat="42.35" lon="0.22781">
        <ele>900.4</ele>
        <time>2018-05-06T11:05:09Z</time>
      </trkpt>
      <trkpt lat="42.3499" lon="0.22759">
        <ele>901.6</ele>
        <time>2018-05-06T11:05:15Z</time>
      </trkpt>
      <trkpt lat="42.34987" lon="0.22753">
        <ele>902.1</ele>
        <time>2018-05-06T11:05:17Z</time>
      </trkpt>
      <trkpt lat="42.34976" lon="0.22729">
        <ele>901</ele>
        <time>2018-05-06T11:05:23Z</time>
      </trkpt>
      <trkpt lat="42.34973" lon="0.22705">
        <ele>904.6</ele>
        <time>2018-05-06T11:05:29Z</time>
      </trkpt>
      <trkpt lat="42.34971" lon="0.22702">
        <ele>905.6</ele>
        <time>2018-05-06T11:05:30Z</time>
      </trkpt>
      <trkpt lat="42.34955" lon="0.22684">
        <ele>900.5</ele>
        <time>2018-05-06T11:05:37Z</time>
      </trkpt>
      <trkpt lat="42.34942" lon="0.22663">
        <ele>897.2</ele>
        <time>2018-05-06T11:05:43Z</time>
      </trkpt>
      <trkpt lat="42.34932" lon="0.22642">
        <ele>895.2</ele>
        <time>2018-05-06T11:05:51Z</time>
      </trkpt>
      <trkpt lat="42.34928" lon="0.22641">
        <ele>892.7</ele>
        <time>2018-05-06T11:05:54Z</time>
      </trkpt>
      <trkpt lat="42.34911" lon="0.22631">
        <ele>886.8</ele>
        <time>2018-05-06T11:06:02Z</time>
      </trkpt>
      <trkpt lat="42.34908" lon="0.22627">
        <ele>886.1</ele>
        <time>2018-05-06T11:06:04Z</time>
      </trkpt>
      <trkpt lat="42.34888" lon="0.22621">
        <ele>880</ele>
        <time>2018-05-06T11:06:36Z</time>
      </trkpt>
      <trkpt lat="42.34879" lon="0.22623">
        <ele>877.4</ele>
        <time>2018-05-06T11:06:40Z</time>
      </trkpt>
      <trkpt lat="42.34876" lon="0.22623">
        <ele>876.8</ele>
        <time>2018-05-06T11:06:42Z</time>
      </trkpt>
      <trkpt lat="42.34859" lon="0.22617">
        <ele>873.6</ele>
        <time>2018-05-06T11:06:56Z</time>
      </trkpt>
      <trkpt lat="42.34843" lon="0.22633">
        <ele>869.9</ele>
        <time>2018-05-06T11:07:05Z</time>
      </trkpt>
      <trkpt lat="42.34843" lon="0.22653">
        <ele>870.1</ele>
        <time>2018-05-06T11:07:31Z</time>
      </trkpt>
      <trkpt lat="42.34859" lon="0.22667">
        <ele>871.2</ele>
        <time>2018-05-06T11:07:38Z</time>
      </trkpt>
      <trkpt lat="42.34871" lon="0.22685">
        <ele>871.1</ele>
        <time>2018-05-06T11:07:45Z</time>
      </trkpt>
      <trkpt lat="42.34878" lon="0.22709">
        <ele>870.4</ele>
        <time>2018-05-06T11:08:14Z</time>
      </trkpt>
      <trkpt lat="42.3489" lon="0.22729">
        <ele>869.7</ele>
        <time>2018-05-06T11:08:27Z</time>
      </trkpt>
      <trkpt lat="42.34894" lon="0.22752">
        <ele>868.3</ele>
        <time>2018-05-06T11:08:54Z</time>
      </trkpt>
      <trkpt lat="42.34895" lon="0.22756">
        <ele>868.1</ele>
        <time>2018-05-06T11:08:56Z</time>
      </trkpt>
      <trkpt lat="42.34901" lon="0.22769">
        <ele>868</ele>
        <time>2018-05-06T11:09:02Z</time>
      </trkpt>
      <trkpt lat="42.34908" lon="0.2279">
        <ele>866.2</ele>
        <time>2018-05-06T11:09:11Z</time>
      </trkpt>
      <trkpt lat="42.34914" lon="0.22816">
        <ele>863.4</ele>
        <time>2018-05-06T11:09:19Z</time>
      </trkpt>
      <trkpt lat="42.34925" lon="0.2284">
        <ele>862.2</ele>
        <time>2018-05-06T11:09:26Z</time>
      </trkpt>
      <trkpt lat="42.34933" lon="0.22864">
        <ele>861.4</ele>
        <time>2018-05-06T11:09:36Z</time>
      </trkpt>
      <trkpt lat="42.34942" lon="0.22887">
        <ele>861.7</ele>
        <time>2018-05-06T11:09:49Z</time>
      </trkpt>
      <trkpt lat="42.34947" lon="0.22913">
        <ele>860.6</ele>
        <time>2018-05-06T11:10:00Z</time>
      </trkpt>
      <trkpt lat="42.34948" lon="0.22916">
        <ele>860</ele>
        <time>2018-05-06T11:10:02Z</time>
      </trkpt>
      <trkpt lat="42.34942" lon="0.22926">
        <ele>857.8</ele>
        <time>2018-05-06T11:10:08Z</time>
      </trkpt>
      <trkpt lat="42.34922" lon="0.22925">
        <ele>850.4</ele>
        <time>2018-05-06T11:10:15Z</time>
      </trkpt>
      <trkpt lat="42.34904" lon="0.22937">
        <ele>845.7</ele>
        <time>2018-05-06T11:10:21Z</time>
      </trkpt>
      <trkpt lat="42.34888" lon="0.22951">
        <ele>841.7</ele>
        <time>2018-05-06T11:10:27Z</time>
      </trkpt>
      <trkpt lat="42.34877" lon="0.22973">
        <ele>839.6</ele>
        <time>2018-05-06T11:10:34Z</time>
      </trkpt>
      <trkpt lat="42.34871" lon="0.22999">
        <ele>840.9</ele>
        <time>2018-05-06T11:10:43Z</time>
      </trkpt>
      <trkpt lat="42.34862" lon="0.23024">
        <ele>840.6</ele>
        <time>2018-05-06T11:11:28Z</time>
      </trkpt>
      <trkpt lat="42.3486" lon="0.23028">
        <ele>839.9</ele>
        <time>2018-05-06T11:11:29Z</time>
      </trkpt>
      <trkpt lat="42.34849" lon="0.2305">
        <ele>840.9</ele>
        <time>2018-05-06T11:11:35Z</time>
      </trkpt>
      <trkpt lat="42.34836" lon="0.2307">
        <ele>841</ele>
        <time>2018-05-06T11:11:40Z</time>
      </trkpt>
      <trkpt lat="42.34819" lon="0.23085">
        <ele>840.6</ele>
        <time>2018-05-06T11:11:45Z</time>
      </trkpt>
      <trkpt lat="42.348" lon="0.2309">
        <ele>837.3</ele>
        <time>2018-05-06T11:11:52Z</time>
      </trkpt>
      <trkpt lat="42.34784" lon="0.23105">
        <ele>837</ele>
        <time>2018-05-06T11:12:00Z</time>
      </trkpt>
      <trkpt lat="42.34771" lon="0.23122">
        <ele>837.6</ele>
        <time>2018-05-06T11:12:07Z</time>
      </trkpt>
      <trkpt lat="42.34762" lon="0.23145">
        <ele>840.8</ele>
        <time>2018-05-06T11:12:16Z</time>
      </trkpt>
      <trkpt lat="42.34761" lon="0.23171">
        <ele>844.8</ele>
        <time>2018-05-06T11:12:26Z</time>
      </trkpt>
      <trkpt lat="42.34752" lon="0.23193">
        <ele>845.9</ele>
        <time>2018-05-06T11:12:38Z</time>
      </trkpt>
      <trkpt lat="42.34734" lon="0.23199">
        <ele>842.1</ele>
        <time>2018-05-06T11:12:45Z</time>
      </trkpt>
      <trkpt lat="42.34715" lon="0.23205">
        <ele>838.6</ele>
        <time>2018-05-06T11:12:51Z</time>
      </trkpt>
      <trkpt lat="42.34699" lon="0.23216">
        <ele>837.1</ele>
        <time>2018-05-06T11:13:04Z</time>
      </trkpt>
      <trkpt lat="42.34684" lon="0.2323">
        <ele>835.8</ele>
        <time>2018-05-06T11:15:48Z</time>
      </trkpt>
      <trkpt lat="42.34677" lon="0.23254">
        <ele>836.3</ele>
        <time>2018-05-06T11:16:06Z</time>
      </trkpt>
      <trkpt lat="42.34683" lon="0.2328">
        <ele>839.4</ele>
        <time>2018-05-06T11:16:15Z</time>
      </trkpt>
      <trkpt lat="42.34685" lon="0.23285">
        <ele>840.4</ele>
        <time>2018-05-06T11:16:17Z</time>
      </trkpt>
      <trkpt lat="42.34675" lon="0.23304">
        <ele>840.2</ele>
        <time>2018-05-06T11:16:28Z</time>
      </trkpt>
      <trkpt lat="42.34685" lon="0.23314">
        <ele>843.2</ele>
        <time>2018-05-06T11:17:14Z</time>
      </trkpt>
      <trkpt lat="42.34699" lon="0.23326">
        <ele>848.1</ele>
        <time>2018-05-06T11:17:43Z</time>
      </trkpt>
      <trkpt lat="42.347" lon="0.2335">
        <ele>851.7</ele>
        <time>2018-05-06T11:18:15Z</time>
      </trkpt>
      <trkpt lat="42.34714" lon="0.23366">
        <ele>858.7</ele>
        <time>2018-05-06T11:18:51Z</time>
      </trkpt>
      <trkpt lat="42.34722" lon="0.23388">
        <ele>864.9</ele>
        <time>2018-05-06T11:19:09Z</time>
      </trkpt>
      <trkpt lat="42.34724" lon="0.23413">
        <ele>871.1</ele>
        <time>2018-05-06T11:19:30Z</time>
      </trkpt>
      <trkpt lat="42.34726" lon="0.23437">
        <ele>876.9</ele>
        <time>2018-05-06T11:19:44Z</time>
      </trkpt>
      <trkpt lat="42.34728" lon="0.23462">
        <ele>880.9</ele>
        <time>2018-05-06T11:19:57Z</time>
      </trkpt>
      <trkpt lat="42.34732" lon="0.23487">
        <ele>885.5</ele>
        <time>2018-05-06T11:20:12Z</time>
      </trkpt>
      <trkpt lat="42.34736" lon="0.23504">
        <ele>890.9</ele>
        <time>2018-05-06T11:20:21Z</time>
      </trkpt>
      <trkpt lat="42.34732" lon="0.23529">
        <ele>892.4</ele>
        <time>2018-05-06T11:20:42Z</time>
      </trkpt>
      <trkpt lat="42.34728" lon="0.23543">
        <ele>890.8</ele>
        <time>2018-05-06T11:20:58Z</time>
      </trkpt>
      <trkpt lat="42.34724" lon="0.23568">
        <ele>892.2</ele>
        <time>2018-05-06T11:21:12Z</time>
      </trkpt>
      <trkpt lat="42.34723" lon="0.23572">
        <ele>892.7</ele>
        <time>2018-05-06T11:21:14Z</time>
      </trkpt>
      <trkpt lat="42.34716" lon="0.23595">
        <ele>892.1</ele>
        <time>2018-05-06T11:21:28Z</time>
      </trkpt>
      <trkpt lat="42.3471" lon="0.23619">
        <ele>891.5</ele>
        <time>2018-05-06T11:21:41Z</time>
      </trkpt>
      <trkpt lat="42.34701" lon="0.23641">
        <ele>889.6</ele>
        <time>2018-05-06T11:22:00Z</time>
      </trkpt>
      <trkpt lat="42.3469" lon="0.23662">
        <ele>885.9</ele>
        <time>2018-05-06T11:22:31Z</time>
      </trkpt>
      <trkpt lat="42.34688" lon="0.23687">
        <ele>887.2</ele>
        <time>2018-05-06T11:22:42Z</time>
      </trkpt>
      <trkpt lat="42.34679" lon="0.23708">
        <ele>885</ele>
        <time>2018-05-06T11:22:55Z</time>
      </trkpt>
      <trkpt lat="42.34673" lon="0.23733">
        <ele>884.2</ele>
        <time>2018-05-06T11:23:25Z</time>
      </trkpt>
      <trkpt lat="42.34678" lon="0.23755">
        <ele>886</ele>
        <time>2018-05-06T11:23:50Z</time>
      </trkpt>
      <trkpt lat="42.34688" lon="0.23736">
        <ele>888.6</ele>
        <time>2018-05-06T11:24:18Z</time>
      </trkpt>
      <trkpt lat="42.34704" lon="0.23724">
        <ele>892.9</ele>
        <time>2018-05-06T11:24:49Z</time>
      </trkpt>
      <trkpt lat="42.34722" lon="0.23717">
        <ele>897.6</ele>
        <time>2018-05-06T11:25:19Z</time>
      </trkpt>
      <trkpt lat="42.34737" lon="0.2372">
        <ele>902.2</ele>
        <time>2018-05-06T11:26:35Z</time>
      </trkpt>
      <trkpt lat="42.34756" lon="0.23723">
        <ele>907.5</ele>
        <time>2018-05-06T11:26:44Z</time>
      </trkpt>
      <trkpt lat="42.34775" lon="0.23727">
        <ele>911</ele>
        <time>2018-05-06T11:26:51Z</time>
      </trkpt>
      <trkpt lat="42.3478" lon="0.23729">
        <ele>911.6</ele>
        <time>2018-05-06T11:26:53Z</time>
      </trkpt>
      <trkpt lat="42.34799" lon="0.23731">
        <ele>914.6</ele>
        <time>2018-05-06T11:27:00Z</time>
      </trkpt>
      <trkpt lat="42.34819" lon="0.23734">
        <ele>916.5</ele>
        <time>2018-05-06T11:27:07Z</time>
      </trkpt>
      <trkpt lat="42.34838" lon="0.23728">
        <ele>919.7</ele>
        <time>2018-05-06T11:27:14Z</time>
      </trkpt>
      <trkpt lat="42.3484" lon="0.23726">
        <ele>919.8</ele>
        <time>2018-05-06T11:27:15Z</time>
      </trkpt>
      <trkpt lat="42.34859" lon="0.23721">
        <ele>920.7</ele>
        <time>2018-05-06T11:27:22Z</time>
      </trkpt>
      <trkpt lat="42.34878" lon="0.23724">
        <ele>918.3</ele>
        <time>2018-05-06T11:27:28Z</time>
      </trkpt>
      <trkpt lat="42.34883" lon="0.23728">
        <ele>917.7</ele>
        <time>2018-05-06T11:27:30Z</time>
      </trkpt>
      <trkpt lat="42.34901" lon="0.23727">
        <ele>913.6</ele>
        <time>2018-05-06T11:27:35Z</time>
      </trkpt>
      <trkpt lat="42.3492" lon="0.23726">
        <ele>907.3</ele>
        <time>2018-05-06T11:27:42Z</time>
      </trkpt>
      <trkpt lat="42.34926" lon="0.23726">
        <ele>905</ele>
        <time>2018-05-06T11:27:44Z</time>
      </trkpt>
      <trkpt lat="42.3493" lon="0.23726">
        <ele>904</ele>
        <time>2018-05-06T11:27:46Z</time>
      </trkpt>
      <trkpt lat="42.34948" lon="0.23717">
        <ele>899.2</ele>
        <time>2018-05-06T11:27:52Z</time>
      </trkpt>
      <trkpt lat="42.34966" lon="0.23709">
        <ele>896</ele>
        <time>2018-05-06T11:28:03Z</time>
      </trkpt>
      <trkpt lat="42.3498" lon="0.23692">
        <ele>896.7</ele>
        <time>2018-05-06T11:28:22Z</time>
      </trkpt>
      <trkpt lat="42.34984" lon="0.23684">
        <ele>899.6</ele>
        <time>2018-05-06T11:28:25Z</time>
      </trkpt>
      <trkpt lat="42.34985" lon="0.23673">
        <ele>903.6</ele>
        <time>2018-05-06T11:28:30Z</time>
      </trkpt>
      <trkpt lat="42.34989" lon="0.23667">
        <ele>906.9</ele>
        <time>2018-05-06T11:28:33Z</time>
      </trkpt>
      <trkpt lat="42.35005" lon="0.23653">
        <ele>909.6</ele>
        <time>2018-05-06T11:28:42Z</time>
      </trkpt>
      <trkpt lat="42.35024" lon="0.23645">
        <ele>911.8</ele>
        <time>2018-05-06T11:28:49Z</time>
      </trkpt>
      <trkpt lat="42.35044" lon="0.2364">
        <ele>912.5</ele>
        <time>2018-05-06T11:28:56Z</time>
      </trkpt>
      <trkpt lat="42.35062" lon="0.23644">
        <ele>909.9</ele>
        <time>2018-05-06T11:29:03Z</time>
      </trkpt>
      <trkpt lat="42.35081" lon="0.23645">
        <ele>910.7</ele>
        <time>2018-05-06T11:29:10Z</time>
      </trkpt>
      <trkpt lat="42.35098" lon="0.23661">
        <ele>905.6</ele>
        <time>2018-05-06T11:29:17Z</time>
      </trkpt>
      <trkpt lat="42.35112" lon="0.23677">
        <ele>900.2</ele>
        <time>2018-05-06T11:29:25Z</time>
      </trkpt>
      <trkpt lat="42.3513" lon="0.23691">
        <ele>897.3</ele>
        <time>2018-05-06T11:29:32Z</time>
      </trkpt>
      <trkpt lat="42.35148" lon="0.23704">
        <ele>894.4</ele>
        <time>2018-05-06T11:29:38Z</time>
      </trkpt>
      <trkpt lat="42.35163" lon="0.23719">
        <ele>891</ele>
        <time>2018-05-06T11:29:44Z</time>
      </trkpt>
      <trkpt lat="42.35182" lon="0.23729">
        <ele>886.5</ele>
        <time>2018-05-06T11:29:51Z</time>
      </trkpt>
      <trkpt lat="42.35187" lon="0.23732">
        <ele>886.5</ele>
        <time>2018-05-06T11:29:53Z</time>
      </trkpt>
      <trkpt lat="42.35195" lon="0.23738">
        <ele>883.4</ele>
        <time>2018-05-06T11:29:57Z</time>
      </trkpt>
      <trkpt lat="42.35198" lon="0.2374">
        <ele>883.4</ele>
        <time>2018-05-06T11:29:59Z</time>
      </trkpt>
      <trkpt lat="42.35205" lon="0.23745">
        <ele>881.5</ele>
        <time>2018-05-06T11:30:03Z</time>
      </trkpt>
      <trkpt lat="42.35212" lon="0.2375">
        <ele>878.5</ele>
        <time>2018-05-06T11:30:07Z</time>
      </trkpt>
      <trkpt lat="42.35215" lon="0.2375">
        <ele>878.2</ele>
        <time>2018-05-06T11:30:09Z</time>
      </trkpt>
      <trkpt lat="42.35219" lon="0.23751">
        <ele>877.9</ele>
        <time>2018-05-06T11:30:11Z</time>
      </trkpt>
      <trkpt lat="42.35229" lon="0.23761">
        <ele>874</ele>
        <time>2018-05-06T11:30:18Z</time>
      </trkpt>
      <trkpt lat="42.35244" lon="0.23764">
        <ele>869.8</ele>
        <time>2018-05-06T11:30:26Z</time>
      </trkpt>
      <trkpt lat="42.35255" lon="0.23765">
        <ele>867.5</ele>
        <time>2018-05-06T11:30:30Z</time>
      </trkpt>
      <trkpt lat="42.35266" lon="0.2376">
        <ele>865</ele>
        <time>2018-05-06T11:30:37Z</time>
      </trkpt>
      <trkpt lat="42.35284" lon="0.23744">
        <ele>862.9</ele>
        <time>2018-05-06T11:30:50Z</time>
      </trkpt>
      <trkpt lat="42.35286" lon="0.23742">
        <ele>863.1</ele>
        <time>2018-05-06T11:30:51Z</time>
      </trkpt>
      <trkpt lat="42.35298" lon="0.23732">
        <ele>862.1</ele>
        <time>2018-05-06T11:30:56Z</time>
      </trkpt>
      <trkpt lat="42.35313" lon="0.23729">
        <ele>859.7</ele>
        <time>2018-05-06T11:31:01Z</time>
      </trkpt>
      <trkpt lat="42.35331" lon="0.23722">
        <ele>859.2</ele>
        <time>2018-05-06T11:31:07Z</time>
      </trkpt>
      <trkpt lat="42.3535" lon="0.23722">
        <ele>857.1</ele>
        <time>2018-05-06T11:31:14Z</time>
      </trkpt>
      <trkpt lat="42.35369" lon="0.23725">
        <ele>852.6</ele>
        <time>2018-05-06T11:31:24Z</time>
      </trkpt>
      <trkpt lat="42.3538" lon="0.23726">
        <ele>850.8</ele>
        <time>2018-05-06T11:31:30Z</time>
      </trkpt>
      <trkpt lat="42.35398" lon="0.2372">
        <ele>848.9</ele>
        <time>2018-05-06T11:31:38Z</time>
      </trkpt>
      <trkpt lat="42.35413" lon="0.23721">
        <ele>846.1</ele>
        <time>2018-05-06T11:31:45Z</time>
      </trkpt>
      <trkpt lat="42.35424" lon="0.23702">
        <ele>851.2</ele>
        <time>2018-05-06T11:32:01Z</time>
      </trkpt>
      <trkpt lat="42.35443" lon="0.23709">
        <ele>846.7</ele>
        <time>2018-05-06T11:32:24Z</time>
      </trkpt>
      <trkpt lat="42.35462" lon="0.23714">
        <ele>843.3</ele>
        <time>2018-05-06T11:32:33Z</time>
      </trkpt>
      <trkpt lat="42.35478" lon="0.23732">
        <ele>834.4</ele>
        <time>2018-05-06T11:32:41Z</time>
      </trkpt>
      <trkpt lat="42.35492" lon="0.23752">
        <ele>825.6</ele>
        <time>2018-05-06T11:32:48Z</time>
      </trkpt>
      <trkpt lat="42.35505" lon="0.23775">
        <ele>817.1</ele>
        <time>2018-05-06T11:32:54Z</time>
      </trkpt>
      <trkpt lat="42.3552" lon="0.2379">
        <ele>811.2</ele>
        <time>2018-05-06T11:33:00Z</time>
      </trkpt>
      <trkpt lat="42.35528" lon="0.23799">
        <ele>808.8</ele>
        <time>2018-05-06T11:33:06Z</time>
      </trkpt>
      <trkpt lat="42.35547" lon="0.23799">
        <ele>810</ele>
        <time>2018-05-06T11:33:15Z</time>
      </trkpt>
      <trkpt lat="42.3555" lon="0.23799">
        <ele>810.2</ele>
        <time>2018-05-06T11:33:16Z</time>
      </trkpt>
      <trkpt lat="42.35564" lon="0.23799">
        <ele>810.6</ele>
        <time>2018-05-06T11:33:32Z</time>
      </trkpt>
      <trkpt lat="42.35574" lon="0.23802">
        <ele>809</ele>
        <time>2018-05-06T11:33:37Z</time>
      </trkpt>
      <trkpt lat="42.35576" lon="0.23803">
        <ele>809</ele>
        <time>2018-05-06T11:33:38Z</time>
      </trkpt>
      <trkpt lat="42.35592" lon="0.23816">
        <ele>803.3</ele>
        <time>2018-05-06T11:33:47Z</time>
      </trkpt>
      <trkpt lat="42.35594" lon="0.23817">
        <ele>803.4</ele>
        <time>2018-05-06T11:33:48Z</time>
      </trkpt>
      <trkpt lat="42.35612" lon="0.23828">
        <ele>797.5</ele>
        <time>2018-05-06T11:33:56Z</time>
      </trkpt>
      <trkpt lat="42.35619" lon="0.23832">
        <ele>795.7</ele>
        <time>2018-05-06T11:33:59Z</time>
      </trkpt>
      <trkpt lat="42.35638" lon="0.23826">
        <ele>797.9</ele>
        <time>2018-05-06T11:34:16Z</time>
      </trkpt>
      <trkpt lat="42.35654" lon="0.2383">
        <ele>795.7</ele>
        <time>2018-05-06T11:34:54Z</time>
      </trkpt>
      <trkpt lat="42.35658" lon="0.23833">
        <ele>794.3</ele>
        <time>2018-05-06T11:34:57Z</time>
      </trkpt>
      <trkpt lat="42.35675" lon="0.23827">
        <ele>794.9</ele>
        <time>2018-05-06T11:35:36Z</time>
      </trkpt>
      <trkpt lat="42.3568" lon="0.23825">
        <ele>796.2</ele>
        <time>2018-05-06T11:35:40Z</time>
      </trkpt>
      <trkpt lat="42.35697" lon="0.23829">
        <ele>794.9</ele>
        <time>2018-05-06T11:35:52Z</time>
      </trkpt>
      <trkpt lat="42.35698" lon="0.2383">
        <ele>795</ele>
        <time>2018-05-06T11:35:53Z</time>
      </trkpt>
      <trkpt lat="42.35711" lon="0.23848">
        <ele>789</ele>
        <time>2018-05-06T11:36:07Z</time>
      </trkpt>
      <trkpt lat="42.35716" lon="0.23852">
        <ele>789.3</ele>
        <time>2018-05-06T11:36:10Z</time>
      </trkpt>
      <trkpt lat="42.3573" lon="0.23862">
        <ele>785.9</ele>
        <time>2018-05-06T11:36:34Z</time>
      </trkpt>
      <trkpt lat="42.35743" lon="0.2388">
        <ele>781.2</ele>
        <time>2018-05-06T11:36:49Z</time>
      </trkpt>
      <trkpt lat="42.35752" lon="0.23906">
        <ele>777.3</ele>
        <time>2018-05-06T11:36:58Z</time>
      </trkpt>
      <trkpt lat="42.35768" lon="0.23923">
        <ele>776.9</ele>
        <time>2018-05-06T11:37:04Z</time>
      </trkpt>
      <trkpt lat="42.35769" lon="0.23932">
        <ele>776.1</ele>
        <time>2018-05-06T11:37:06Z</time>
      </trkpt>
      <trkpt lat="42.35751" lon="0.23946">
        <ele>773.3</ele>
        <time>2018-05-06T11:37:11Z</time>
      </trkpt>
      <trkpt lat="42.35744" lon="0.23948">
        <ele>772.4</ele>
        <time>2018-05-06T11:37:13Z</time>
      </trkpt>
      <trkpt lat="42.35726" lon="0.23953">
        <ele>771.2</ele>
        <time>2018-05-06T11:37:50Z</time>
      </trkpt>
      <trkpt lat="42.3571" lon="0.23966">
        <ele>770</ele>
        <time>2018-05-06T11:39:05Z</time>
      </trkpt>
      <trkpt lat="42.35692" lon="0.23975">
        <ele>768</ele>
        <time>2018-05-06T11:39:10Z</time>
      </trkpt>
      <trkpt lat="42.35671" lon="0.23987">
        <ele>766</ele>
        <time>2018-05-06T11:39:15Z</time>
      </trkpt>
      <trkpt lat="42.35654" lon="0.23997">
        <ele>764.5</ele>
        <time>2018-05-06T11:39:19Z</time>
      </trkpt>
      <trkpt lat="42.35636" lon="0.24002">
        <ele>763.5</ele>
        <time>2018-05-06T11:39:23Z</time>
      </trkpt>
      <trkpt lat="42.35617" lon="0.24005">
        <ele>762.8</ele>
        <time>2018-05-06T11:39:27Z</time>
      </trkpt>
      <trkpt lat="42.356" lon="0.24005">
        <ele>761.7</ele>
        <time>2018-05-06T11:39:32Z</time>
      </trkpt>
      <trkpt lat="42.35582" lon="0.23998">
        <ele>761</ele>
        <time>2018-05-06T11:39:38Z</time>
      </trkpt>
      <trkpt lat="42.35568" lon="0.2398">
        <ele>760.5</ele>
        <time>2018-05-06T11:39:45Z</time>
      </trkpt>
      <trkpt lat="42.35552" lon="0.23965">
        <ele>760.3</ele>
        <time>2018-05-06T11:39:51Z</time>
      </trkpt>
      <trkpt lat="42.3555" lon="0.23963">
        <ele>760.3</ele>
        <time>2018-05-06T11:40:21Z</time>
      </trkpt>
      <trkpt lat="42.35564" lon="0.23979">
        <ele>760.6</ele>
        <time>2018-05-06T11:40:30Z</time>
      </trkpt>
      <trkpt lat="42.35579" lon="0.23996">
        <ele>761.5</ele>
        <time>2018-05-06T11:40:48Z</time>
      </trkpt>
      <trkpt lat="42.35569" lon="0.23996">
        <ele>762.2</ele>
        <time>2018-05-06T11:41:47Z</time>
      </trkpt>
      <trkpt lat="42.35553" lon="0.23981">
        <ele>763.6</ele>
        <time>2018-05-06T11:41:52Z</time>
      </trkpt>
      <trkpt lat="42.35537" lon="0.2397">
        <ele>765.4</ele>
        <time>2018-05-06T11:41:57Z</time>
      </trkpt>
      <trkpt lat="42.35518" lon="0.23963">
        <ele>767</ele>
        <time>2018-05-06T11:42:03Z</time>
      </trkpt>
      <trkpt lat="42.355" lon="0.23976">
        <ele>767</ele>
        <time>2018-05-06T11:42:11Z</time>
      </trkpt>
      <trkpt lat="42.35481" lon="0.23981">
        <ele>765.9</ele>
        <time>2018-05-06T11:42:17Z</time>
      </trkpt>
      <trkpt lat="42.35462" lon="0.23974">
        <ele>769.5</ele>
        <time>2018-05-06T11:42:24Z</time>
      </trkpt>
      <trkpt lat="42.35459" lon="0.23975">
        <ele>770.3</ele>
        <time>2018-05-06T11:42:25Z</time>
      </trkpt>
      <trkpt lat="42.35455" lon="0.23997">
        <ele>770.7</ele>
        <time>2018-05-06T11:42:31Z</time>
      </trkpt>
      <trkpt lat="42.35457" lon="0.23999">
        <ele>769.5</ele>
        <time>2018-05-06T11:42:32Z</time>
      </trkpt>
      <trkpt lat="42.35463" lon="0.24024">
        <ele>763</ele>
        <time>2018-05-06T11:42:39Z</time>
      </trkpt>
      <trkpt lat="42.35462" lon="0.24035">
        <ele>759.7</ele>
        <time>2018-05-06T11:42:42Z</time>
      </trkpt>
      <trkpt lat="42.35453" lon="0.24044">
        <ele>756.1</ele>
        <time>2018-05-06T11:43:49Z</time>
      </trkpt>
      <trkpt lat="42.35434" lon="0.24054">
        <ele>755.7</ele>
        <time>2018-05-06T11:43:59Z</time>
      </trkpt>
      <trkpt lat="42.35418" lon="0.24068">
        <ele>757.5</ele>
        <time>2018-05-06T11:44:06Z</time>
      </trkpt>
      <trkpt lat="42.354" lon="0.24074">
        <ele>757.6</ele>
        <time>2018-05-06T11:44:12Z</time>
      </trkpt>
      <trkpt lat="42.3538" lon="0.24083">
        <ele>761</ele>
        <time>2018-05-06T11:44:18Z</time>
      </trkpt>
      <trkpt lat="42.35376" lon="0.24086">
        <ele>761.8</ele>
        <time>2018-05-06T11:44:19Z</time>
      </trkpt>
      <trkpt lat="42.3536" lon="0.24102">
        <ele>761.5</ele>
        <time>2018-05-06T11:44:24Z</time>
      </trkpt>
      <trkpt lat="42.35341" lon="0.24111">
        <ele>759.9</ele>
        <time>2018-05-06T11:44:31Z</time>
      </trkpt>
      <trkpt lat="42.35327" lon="0.24129">
        <ele>757.9</ele>
        <time>2018-05-06T11:44:42Z</time>
      </trkpt>
      <trkpt lat="42.35317" lon="0.24143">
        <ele>753.8</ele>
        <time>2018-05-06T11:44:47Z</time>
      </trkpt>
      <trkpt lat="42.35304" lon="0.24154">
        <ele>750</ele>
        <time>2018-05-06T11:44:53Z</time>
      </trkpt>
      <trkpt lat="42.35294" lon="0.24161">
        <ele>747</ele>
        <time>2018-05-06T11:44:56Z</time>
      </trkpt>
      <trkpt lat="42.35273" lon="0.24165">
        <ele>744.5</ele>
        <time>2018-05-06T11:45:01Z</time>
      </trkpt>
      <trkpt lat="42.35264" lon="0.24163">
        <ele>743.2</ele>
        <time>2018-05-06T11:45:03Z</time>
      </trkpt>
      <trkpt lat="42.35247" lon="0.24154">
        <ele>743</ele>
        <time>2018-05-06T11:45:08Z</time>
      </trkpt>
      <trkpt lat="42.35236" lon="0.24161">
        <ele>746.2</ele>
        <time>2018-05-06T11:45:54Z</time>
      </trkpt>
      <trkpt lat="42.35235" lon="0.24164">
        <ele>746.7</ele>
        <time>2018-05-06T11:45:55Z</time>
      </trkpt>
      <trkpt lat="42.35229" lon="0.24177">
        <ele>745.3</ele>
        <time>2018-05-06T11:46:00Z</time>
      </trkpt>
      <trkpt lat="42.35213" lon="0.24189">
        <ele>741.4</ele>
        <time>2018-05-06T11:46:12Z</time>
      </trkpt>
      <trkpt lat="42.35199" lon="0.24203">
        <ele>741.2</ele>
        <time>2018-05-06T11:46:34Z</time>
      </trkpt>
      <trkpt lat="42.35183" lon="0.24217">
        <ele>743.1</ele>
        <time>2018-05-06T11:46:43Z</time>
      </trkpt>
      <trkpt lat="42.35165" lon="0.24229">
        <ele>746.7</ele>
        <time>2018-05-06T11:46:52Z</time>
      </trkpt>
      <trkpt lat="42.35146" lon="0.24236">
        <ele>751</ele>
        <time>2018-05-06T11:47:02Z</time>
      </trkpt>
      <trkpt lat="42.3513" lon="0.24247">
        <ele>755.4</ele>
        <time>2018-05-06T11:47:21Z</time>
      </trkpt>
      <trkpt lat="42.35115" lon="0.24263">
        <ele>761.5</ele>
        <time>2018-05-06T11:47:39Z</time>
      </trkpt>
      <trkpt lat="42.35108" lon="0.24268">
        <ele>763.8</ele>
        <time>2018-05-06T11:47:44Z</time>
      </trkpt>
      <trkpt lat="42.35087" lon="0.24275">
        <ele>769.9</ele>
        <time>2018-05-06T11:47:52Z</time>
      </trkpt>
      <trkpt lat="42.35067" lon="0.24279">
        <ele>772.4</ele>
        <time>2018-05-06T11:47:57Z</time>
      </trkpt>
      <trkpt lat="42.3506" lon="0.24281">
        <ele>772.6</ele>
        <time>2018-05-06T11:48:00Z</time>
      </trkpt>
      <trkpt lat="42.3504" lon="0.2429">
        <ele>772.1</ele>
        <time>2018-05-06T11:48:07Z</time>
      </trkpt>
      <trkpt lat="42.35031" lon="0.24293">
        <ele>770.5</ele>
        <time>2018-05-06T11:48:10Z</time>
      </trkpt>
      <trkpt lat="42.35013" lon="0.24299">
        <ele>765.7</ele>
        <time>2018-05-06T11:48:17Z</time>
      </trkpt>
      <trkpt lat="42.35007" lon="0.24294">
        <ele>763.9</ele>
        <time>2018-05-06T11:48:20Z</time>
      </trkpt>
      <trkpt lat="42.34993" lon="0.24315">
        <ele>762.5</ele>
        <time>2018-05-06T11:50:03Z</time>
      </trkpt>
      <trkpt lat="42.34985" lon="0.24328">
        <ele>756.7</ele>
        <time>2018-05-06T11:50:07Z</time>
      </trkpt>
      <trkpt lat="42.34968" lon="0.24341">
        <ele>750.7</ele>
        <time>2018-05-06T11:50:14Z</time>
      </trkpt>
      <trkpt lat="42.34949" lon="0.24351">
        <ele>745.4</ele>
        <time>2018-05-06T11:50:23Z</time>
      </trkpt>
      <trkpt lat="42.34931" lon="0.24358">
        <ele>744</ele>
        <time>2018-05-06T11:50:32Z</time>
      </trkpt>
      <trkpt lat="42.34911" lon="0.24367">
        <ele>741.7</ele>
        <time>2018-05-06T11:50:41Z</time>
      </trkpt>
      <trkpt lat="42.34901" lon="0.2437">
        <ele>740.6</ele>
        <time>2018-05-06T11:50:50Z</time>
      </trkpt>
      <trkpt lat="42.34884" lon="0.2438">
        <ele>739.1</ele>
        <time>2018-05-06T11:50:56Z</time>
      </trkpt>
      <trkpt lat="42.34868" lon="0.24392">
        <ele>736.2</ele>
        <time>2018-05-06T11:51:03Z</time>
      </trkpt>
      <trkpt lat="42.3485" lon="0.244">
        <ele>735.7</ele>
        <time>2018-05-06T11:51:10Z</time>
      </trkpt>
      <trkpt lat="42.34831" lon="0.24404">
        <ele>736.2</ele>
        <time>2018-05-06T11:51:16Z</time>
      </trkpt>
      <trkpt lat="42.34815" lon="0.24415">
        <ele>733.1</ele>
        <time>2018-05-06T11:51:22Z</time>
      </trkpt>
      <trkpt lat="42.34795" lon="0.24414">
        <ele>734.6</ele>
        <time>2018-05-06T11:51:28Z</time>
      </trkpt>
      <trkpt lat="42.34776" lon="0.2441">
        <ele>734</ele>
        <time>2018-05-06T11:51:33Z</time>
      </trkpt>
      <trkpt lat="42.34755" lon="0.24409">
        <ele>732.8</ele>
        <time>2018-05-06T11:51:39Z</time>
      </trkpt>
      <trkpt lat="42.3475" lon="0.24411">
        <ele>730.5</ele>
        <time>2018-05-06T11:51:40Z</time>
      </trkpt>
      <trkpt lat="42.34733" lon="0.24415">
        <ele>727</ele>
        <time>2018-05-06T11:51:44Z</time>
      </trkpt>
      <trkpt lat="42.34713" lon="0.24421">
        <ele>723.2</ele>
        <time>2018-05-06T11:51:49Z</time>
      </trkpt>
      <trkpt lat="42.34701" lon="0.24421">
        <ele>721.7</ele>
        <time>2018-05-06T11:51:54Z</time>
      </trkpt>
      <trkpt lat="42.34694" lon="0.24408">
        <ele>722.6</ele>
        <time>2018-05-06T11:52:01Z</time>
      </trkpt>
      <trkpt lat="42.34689" lon="0.24407">
        <ele>721.4</ele>
        <time>2018-05-06T11:52:05Z</time>
      </trkpt>
      <trkpt lat="42.34685" lon="0.24393">
        <ele>723.1</ele>
        <time>2018-05-06T11:52:11Z</time>
      </trkpt>
      <trkpt lat="42.34675" lon="0.24386">
        <ele>723.6</ele>
        <time>2018-05-06T11:52:19Z</time>
      </trkpt>
      <trkpt lat="42.34659" lon="0.24394">
        <ele>720.4</ele>
        <time>2018-05-06T11:52:33Z</time>
      </trkpt>
      <trkpt lat="42.34654" lon="0.24388">
        <ele>721.3</ele>
        <time>2018-05-06T11:52:37Z</time>
      </trkpt>
      <trkpt lat="42.34635" lon="0.24381">
        <ele>723.7</ele>
        <time>2018-05-06T11:52:47Z</time>
      </trkpt>
      <trkpt lat="42.34617" lon="0.24373">
        <ele>725.5</ele>
        <time>2018-05-06T11:52:56Z</time>
      </trkpt>
      <trkpt lat="42.34604" lon="0.24362">
        <ele>726.4</ele>
        <time>2018-05-06T11:53:07Z</time>
      </trkpt>
      <trkpt lat="42.34585" lon="0.24358">
        <ele>727</ele>
        <time>2018-05-06T11:53:16Z</time>
      </trkpt>
      <trkpt lat="42.34564" lon="0.24358">
        <ele>727.3</ele>
        <time>2018-05-06T11:53:21Z</time>
      </trkpt>
      <trkpt lat="42.34544" lon="0.24357">
        <ele>727.7</ele>
        <time>2018-05-06T11:53:26Z</time>
      </trkpt>
      <trkpt lat="42.34526" lon="0.2436">
        <ele>728.9</ele>
        <time>2018-05-06T11:53:33Z</time>
      </trkpt>
      <trkpt lat="42.34507" lon="0.24373">
        <ele>727.4</ele>
        <time>2018-05-06T11:53:40Z</time>
      </trkpt>
      <trkpt lat="42.34488" lon="0.24381">
        <ele>726.4</ele>
        <time>2018-05-06T11:53:57Z</time>
      </trkpt>
      <trkpt lat="42.34478" lon="0.24381">
        <ele>726.3</ele>
        <time>2018-05-06T11:54:01Z</time>
      </trkpt>
      <trkpt lat="42.34461" lon="0.24379">
        <ele>726.7</ele>
        <time>2018-05-06T11:54:22Z</time>
      </trkpt>
      <trkpt lat="42.34449" lon="0.24377">
        <ele>726.5</ele>
        <time>2018-05-06T11:54:38Z</time>
      </trkpt>
      <trkpt lat="42.34433" lon="0.24364">
        <ele>724.9</ele>
        <time>2018-05-06T11:54:58Z</time>
      </trkpt>
      <trkpt lat="42.34419" lon="0.24349">
        <ele>722.5</ele>
        <time>2018-05-06T11:55:04Z</time>
      </trkpt>
      <trkpt lat="42.34401" lon="0.24345">
        <ele>721.4</ele>
        <time>2018-05-06T11:55:10Z</time>
      </trkpt>
      <trkpt lat="42.34382" lon="0.24351">
        <ele>721.1</ele>
        <time>2018-05-06T11:55:15Z</time>
      </trkpt>
      <trkpt lat="42.34374" lon="0.24349">
        <ele>721</ele>
        <time>2018-05-06T11:55:18Z</time>
      </trkpt>
      <trkpt lat="42.34362" lon="0.24331">
        <ele>720.8</ele>
        <time>2018-05-06T11:55:24Z</time>
      </trkpt>
      <trkpt lat="42.3436" lon="0.24329">
        <ele>720.7</ele>
        <time>2018-05-06T11:55:25Z</time>
      </trkpt>
      <trkpt lat="42.34343" lon="0.24321">
        <ele>719.9</ele>
        <time>2018-05-06T11:55:31Z</time>
      </trkpt>
      <trkpt lat="42.34323" lon="0.24315">
        <ele>718.3</ele>
        <time>2018-05-06T11:55:38Z</time>
      </trkpt>
      <trkpt lat="42.34304" lon="0.2431">
        <ele>717.7</ele>
        <time>2018-05-06T11:55:43Z</time>
      </trkpt>
      <trkpt lat="42.34287" lon="0.24314">
        <ele>717.6</ele>
        <time>2018-05-06T11:55:48Z</time>
      </trkpt>
      <trkpt lat="42.34284" lon="0.24315">
        <ele>717.6</ele>
        <time>2018-05-06T11:55:49Z</time>
      </trkpt>
      <trkpt lat="42.34276" lon="0.24311">
        <ele>717.5</ele>
        <time>2018-05-06T11:55:53Z</time>
      </trkpt>
      <trkpt lat="42.34259" lon="0.24298">
        <ele>717.2</ele>
        <time>2018-05-06T11:55:59Z</time>
      </trkpt>
      <trkpt lat="42.34241" lon="0.24289">
        <ele>716.5</ele>
        <time>2018-05-06T11:56:05Z</time>
      </trkpt>
      <trkpt lat="42.34224" lon="0.24275">
        <ele>713.8</ele>
        <time>2018-05-06T11:56:12Z</time>
      </trkpt>
      <trkpt lat="42.34209" lon="0.24261">
        <ele>710.6</ele>
        <time>2018-05-06T11:56:18Z</time>
      </trkpt>
      <trkpt lat="42.34191" lon="0.24251">
        <ele>707.2</ele>
        <time>2018-05-06T11:56:25Z</time>
      </trkpt>
      <trkpt lat="42.34171" lon="0.24239">
        <ele>703</ele>
        <time>2018-05-06T11:56:31Z</time>
      </trkpt>
      <trkpt lat="42.34151" lon="0.24234">
        <ele>700.6</ele>
        <time>2018-05-06T11:56:36Z</time>
      </trkpt>
      <trkpt lat="42.34141" lon="0.24235">
        <ele>695.7</ele>
        <time>2018-05-06T11:56:39Z</time>
      </trkpt>
      <trkpt lat="42.34123" lon="0.24227">
        <ele>692.9</ele>
        <time>2018-05-06T11:57:10Z</time>
      </trkpt>
      <trkpt lat="42.34104" lon="0.24223">
        <ele>689.5</ele>
        <time>2018-05-06T11:57:17Z</time>
      </trkpt>
      <trkpt lat="42.34086" lon="0.24223">
        <ele>686.8</ele>
        <time>2018-05-06T11:57:22Z</time>
      </trkpt>
      <trkpt lat="42.34071" lon="0.24213">
        <ele>682.7</ele>
        <time>2018-05-06T11:57:30Z</time>
      </trkpt>
      <trkpt lat="42.34048" lon="0.24211">
        <ele>676.2</ele>
        <time>2018-05-06T11:58:28Z</time>
      </trkpt>
      <trkpt lat="42.34029" lon="0.24216">
        <ele>671.6</ele>
        <time>2018-05-06T11:58:35Z</time>
      </trkpt>
      <trkpt lat="42.34008" lon="0.24223">
        <ele>665.8</ele>
        <time>2018-05-06T11:58:42Z</time>
      </trkpt>
      <trkpt lat="42.34" lon="0.24232">
        <ele>663.7</ele>
        <time>2018-05-06T11:58:46Z</time>
      </trkpt>
      <trkpt lat="42.34001" lon="0.24241">
        <ele>661.2</ele>
        <time>2018-05-06T11:58:50Z</time>
      </trkpt>
      <trkpt lat="42.3399" lon="0.24243">
        <ele>657.8</ele>
        <time>2018-05-06T11:58:55Z</time>
      </trkpt>
      <trkpt lat="42.33972" lon="0.24234">
        <ele>654.4</ele>
        <time>2018-05-06T11:59:03Z</time>
      </trkpt>
      <trkpt lat="42.33964" lon="0.24228">
        <ele>652.4</ele>
        <time>2018-05-06T11:59:08Z</time>
      </trkpt>
      <trkpt lat="42.33948" lon="0.24227">
        <ele>647.5</ele>
        <time>2018-05-06T11:59:17Z</time>
      </trkpt>
      <trkpt lat="42.33944" lon="0.24212">
        <ele>644.1</ele>
        <time>2018-05-06T11:59:24Z</time>
      </trkpt>
      <trkpt lat="42.33937" lon="0.24203">
        <ele>642.4</ele>
        <time>2018-05-06T11:59:28Z</time>
      </trkpt>
      <trkpt lat="42.33918" lon="0.24204">
        <ele>638.4</ele>
        <time>2018-05-06T11:59:34Z</time>
      </trkpt>
      <trkpt lat="42.33906" lon="0.24205">
        <ele>635.9</ele>
        <time>2018-05-06T11:59:38Z</time>
      </trkpt>
      <trkpt lat="42.33887" lon="0.24194">
        <ele>629.5</ele>
        <time>2018-05-06T11:59:45Z</time>
      </trkpt>
      <trkpt lat="42.33882" lon="0.24189">
        <ele>628.9</ele>
        <time>2018-05-06T11:59:47Z</time>
      </trkpt>
      <trkpt lat="42.3386" lon="0.24194">
        <ele>624.6</ele>
        <time>2018-05-06T11:59:52Z</time>
      </trkpt>
      <trkpt lat="42.33842" lon="0.24199">
        <ele>620.7</ele>
        <time>2018-05-06T11:59:56Z</time>
      </trkpt>
      <trkpt lat="42.33821" lon="0.242">
        <ele>618.2</ele>
        <time>2018-05-06T12:00:01Z</time>
      </trkpt>
      <trkpt lat="42.33815" lon="0.24199">
        <ele>617.5</ele>
        <time>2018-05-06T12:00:02Z</time>
      </trkpt>
      <trkpt lat="42.33796" lon="0.24198">
        <ele>615.3</ele>
        <time>2018-05-06T12:00:05Z</time>
      </trkpt>
      <trkpt lat="42.33776" lon="0.242">
        <ele>612.8</ele>
        <time>2018-05-06T12:00:09Z</time>
      </trkpt>
      <trkpt lat="42.33766" lon="0.24207">
        <ele>611.3</ele>
        <time>2018-05-06T12:00:11Z</time>
      </trkpt>
      <trkpt lat="42.33748" lon="0.24216">
        <ele>608.8</ele>
        <time>2018-05-06T12:00:19Z</time>
      </trkpt>
      <trkpt lat="42.33738" lon="0.24223">
        <ele>607.1</ele>
        <time>2018-05-06T12:00:22Z</time>
      </trkpt>
      <trkpt lat="42.33721" lon="0.24233">
        <ele>605.7</ele>
        <time>2018-05-06T12:00:29Z</time>
      </trkpt>
      <trkpt lat="42.33712" lon="0.2424">
        <ele>604.4</ele>
        <time>2018-05-06T12:00:32Z</time>
      </trkpt>
      <trkpt lat="42.33695" lon="0.24256">
        <ele>601</ele>
        <time>2018-05-06T12:00:37Z</time>
      </trkpt>
      <trkpt lat="42.33674" lon="0.24257">
        <ele>600.3</ele>
        <time>2018-05-06T12:00:42Z</time>
      </trkpt>
      <trkpt lat="42.33665" lon="0.24256">
        <ele>599.6</ele>
        <time>2018-05-06T12:00:44Z</time>
      </trkpt>
      <trkpt lat="42.33646" lon="0.24257">
        <ele>597.9</ele>
        <time>2018-05-06T12:00:48Z</time>
      </trkpt>
      <trkpt lat="42.33629" lon="0.24248">
        <ele>596.3</ele>
        <time>2018-05-06T12:00:52Z</time>
      </trkpt>
      <trkpt lat="42.33612" lon="0.24234">
        <ele>594.4</ele>
        <time>2018-05-06T12:00:56Z</time>
      </trkpt>
      <trkpt lat="42.33609" lon="0.2423">
        <ele>593.9</ele>
        <time>2018-05-06T12:00:57Z</time>
      </trkpt>
      <trkpt lat="42.33596" lon="0.24211">
        <ele>591.9</ele>
        <time>2018-05-06T12:01:01Z</time>
      </trkpt>
      <trkpt lat="42.3359" lon="0.24187">
        <ele>590</ele>
        <time>2018-05-06T12:01:08Z</time>
      </trkpt>
      <trkpt lat="42.33595" lon="0.24161">
        <ele>589.7</ele>
        <time>2018-05-06T12:01:15Z</time>
      </trkpt>
      <trkpt lat="42.33601" lon="0.24131">
        <ele>589.6</ele>
        <time>2018-05-06T12:01:19Z</time>
      </trkpt>
      <trkpt lat="42.33598" lon="0.24105">
        <ele>589.7</ele>
        <time>2018-05-06T12:01:22Z</time>
      </trkpt>
      <trkpt lat="42.33582" lon="0.24098">
        <ele>590.1</ele>
        <time>2018-05-06T12:01:26Z</time>
      </trkpt>
      <trkpt lat="42.33573" lon="0.24107">
        <ele>590.7</ele>
        <time>2018-05-06T12:01:29Z</time>
      </trkpt>
      <trkpt lat="42.33554" lon="0.24114">
        <ele>592.4</ele>
        <time>2018-05-06T12:01:35Z</time>
      </trkpt>
      <trkpt lat="42.33538" lon="0.24103">
        <ele>594.6</ele>
        <time>2018-05-06T12:01:46Z</time>
      </trkpt>
      <trkpt lat="42.33525" lon="0.24083">
        <ele>598</ele>
        <time>2018-05-06T12:02:03Z</time>
      </trkpt>
      <trkpt lat="42.33532" lon="0.24101">
        <ele>596.4</ele>
        <time>2018-05-06T12:02:23Z</time>
      </trkpt>
      <trkpt lat="42.33544" lon="0.24118">
        <ele>593.5</ele>
        <time>2018-05-06T12:02:38Z</time>
      </trkpt>
      <trkpt lat="42.33564" lon="0.24111">
        <ele>591.5</ele>
        <time>2018-05-06T12:02:44Z</time>
      </trkpt>
      <trkpt lat="42.33579" lon="0.24097">
        <ele>590.2</ele>
        <time>2018-05-06T12:02:48Z</time>
      </trkpt>
      <trkpt lat="42.33598" lon="0.24108">
        <ele>589.7</ele>
        <time>2018-05-06T12:02:52Z</time>
      </trkpt>
      <trkpt lat="42.33599" lon="0.24133">
        <ele>589.6</ele>
        <time>2018-05-06T12:02:56Z</time>
      </trkpt>
      <trkpt lat="42.33598" lon="0.24138">
        <ele>589.6</ele>
        <time>2018-05-06T12:02:57Z</time>
      </trkpt>
      <trkpt lat="42.33593" lon="0.24166">
        <ele>589.8</ele>
        <time>2018-05-06T12:03:03Z</time>
      </trkpt>
      <trkpt lat="42.33588" lon="0.24192">
        <ele>590</ele>
        <time>2018-05-06T12:03:09Z</time>
      </trkpt>
      <trkpt lat="42.33589" lon="0.24218">
        <ele>589.5</ele>
        <time>2018-05-06T12:03:15Z</time>
      </trkpt>
      <trkpt lat="42.336" lon="0.2424">
        <ele>588.9</ele>
        <time>2018-05-06T12:03:21Z</time>
      </trkpt>
      <trkpt lat="42.33612" lon="0.24259">
        <ele>587.6</ele>
        <time>2018-05-06T12:03:25Z</time>
      </trkpt>
      <trkpt lat="42.33625" lon="0.24277">
        <ele>586.5</ele>
        <time>2018-05-06T12:03:28Z</time>
      </trkpt>
      <trkpt lat="42.33641" lon="0.243">
        <ele>585.7</ele>
        <time>2018-05-06T12:03:31Z</time>
      </trkpt>
      <trkpt lat="42.33655" lon="0.24314">
        <ele>584.8</ele>
        <time>2018-05-06T12:03:33Z</time>
      </trkpt>
      <trkpt lat="42.33672" lon="0.24325">
        <ele>583.6</ele>
        <time>2018-05-06T12:03:35Z</time>
      </trkpt>
      <trkpt lat="42.3369" lon="0.24334">
        <ele>583.3</ele>
        <time>2018-05-06T12:03:37Z</time>
      </trkpt>
      <trkpt lat="42.3371" lon="0.24347">
        <ele>582.7</ele>
        <time>2018-05-06T12:03:40Z</time>
      </trkpt>
      <trkpt lat="42.33716" lon="0.24369">
        <ele>582</ele>
        <time>2018-05-06T12:03:43Z</time>
      </trkpt>
      <trkpt lat="42.33708" lon="0.24392">
        <ele>581.6</ele>
        <time>2018-05-06T12:03:46Z</time>
      </trkpt>
      <trkpt lat="42.33704" lon="0.244">
        <ele>581.5</ele>
        <time>2018-05-06T12:03:47Z</time>
      </trkpt>
      <trkpt lat="42.33699" lon="0.24417">
        <ele>580.9</ele>
        <time>2018-05-06T12:03:49Z</time>
      </trkpt>
      <trkpt lat="42.33696" lon="0.24445">
        <ele>580.4</ele>
        <time>2018-05-06T12:03:52Z</time>
      </trkpt>
      <trkpt lat="42.33697" lon="0.24454">
        <ele>580.2</ele>
        <time>2018-05-06T12:03:53Z</time>
      </trkpt>
      <trkpt lat="42.33701" lon="0.24481">
        <ele>579.3</ele>
        <time>2018-05-06T12:03:57Z</time>
      </trkpt>
      <trkpt lat="42.33703" lon="0.24495">
        <ele>578.8</ele>
        <time>2018-05-06T12:03:59Z</time>
      </trkpt>
      <trkpt lat="42.33709" lon="0.2452">
        <ele>577.9</ele>
        <time>2018-05-06T12:04:02Z</time>
      </trkpt>
      <trkpt lat="42.33717" lon="0.24548">
        <ele>577.2</ele>
        <time>2018-05-06T12:04:05Z</time>
      </trkpt>
      <trkpt lat="42.33724" lon="0.24568">
        <ele>576.5</ele>
        <time>2018-05-06T12:04:07Z</time>
      </trkpt>
      <trkpt lat="42.33744" lon="0.24593">
        <ele>575.6</ele>
        <time>2018-05-06T12:04:10Z</time>
      </trkpt>
      <trkpt lat="42.33752" lon="0.246">
        <ele>575.5</ele>
        <time>2018-05-06T12:04:11Z</time>
      </trkpt>
      <trkpt lat="42.33767" lon="0.24614">
        <ele>575.4</ele>
        <time>2018-05-06T12:04:13Z</time>
      </trkpt>
      <trkpt lat="42.33788" lon="0.24635">
        <ele>575.4</ele>
        <time>2018-05-06T12:04:16Z</time>
      </trkpt>
      <trkpt lat="42.33805" lon="0.24659">
        <ele>575.5</ele>
        <time>2018-05-06T12:04:19Z</time>
      </trkpt>
      <trkpt lat="42.33821" lon="0.24679">
        <ele>575.6</ele>
        <time>2018-05-06T12:04:22Z</time>
      </trkpt>
      <trkpt lat="42.33839" lon="0.24688">
        <ele>575.9</ele>
        <time>2018-05-06T12:04:25Z</time>
      </trkpt>
      <trkpt lat="42.3386" lon="0.24683">
        <ele>576.2</ele>
        <time>2018-05-06T12:04:28Z</time>
      </trkpt>
      <trkpt lat="42.33883" lon="0.24675">
        <ele>576.4</ele>
        <time>2018-05-06T12:04:32Z</time>
      </trkpt>
      <trkpt lat="42.33905" lon="0.24671">
        <ele>576.6</ele>
        <time>2018-05-06T12:04:34Z</time>
      </trkpt>
      <trkpt lat="42.33927" lon="0.2468">
        <ele>576.8</ele>
        <time>2018-05-06T12:04:37Z</time>
      </trkpt>
      <trkpt lat="42.33945" lon="0.24699">
        <ele>577.1</ele>
        <time>2018-05-06T12:04:40Z</time>
      </trkpt>
      <trkpt lat="42.33962" lon="0.24718">
        <ele>577.4</ele>
        <time>2018-05-06T12:04:43Z</time>
      </trkpt>
      <trkpt lat="42.3398" lon="0.24736">
        <ele>577.6</ele>
        <time>2018-05-06T12:04:46Z</time>
      </trkpt>
      <trkpt lat="42.33999" lon="0.24752">
        <ele>577.7</ele>
        <time>2018-05-06T12:04:49Z</time>
      </trkpt>
      <trkpt lat="42.34017" lon="0.24765">
        <ele>578</ele>
        <time>2018-05-06T12:04:52Z</time>
      </trkpt>
      <trkpt lat="42.34033" lon="0.2478">
        <ele>577.7</ele>
        <time>2018-05-06T12:04:55Z</time>
      </trkpt>
      <trkpt lat="42.34049" lon="0.24796">
        <ele>577.3</ele>
        <time>2018-05-06T12:04:58Z</time>
      </trkpt>
      <trkpt lat="42.34063" lon="0.24812">
        <ele>577.3</ele>
        <time>2018-05-06T12:05:01Z</time>
      </trkpt>
      <trkpt lat="42.34081" lon="0.24832">
        <ele>577.3</ele>
        <time>2018-05-06T12:05:05Z</time>
      </trkpt>
      <trkpt lat="42.34098" lon="0.24852">
        <ele>577.4</ele>
        <time>2018-05-06T12:05:09Z</time>
      </trkpt>
      <trkpt lat="42.34116" lon="0.2487">
        <ele>577.4</ele>
        <time>2018-05-06T12:05:13Z</time>
      </trkpt>
      <trkpt lat="42.34133" lon="0.24889">
        <ele>576.9</ele>
        <time>2018-05-06T12:05:17Z</time>
      </trkpt>
      <trkpt lat="42.34151" lon="0.24908">
        <ele>576.8</ele>
        <time>2018-05-06T12:05:21Z</time>
      </trkpt>
      <trkpt lat="42.34168" lon="0.24926">
        <ele>577.4</ele>
        <time>2018-05-06T12:05:25Z</time>
      </trkpt>
      <trkpt lat="42.34185" lon="0.24946">
        <ele>577.9</ele>
        <time>2018-05-06T12:05:29Z</time>
      </trkpt>
      <trkpt lat="42.34196" lon="0.24962">
        <ele>578</ele>
        <time>2018-05-06T12:05:32Z</time>
      </trkpt>
      <trkpt lat="42.34205" lon="0.24989">
        <ele>578.2</ele>
        <time>2018-05-06T12:05:36Z</time>
      </trkpt>
      <trkpt lat="42.34212" lon="0.25018">
        <ele>578.3</ele>
        <time>2018-05-06T12:05:40Z</time>
      </trkpt>
      <trkpt lat="42.34217" lon="0.25048">
        <ele>577.7</ele>
        <time>2018-05-06T12:05:44Z</time>
      </trkpt>
      <trkpt lat="42.34219" lon="0.25079">
        <ele>577</ele>
        <time>2018-05-06T12:05:48Z</time>
      </trkpt>
      <trkpt lat="42.3422" lon="0.2511">
        <ele>576.7</ele>
        <time>2018-05-06T12:05:52Z</time>
      </trkpt>
      <trkpt lat="42.34221" lon="0.25141">
        <ele>576.7</ele>
        <time>2018-05-06T12:05:56Z</time>
      </trkpt>
      <trkpt lat="42.34222" lon="0.25172">
        <ele>576.9</ele>
        <time>2018-05-06T12:06:00Z</time>
      </trkpt>
      <trkpt lat="42.34222" lon="0.25202">
        <ele>576.9</ele>
        <time>2018-05-06T12:06:04Z</time>
      </trkpt>
      <trkpt lat="42.34219" lon="0.25232">
        <ele>576.9</ele>
        <time>2018-05-06T12:06:08Z</time>
      </trkpt>
      <trkpt lat="42.34217" lon="0.25263">
        <ele>576.8</ele>
        <time>2018-05-06T12:06:12Z</time>
      </trkpt>
      <trkpt lat="42.34216" lon="0.25294">
        <ele>576.8</ele>
        <time>2018-05-06T12:06:16Z</time>
      </trkpt>
      <trkpt lat="42.34218" lon="0.25324">
        <ele>576.8</ele>
        <time>2018-05-06T12:06:20Z</time>
      </trkpt>
      <trkpt lat="42.34225" lon="0.2535">
        <ele>576.6</ele>
        <time>2018-05-06T12:06:24Z</time>
      </trkpt>
      <trkpt lat="42.3423" lon="0.25371">
        <ele>576.5</ele>
        <time>2018-05-06T12:06:28Z</time>
      </trkpt>
      <trkpt lat="42.3424" lon="0.25393">
        <ele>576.3</ele>
        <time>2018-05-06T12:06:32Z</time>
      </trkpt>
      <trkpt lat="42.34252" lon="0.25415">
        <ele>576.2</ele>
        <time>2018-05-06T12:06:36Z</time>
      </trkpt>
      <trkpt lat="42.34268" lon="0.25433">
        <ele>576.4</ele>
        <time>2018-05-06T12:06:40Z</time>
      </trkpt>
      <trkpt lat="42.34285" lon="0.25449">
        <ele>576.8</ele>
        <time>2018-05-06T12:06:44Z</time>
      </trkpt>
      <trkpt lat="42.34301" lon="0.25461">
        <ele>577.3</ele>
        <time>2018-05-06T12:06:48Z</time>
      </trkpt>
      <trkpt lat="42.34304" lon="0.25464">
        <ele>577.4</ele>
        <time>2018-05-06T12:06:49Z</time>
      </trkpt>
      <trkpt lat="42.34322" lon="0.25482">
        <ele>577.9</ele>
        <time>2018-05-06T12:06:54Z</time>
      </trkpt>
      <trkpt lat="42.34326" lon="0.25484">
        <ele>578.1</ele>
        <time>2018-05-06T12:06:55Z</time>
      </trkpt>
      <trkpt lat="42.34335" lon="0.2549">
        <ele>578.5</ele>
        <time>2018-05-06T12:06:57Z</time>
      </trkpt>
      <trkpt lat="42.34352" lon="0.25501">
        <ele>579.2</ele>
        <time>2018-05-06T12:07:01Z</time>
      </trkpt>
      <trkpt lat="42.34356" lon="0.25504">
        <ele>579.3</ele>
        <time>2018-05-06T12:07:02Z</time>
      </trkpt>
      <trkpt lat="42.34372" lon="0.25518">
        <ele>579.8</ele>
        <time>2018-05-06T12:07:06Z</time>
      </trkpt>
      <trkpt lat="42.34391" lon="0.25532">
        <ele>580.3</ele>
        <time>2018-05-06T12:07:11Z</time>
      </trkpt>
      <trkpt lat="42.34407" lon="0.25543">
        <ele>580.8</ele>
        <time>2018-05-06T12:07:15Z</time>
      </trkpt>
      <trkpt lat="42.34428" lon="0.25551">
        <ele>581.7</ele>
        <time>2018-05-06T12:07:20Z</time>
      </trkpt>
      <trkpt lat="42.3444" lon="0.25557">
        <ele>582.3</ele>
        <time>2018-05-06T12:07:23Z</time>
      </trkpt>
      <trkpt lat="42.34461" lon="0.25564">
        <ele>583.5</ele>
        <time>2018-05-06T12:07:28Z</time>
      </trkpt>
      <trkpt lat="42.34479" lon="0.2557">
        <ele>584</ele>
        <time>2018-05-06T12:07:34Z</time>
      </trkpt>
      <trkpt lat="42.34482" lon="0.25581">
        <ele>583.8</ele>
        <time>2018-05-06T12:07:56Z</time>
      </trkpt>
      <trkpt lat="42.3448" lon="0.25586">
        <ele>583.3</ele>
        <time>2018-05-06T12:07:58Z</time>
      </trkpt>
      <trkpt lat="42.34474" lon="0.2561">
        <ele>582.2</ele>
        <time>2018-05-06T12:08:17Z</time>
      </trkpt>
      <trkpt lat="42.3447" lon="0.25635">
        <ele>581.4</ele>
        <time>2018-05-06T12:08:24Z</time>
      </trkpt>
      <trkpt lat="42.34471" lon="0.25638">
        <ele>581.3</ele>
        <time>2018-05-06T12:08:25Z</time>
      </trkpt>
      <trkpt lat="42.34488" lon="0.25653">
        <ele>581.6</ele>
        <time>2018-05-06T12:08:32Z</time>
      </trkpt>
      <trkpt lat="42.34505" lon="0.25658">
        <ele>582.1</ele>
        <time>2018-05-06T12:08:38Z</time>
      </trkpt>
      <trkpt lat="42.34515" lon="0.25659">
        <ele>582.3</ele>
        <time>2018-05-06T12:08:41Z</time>
      </trkpt>
      <trkpt lat="42.34526" lon="0.25676">
        <ele>582.2</ele>
        <time>2018-05-06T12:08:46Z</time>
      </trkpt>
      <trkpt lat="42.34536" lon="0.25674">
        <ele>582.5</ele>
        <time>2018-05-06T12:08:50Z</time>
      </trkpt>
      <trkpt lat="42.34538" lon="0.25674">
        <ele>582.6</ele>
        <time>2018-05-06T12:08:51Z</time>
      </trkpt>
      <trkpt lat="42.34554" lon="0.25684">
        <ele>582.7</ele>
        <time>2018-05-06T12:08:57Z</time>
      </trkpt>
      <trkpt lat="42.34572" lon="0.25692">
        <ele>582.9</ele>
        <time>2018-05-06T12:09:03Z</time>
      </trkpt>
      <trkpt lat="42.34581" lon="0.257">
        <ele>583</ele>
        <time>2018-05-06T12:09:08Z</time>
      </trkpt>
      <trkpt lat="42.34591" lon="0.2571">
        <ele>583.1</ele>
        <time>2018-05-06T12:09:12Z</time>
      </trkpt>
      <trkpt lat="42.34608" lon="0.2572">
        <ele>583.4</ele>
        <time>2018-05-06T12:09:31Z</time>
      </trkpt>
      <trkpt lat="42.34626" lon="0.25724">
        <ele>583.8</ele>
        <time>2018-05-06T12:09:38Z</time>
      </trkpt>
      <trkpt lat="42.34644" lon="0.25734">
        <ele>584.3</ele>
        <time>2018-05-06T12:09:45Z</time>
      </trkpt>
      <trkpt lat="42.34664" lon="0.25743">
        <ele>584.8</ele>
        <time>2018-05-06T12:09:52Z</time>
      </trkpt>
      <trkpt lat="42.34683" lon="0.25748">
        <ele>585.2</ele>
        <time>2018-05-06T12:09:59Z</time>
      </trkpt>
      <trkpt lat="42.34691" lon="0.25767">
        <ele>585.2</ele>
        <time>2018-05-06T12:10:05Z</time>
      </trkpt>
      <trkpt lat="42.34704" lon="0.25779">
        <ele>585.2</ele>
        <time>2018-05-06T12:10:11Z</time>
      </trkpt>
      <trkpt lat="42.34711" lon="0.2578">
        <ele>585.3</ele>
        <time>2018-05-06T12:10:14Z</time>
      </trkpt>
      <trkpt lat="42.34717" lon="0.25782">
        <ele>585.3</ele>
        <time>2018-05-06T12:10:17Z</time>
      </trkpt>
      <trkpt lat="42.34732" lon="0.25795">
        <ele>585.4</ele>
        <time>2018-05-06T12:10:25Z</time>
      </trkpt>
      <trkpt lat="42.34741" lon="0.25799">
        <ele>585.4</ele>
        <time>2018-05-06T12:10:29Z</time>
      </trkpt>
      <trkpt lat="42.34759" lon="0.2581">
        <ele>585.6</ele>
        <time>2018-05-06T12:10:35Z</time>
      </trkpt>
      <trkpt lat="42.34774" lon="0.25824">
        <ele>585.7</ele>
        <time>2018-05-06T12:10:42Z</time>
      </trkpt>
      <trkpt lat="42.34782" lon="0.25841">
        <ele>585.9</ele>
        <time>2018-05-06T12:10:47Z</time>
      </trkpt>
      <trkpt lat="42.34797" lon="0.25855">
        <ele>586.2</ele>
        <time>2018-05-06T12:10:54Z</time>
      </trkpt>
      <trkpt lat="42.34817" lon="0.25865">
        <ele>586.6</ele>
        <time>2018-05-06T12:11:01Z</time>
      </trkpt>
      <trkpt lat="42.34833" lon="0.25881">
        <ele>587</ele>
        <time>2018-05-06T12:11:07Z</time>
      </trkpt>
      <trkpt lat="42.34852" lon="0.25887">
        <ele>587.3</ele>
        <time>2018-05-06T12:11:13Z</time>
      </trkpt>
      <trkpt lat="42.34865" lon="0.25883">
        <ele>587.6</ele>
        <time>2018-05-06T12:11:19Z</time>
      </trkpt>
      <trkpt lat="42.34869" lon="0.25878">
        <ele>587.8</ele>
        <time>2018-05-06T12:11:22Z</time>
      </trkpt>
      <trkpt lat="42.34887" lon="0.2588">
        <ele>588.3</ele>
        <time>2018-05-06T12:11:29Z</time>
      </trkpt>
      <trkpt lat="42.34906" lon="0.25884">
        <ele>588.8</ele>
        <time>2018-05-06T12:11:35Z</time>
      </trkpt>
      <trkpt lat="42.3491" lon="0.25882">
        <ele>589</ele>
        <time>2018-05-06T12:11:37Z</time>
      </trkpt>
      <trkpt lat="42.34924" lon="0.25882">
        <ele>589.7</ele>
        <time>2018-05-06T12:11:43Z</time>
      </trkpt>
      <trkpt lat="42.34944" lon="0.25891">
        <ele>590</ele>
        <time>2018-05-06T12:11:50Z</time>
      </trkpt>
      <trkpt lat="42.34962" lon="0.25895">
        <ele>590.6</ele>
        <time>2018-05-06T12:11:58Z</time>
      </trkpt>
      <trkpt lat="42.34981" lon="0.259">
        <ele>591.3</ele>
        <time>2018-05-06T12:12:07Z</time>
      </trkpt>
      <trkpt lat="42.35" lon="0.25911">
        <ele>591.9</ele>
        <time>2018-05-06T12:12:14Z</time>
      </trkpt>
      <trkpt lat="42.35017" lon="0.25915">
        <ele>592.3</ele>
        <time>2018-05-06T12:13:04Z</time>
      </trkpt>
      <trkpt lat="42.35033" lon="0.25927">
        <ele>592.2</ele>
        <time>2018-05-06T12:13:26Z</time>
      </trkpt>
      <trkpt lat="42.35048" lon="0.2594">
        <ele>592.2</ele>
        <time>2018-05-06T12:13:34Z</time>
      </trkpt>
      <trkpt lat="42.35066" lon="0.25946">
        <ele>592.6</ele>
        <time>2018-05-06T12:13:40Z</time>
      </trkpt>
      <trkpt lat="42.35084" lon="0.25955">
        <ele>592.7</ele>
        <time>2018-05-06T12:13:46Z</time>
      </trkpt>
      <trkpt lat="42.35103" lon="0.25964">
        <ele>592.8</ele>
        <time>2018-05-06T12:13:52Z</time>
      </trkpt>
      <trkpt lat="42.35121" lon="0.25969">
        <ele>592.9</ele>
        <time>2018-05-06T12:13:58Z</time>
      </trkpt>
      <trkpt lat="42.35138" lon="0.25983">
        <ele>593.2</ele>
        <time>2018-05-06T12:14:06Z</time>
      </trkpt>
      <trkpt lat="42.35153" lon="0.26">
        <ele>593.2</ele>
        <time>2018-05-06T12:14:13Z</time>
      </trkpt>
      <trkpt lat="42.35167" lon="0.26017">
        <ele>593.3</ele>
        <time>2018-05-06T12:14:21Z</time>
      </trkpt>
      <trkpt lat="42.35185" lon="0.26027">
        <ele>593.5</ele>
        <time>2018-05-06T12:14:29Z</time>
      </trkpt>
      <trkpt lat="42.35203" lon="0.2603">
        <ele>594</ele>
        <time>2018-05-06T12:14:35Z</time>
      </trkpt>
      <trkpt lat="42.35222" lon="0.26036">
        <ele>594.4</ele>
        <time>2018-05-06T12:14:43Z</time>
      </trkpt>
      <trkpt lat="42.35239" lon="0.26046">
        <ele>594.4</ele>
        <time>2018-05-06T12:14:55Z</time>
      </trkpt>
      <trkpt lat="42.3524" lon="0.26054">
        <ele>594.2</ele>
        <time>2018-05-06T12:14:59Z</time>
      </trkpt>
      <trkpt lat="42.3523" lon="0.26068">
        <ele>593.9</ele>
        <time>2018-05-06T12:15:05Z</time>
      </trkpt>
      <trkpt lat="42.35241" lon="0.2609">
        <ele>593.7</ele>
        <time>2018-05-06T12:15:14Z</time>
      </trkpt>
      <trkpt lat="42.35244" lon="0.26094">
        <ele>593.7</ele>
        <time>2018-05-06T12:15:16Z</time>
      </trkpt>
      <trkpt lat="42.3526" lon="0.26106">
        <ele>593.8</ele>
        <time>2018-05-06T12:15:23Z</time>
      </trkpt>
      <trkpt lat="42.35274" lon="0.26126">
        <ele>594.4</ele>
        <time>2018-05-06T12:15:30Z</time>
      </trkpt>
      <trkpt lat="42.35276" lon="0.26151">
        <ele>595.1</ele>
        <time>2018-05-06T12:15:37Z</time>
      </trkpt>
      <trkpt lat="42.35284" lon="0.26178">
        <ele>595.5</ele>
        <time>2018-05-06T12:15:43Z</time>
      </trkpt>
      <trkpt lat="42.3528" lon="0.26202">
        <ele>595.2</ele>
        <time>2018-05-06T12:15:47Z</time>
      </trkpt>
      <trkpt lat="42.35275" lon="0.26211">
        <ele>594.7</ele>
        <time>2018-05-06T12:15:49Z</time>
      </trkpt>
      <trkpt lat="42.35263" lon="0.26229">
        <ele>593.9</ele>
        <time>2018-05-06T12:15:54Z</time>
      </trkpt>
      <trkpt lat="42.35262" lon="0.26256">
        <ele>593.3</ele>
        <time>2018-05-06T12:16:00Z</time>
      </trkpt>
      <trkpt lat="42.35262" lon="0.2628">
        <ele>593.2</ele>
        <time>2018-05-06T12:16:05Z</time>
      </trkpt>
      <trkpt lat="42.35259" lon="0.2629">
        <ele>593.2</ele>
        <time>2018-05-06T12:16:08Z</time>
      </trkpt>
      <trkpt lat="42.35257" lon="0.26301">
        <ele>593</ele>
        <time>2018-05-06T12:16:12Z</time>
      </trkpt>
      <trkpt lat="42.35257" lon="0.26326">
        <ele>593.4</ele>
        <time>2018-05-06T12:16:19Z</time>
      </trkpt>
      <trkpt lat="42.35269" lon="0.26349">
        <ele>594.2</ele>
        <time>2018-05-06T12:16:25Z</time>
      </trkpt>
      <trkpt lat="42.3528" lon="0.26372">
        <ele>595.3</ele>
        <time>2018-05-06T12:16:31Z</time>
      </trkpt>
      <trkpt lat="42.35291" lon="0.26395">
        <ele>596.3</ele>
        <time>2018-05-06T12:16:38Z</time>
      </trkpt>
      <trkpt lat="42.35297" lon="0.2642">
        <ele>597.2</ele>
        <time>2018-05-06T12:16:45Z</time>
      </trkpt>
      <trkpt lat="42.35302" lon="0.26446">
        <ele>597.8</ele>
        <time>2018-05-06T12:16:52Z</time>
      </trkpt>
      <trkpt lat="42.35307" lon="0.26463">
        <ele>598</ele>
        <time>2018-05-06T12:16:57Z</time>
      </trkpt>
      <trkpt lat="42.35316" lon="0.26478">
        <ele>598.1</ele>
        <time>2018-05-06T12:17:02Z</time>
      </trkpt>
      <trkpt lat="42.35328" lon="0.26497">
        <ele>598.2</ele>
        <time>2018-05-06T12:17:09Z</time>
      </trkpt>
      <trkpt lat="42.35337" lon="0.26517">
        <ele>598.3</ele>
        <time>2018-05-06T12:18:17Z</time>
      </trkpt>
      <trkpt lat="42.35336" lon="0.26545">
        <ele>598.4</ele>
        <time>2018-05-06T12:18:26Z</time>
      </trkpt>
      <trkpt lat="42.35332" lon="0.2657">
        <ele>598.6</ele>
        <time>2018-05-06T12:18:32Z</time>
      </trkpt>
      <trkpt lat="42.35331" lon="0.26597">
        <ele>599</ele>
        <time>2018-05-06T12:18:38Z</time>
      </trkpt>
      <trkpt lat="42.35332" lon="0.26621">
        <ele>600.1</ele>
        <time>2018-05-06T12:18:44Z</time>
      </trkpt>
      <trkpt lat="42.35337" lon="0.26646">
        <ele>601.1</ele>
        <time>2018-05-06T12:18:51Z</time>
      </trkpt>
      <trkpt lat="42.3534" lon="0.26671">
        <ele>602</ele>
        <time>2018-05-06T12:19:00Z</time>
      </trkpt>
      <trkpt lat="42.35343" lon="0.26696">
        <ele>602.5</ele>
        <time>2018-05-06T12:19:19Z</time>
      </trkpt>
      <trkpt lat="42.35341" lon="0.26725">
        <ele>602.2</ele>
        <time>2018-05-06T12:19:25Z</time>
      </trkpt>
      <trkpt lat="42.35342" lon="0.26741">
        <ele>602</ele>
        <time>2018-05-06T12:19:29Z</time>
      </trkpt>
      <trkpt lat="42.35333" lon="0.26762">
        <ele>601.2</ele>
        <time>2018-05-06T12:19:35Z</time>
      </trkpt>
      <trkpt lat="42.35328" lon="0.26771">
        <ele>601.1</ele>
        <time>2018-05-06T12:19:38Z</time>
      </trkpt>
      <trkpt lat="42.35328" lon="0.26784">
        <ele>601.1</ele>
        <time>2018-05-06T12:19:42Z</time>
      </trkpt>
      <trkpt lat="42.35329" lon="0.26798">
        <ele>601.4</ele>
        <time>2018-05-06T12:19:52Z</time>
      </trkpt>
      <trkpt lat="42.35323" lon="0.26822">
        <ele>601.4</ele>
        <time>2018-05-06T12:20:00Z</time>
      </trkpt>
      <trkpt lat="42.35322" lon="0.26831">
        <ele>601.6</ele>
        <time>2018-05-06T12:20:02Z</time>
      </trkpt>
      <trkpt lat="42.35327" lon="0.26854">
        <ele>601.9</ele>
        <time>2018-05-06T12:20:08Z</time>
      </trkpt>
      <trkpt lat="42.35338" lon="0.26876">
        <ele>602.4</ele>
        <time>2018-05-06T12:20:14Z</time>
      </trkpt>
      <trkpt lat="42.3534" lon="0.26893">
        <ele>602.6</ele>
        <time>2018-05-06T12:20:20Z</time>
      </trkpt>
      <trkpt lat="42.3534" lon="0.26921">
        <ele>602.8</ele>
        <time>2018-05-06T12:20:27Z</time>
      </trkpt>
      <trkpt lat="42.35339" lon="0.26948">
        <ele>602.9</ele>
        <time>2018-05-06T12:20:33Z</time>
      </trkpt>
      <trkpt lat="42.35344" lon="0.26971">
        <ele>603</ele>
        <time>2018-05-06T12:20:38Z</time>
      </trkpt>
      <trkpt lat="42.35353" lon="0.26993">
        <ele>603.3</ele>
        <time>2018-05-06T12:20:43Z</time>
      </trkpt>
      <trkpt lat="42.35362" lon="0.27017">
        <ele>603.9</ele>
        <time>2018-05-06T12:20:48Z</time>
      </trkpt>
      <trkpt lat="42.35369" lon="0.27044">
        <ele>604.8</ele>
        <time>2018-05-06T12:20:54Z</time>
      </trkpt>
      <trkpt lat="42.35375" lon="0.27071">
        <ele>605.8</ele>
        <time>2018-05-06T12:21:00Z</time>
      </trkpt>
      <trkpt lat="42.35387" lon="0.27092">
        <ele>606.2</ele>
        <time>2018-05-06T12:21:07Z</time>
      </trkpt>
      <trkpt lat="42.35399" lon="0.2711">
        <ele>606.5</ele>
        <time>2018-05-06T12:21:13Z</time>
      </trkpt>
      <trkpt lat="42.35417" lon="0.27123">
        <ele>606.6</ele>
        <time>2018-05-06T12:21:18Z</time>
      </trkpt>
      <trkpt lat="42.35421" lon="0.27125">
        <ele>606.6</ele>
        <time>2018-05-06T12:21:19Z</time>
      </trkpt>
      <trkpt lat="42.35439" lon="0.27132">
        <ele>606.6</ele>
        <time>2018-05-06T12:21:23Z</time>
      </trkpt>
      <trkpt lat="42.35454" lon="0.27127">
        <ele>606.6</ele>
        <time>2018-05-06T12:21:26Z</time>
      </trkpt>
      <trkpt lat="42.35458" lon="0.27125">
        <ele>606.6</ele>
        <time>2018-05-06T12:21:27Z</time>
      </trkpt>
      <trkpt lat="42.35477" lon="0.27119">
        <ele>606.6</ele>
        <time>2018-05-06T12:21:31Z</time>
      </trkpt>
      <trkpt lat="42.35494" lon="0.27108">
        <ele>606.7</ele>
        <time>2018-05-06T12:21:35Z</time>
      </trkpt>
      <trkpt lat="42.35511" lon="0.27096">
        <ele>606.8</ele>
        <time>2018-05-06T12:21:40Z</time>
      </trkpt>
      <trkpt lat="42.35526" lon="0.27097">
        <ele>607</ele>
        <time>2018-05-06T12:21:47Z</time>
      </trkpt>
      <trkpt lat="42.35534" lon="0.27111">
        <ele>607.2</ele>
        <time>2018-05-06T12:21:52Z</time>
      </trkpt>
      <trkpt lat="42.35549" lon="0.27125">
        <ele>607.2</ele>
        <time>2018-05-06T12:21:57Z</time>
      </trkpt>
      <trkpt lat="42.35566" lon="0.27138">
        <ele>607.1</ele>
        <time>2018-05-06T12:22:02Z</time>
      </trkpt>
      <trkpt lat="42.35583" lon="0.27152">
        <ele>607</ele>
        <time>2018-05-06T12:22:07Z</time>
      </trkpt>
      <trkpt lat="42.35599" lon="0.27168">
        <ele>606.7</ele>
        <time>2018-05-06T12:22:12Z</time>
      </trkpt>
      <trkpt lat="42.35614" lon="0.27182">
        <ele>606.7</ele>
        <time>2018-05-06T12:22:17Z</time>
      </trkpt>
      <trkpt lat="42.35631" lon="0.27192">
        <ele>606.9</ele>
        <time>2018-05-06T12:22:22Z</time>
      </trkpt>
      <trkpt lat="42.35649" lon="0.27181">
        <ele>607.2</ele>
        <time>2018-05-06T12:22:27Z</time>
      </trkpt>
      <trkpt lat="42.35667" lon="0.27167">
        <ele>607.6</ele>
        <time>2018-05-06T12:22:32Z</time>
      </trkpt>
      <trkpt lat="42.35685" lon="0.27153">
        <ele>608.1</ele>
        <time>2018-05-06T12:22:37Z</time>
      </trkpt>
      <trkpt lat="42.35701" lon="0.2714">
        <ele>608.6</ele>
        <time>2018-05-06T12:22:42Z</time>
      </trkpt>
      <trkpt lat="42.35719" lon="0.27129">
        <ele>609.1</ele>
        <time>2018-05-06T12:22:47Z</time>
      </trkpt>
      <trkpt lat="42.35723" lon="0.27128">
        <ele>609.1</ele>
        <time>2018-05-06T12:22:48Z</time>
      </trkpt>
      <trkpt lat="42.35743" lon="0.2713">
        <ele>609.5</ele>
        <time>2018-05-06T12:22:53Z</time>
      </trkpt>
      <trkpt lat="42.35758" lon="0.27136">
        <ele>609.6</ele>
        <time>2018-05-06T12:22:57Z</time>
      </trkpt>
      <trkpt lat="42.35776" lon="0.2714">
        <ele>609.6</ele>
        <time>2018-05-06T12:23:02Z</time>
      </trkpt>
      <trkpt lat="42.35796" lon="0.27149">
        <ele>609.6</ele>
        <time>2018-05-06T12:23:08Z</time>
      </trkpt>
      <trkpt lat="42.35814" lon="0.27151">
        <ele>609.8</ele>
        <time>2018-05-06T12:23:13Z</time>
      </trkpt>
      <trkpt lat="42.35834" lon="0.27148">
        <ele>610.3</ele>
        <time>2018-05-06T12:23:19Z</time>
      </trkpt>
      <trkpt lat="42.3585" lon="0.27137">
        <ele>610.9</ele>
        <time>2018-05-06T12:23:24Z</time>
      </trkpt>
      <trkpt lat="42.35865" lon="0.27118">
        <ele>611.8</ele>
        <time>2018-05-06T12:23:30Z</time>
      </trkpt>
      <trkpt lat="42.35882" lon="0.27102">
        <ele>612.4</ele>
        <time>2018-05-06T12:23:36Z</time>
      </trkpt>
      <trkpt lat="42.35901" lon="0.27099">
        <ele>612.9</ele>
        <time>2018-05-06T12:23:42Z</time>
      </trkpt>
      <trkpt lat="42.3592" lon="0.27095">
        <ele>613.1</ele>
        <time>2018-05-06T12:23:48Z</time>
      </trkpt>
      <trkpt lat="42.35925" lon="0.27092">
        <ele>613.2</ele>
        <time>2018-05-06T12:23:50Z</time>
      </trkpt>
      <trkpt lat="42.35942" lon="0.2708">
        <ele>613.4</ele>
        <time>2018-05-06T12:23:57Z</time>
      </trkpt>
      <trkpt lat="42.35961" lon="0.27072">
        <ele>613.5</ele>
        <time>2018-05-06T12:24:03Z</time>
      </trkpt>
      <trkpt lat="42.3598" lon="0.2706">
        <ele>613.7</ele>
        <time>2018-05-06T12:24:09Z</time>
      </trkpt>
      <trkpt lat="42.35998" lon="0.27052">
        <ele>613.8</ele>
        <time>2018-05-06T12:24:14Z</time>
      </trkpt>
      <trkpt lat="42.36018" lon="0.27044">
        <ele>613.9</ele>
        <time>2018-05-06T12:24:19Z</time>
      </trkpt>
      <trkpt lat="42.36038" lon="0.27039">
        <ele>614.1</ele>
        <time>2018-05-06T12:24:24Z</time>
      </trkpt>
      <trkpt lat="42.36056" lon="0.27038">
        <ele>614.3</ele>
        <time>2018-05-06T12:24:29Z</time>
      </trkpt>
      <trkpt lat="42.36064" lon="0.27038">
        <ele>614.3</ele>
        <time>2018-05-06T12:24:31Z</time>
      </trkpt>
      <trkpt lat="42.36079" lon="0.27039">
        <ele>614.3</ele>
        <time>2018-05-06T12:24:35Z</time>
      </trkpt>
      <trkpt lat="42.36099" lon="0.27033">
        <ele>614.4</ele>
        <time>2018-05-06T12:24:42Z</time>
      </trkpt>
      <trkpt lat="42.36116" lon="0.27026">
        <ele>614.3</ele>
        <time>2018-05-06T12:24:49Z</time>
      </trkpt>
      <trkpt lat="42.36136" lon="0.2702">
        <ele>614.3</ele>
        <time>2018-05-06T12:24:55Z</time>
      </trkpt>
      <trkpt lat="42.36153" lon="0.27004">
        <ele>614.4</ele>
        <time>2018-05-06T12:25:01Z</time>
      </trkpt>
      <trkpt lat="42.36173" lon="0.27001">
        <ele>614.5</ele>
        <time>2018-05-06T12:25:07Z</time>
      </trkpt>
      <trkpt lat="42.36191" lon="0.27006">
        <ele>614.4</ele>
        <time>2018-05-06T12:25:12Z</time>
      </trkpt>
      <trkpt lat="42.3621" lon="0.2702">
        <ele>614.2</ele>
        <time>2018-05-06T12:25:18Z</time>
      </trkpt>
      <trkpt lat="42.36226" lon="0.27031">
        <ele>614.5</ele>
        <time>2018-05-06T12:25:23Z</time>
      </trkpt>
      <trkpt lat="42.36245" lon="0.27044">
        <ele>615.1</ele>
        <time>2018-05-06T12:25:29Z</time>
      </trkpt>
      <trkpt lat="42.36261" lon="0.27064">
        <ele>615.8</ele>
        <time>2018-05-06T12:25:35Z</time>
      </trkpt>
      <trkpt lat="42.36278" lon="0.27079">
        <ele>616.3</ele>
        <time>2018-05-06T12:25:41Z</time>
      </trkpt>
      <trkpt lat="42.36298" lon="0.27083">
        <ele>616.8</ele>
        <time>2018-05-06T12:25:47Z</time>
      </trkpt>
      <trkpt lat="42.36314" lon="0.27098">
        <ele>617.2</ele>
        <time>2018-05-06T12:25:53Z</time>
      </trkpt>
      <trkpt lat="42.36333" lon="0.27113">
        <ele>617.3</ele>
        <time>2018-05-06T12:25:59Z</time>
      </trkpt>
      <trkpt lat="42.36352" lon="0.27123">
        <ele>617.3</ele>
        <time>2018-05-06T12:26:04Z</time>
      </trkpt>
      <trkpt lat="42.36368" lon="0.27133">
        <ele>617.2</ele>
        <time>2018-05-06T12:26:09Z</time>
      </trkpt>
      <trkpt lat="42.36385" lon="0.2714">
        <ele>617.2</ele>
        <time>2018-05-06T12:26:15Z</time>
      </trkpt>
      <trkpt lat="42.36404" lon="0.27137">
        <ele>617.1</ele>
        <time>2018-05-06T12:26:20Z</time>
      </trkpt>
      <trkpt lat="42.36423" lon="0.27135">
        <ele>617.1</ele>
        <time>2018-05-06T12:26:25Z</time>
      </trkpt>
      <trkpt lat="42.36431" lon="0.27133">
        <ele>617</ele>
        <time>2018-05-06T12:26:27Z</time>
      </trkpt>
      <trkpt lat="42.36453" lon="0.27131">
        <ele>616.8</ele>
        <time>2018-05-06T12:26:32Z</time>
      </trkpt>
      <trkpt lat="42.36472" lon="0.27127">
        <ele>616.8</ele>
        <time>2018-05-06T12:26:37Z</time>
      </trkpt>
      <trkpt lat="42.36491" lon="0.2712">
        <ele>617.1</ele>
        <time>2018-05-06T12:26:44Z</time>
      </trkpt>
      <trkpt lat="42.3651" lon="0.2712">
        <ele>617.7</ele>
        <time>2018-05-06T12:26:50Z</time>
      </trkpt>
      <trkpt lat="42.36532" lon="0.27122">
        <ele>618.5</ele>
        <time>2018-05-06T12:26:56Z</time>
      </trkpt>
      <trkpt lat="42.36552" lon="0.27124">
        <ele>618.9</ele>
        <time>2018-05-06T12:27:01Z</time>
      </trkpt>
      <trkpt lat="42.36572" lon="0.2713">
        <ele>619.3</ele>
        <time>2018-05-06T12:27:06Z</time>
      </trkpt>
      <trkpt lat="42.3659" lon="0.27128">
        <ele>619.6</ele>
        <time>2018-05-06T12:27:11Z</time>
      </trkpt>
      <trkpt lat="42.36606" lon="0.27122">
        <ele>619.7</ele>
        <time>2018-05-06T12:27:18Z</time>
      </trkpt>
      <trkpt lat="42.36621" lon="0.27139">
        <ele>619.8</ele>
        <time>2018-05-06T12:27:27Z</time>
      </trkpt>
      <trkpt lat="42.36623" lon="0.27141">
        <ele>619.8</ele>
        <time>2018-05-06T12:27:28Z</time>
      </trkpt>
      <trkpt lat="42.3664" lon="0.2715">
        <ele>620.2</ele>
        <time>2018-05-06T12:27:37Z</time>
      </trkpt>
      <trkpt lat="42.36658" lon="0.27155">
        <ele>620.8</ele>
        <time>2018-05-06T12:27:47Z</time>
      </trkpt>
      <trkpt lat="42.36676" lon="0.27159">
        <ele>621.3</ele>
        <time>2018-05-06T12:27:55Z</time>
      </trkpt>
      <trkpt lat="42.36689" lon="0.27178">
        <ele>621.7</ele>
        <time>2018-05-06T12:28:02Z</time>
      </trkpt>
      <trkpt lat="42.367" lon="0.272">
        <ele>622.1</ele>
        <time>2018-05-06T12:28:09Z</time>
      </trkpt>
      <trkpt lat="42.36713" lon="0.27221">
        <ele>622.2</ele>
        <time>2018-05-06T12:28:16Z</time>
      </trkpt>
      <trkpt lat="42.36729" lon="0.27235">
        <ele>622.6</ele>
        <time>2018-05-06T12:28:22Z</time>
      </trkpt>
      <trkpt lat="42.36747" lon="0.27234">
        <ele>623.6</ele>
        <time>2018-05-06T12:28:30Z</time>
      </trkpt>
      <trkpt lat="42.36763" lon="0.27219">
        <ele>625</ele>
        <time>2018-05-06T12:28:37Z</time>
      </trkpt>
      <trkpt lat="42.36776" lon="0.27202">
        <ele>625.8</ele>
        <time>2018-05-06T12:28:42Z</time>
      </trkpt>
      <trkpt lat="42.36792" lon="0.27187">
        <ele>626.5</ele>
        <time>2018-05-06T12:28:47Z</time>
      </trkpt>
      <trkpt lat="42.3681" lon="0.27176">
        <ele>627</ele>
        <time>2018-05-06T12:28:52Z</time>
      </trkpt>
      <trkpt lat="42.36829" lon="0.27167">
        <ele>627.4</ele>
        <time>2018-05-06T12:28:57Z</time>
      </trkpt>
      <trkpt lat="42.36849" lon="0.27159">
        <ele>627.7</ele>
        <time>2018-05-06T12:29:02Z</time>
      </trkpt>
      <trkpt lat="42.36868" lon="0.27151">
        <ele>628</ele>
        <time>2018-05-06T12:29:07Z</time>
      </trkpt>
      <trkpt lat="42.36887" lon="0.27143">
        <ele>628.3</ele>
        <time>2018-05-06T12:29:12Z</time>
      </trkpt>
      <trkpt lat="42.36906" lon="0.27134">
        <ele>628.7</ele>
        <time>2018-05-06T12:29:17Z</time>
      </trkpt>
      <trkpt lat="42.36924" lon="0.27127">
        <ele>629.9</ele>
        <time>2018-05-06T12:29:22Z</time>
      </trkpt>
      <trkpt lat="42.36943" lon="0.27119">
        <ele>630.5</ele>
        <time>2018-05-06T12:29:27Z</time>
      </trkpt>
      <trkpt lat="42.36961" lon="0.27112">
        <ele>631</ele>
        <time>2018-05-06T12:29:32Z</time>
      </trkpt>
      <trkpt lat="42.36979" lon="0.27106">
        <ele>631</ele>
        <time>2018-05-06T12:29:37Z</time>
      </trkpt>
      <trkpt lat="42.36997" lon="0.27103">
        <ele>631.5</ele>
        <time>2018-05-06T12:29:43Z</time>
      </trkpt>
      <trkpt lat="42.37016" lon="0.27098">
        <ele>632.7</ele>
        <time>2018-05-06T12:29:48Z</time>
      </trkpt>
      <trkpt lat="42.37038" lon="0.27095">
        <ele>633.6</ele>
        <time>2018-05-06T12:29:53Z</time>
      </trkpt>
      <trkpt lat="42.37042" lon="0.27094">
        <ele>633.7</ele>
        <time>2018-05-06T12:29:54Z</time>
      </trkpt>
      <trkpt lat="42.37063" lon="0.27091">
        <ele>634.2</ele>
        <time>2018-05-06T12:29:59Z</time>
      </trkpt>
      <trkpt lat="42.37084" lon="0.27088">
        <ele>634.5</ele>
        <time>2018-05-06T12:30:04Z</time>
      </trkpt>
      <trkpt lat="42.37104" lon="0.27085">
        <ele>634.9</ele>
        <time>2018-05-06T12:30:09Z</time>
      </trkpt>
      <trkpt lat="42.37124" lon="0.27082">
        <ele>635</ele>
        <time>2018-05-06T12:30:14Z</time>
      </trkpt>
      <trkpt lat="42.37145" lon="0.27077">
        <ele>635.1</ele>
        <time>2018-05-06T12:30:19Z</time>
      </trkpt>
      <trkpt lat="42.37166" lon="0.27074">
        <ele>635.2</ele>
        <time>2018-05-06T12:30:24Z</time>
      </trkpt>
      <trkpt lat="42.37186" lon="0.2707">
        <ele>635.2</ele>
        <time>2018-05-06T12:30:29Z</time>
      </trkpt>
      <trkpt lat="42.37206" lon="0.27068">
        <ele>635.6</ele>
        <time>2018-05-06T12:30:34Z</time>
      </trkpt>
      <trkpt lat="42.37225" lon="0.27062">
        <ele>636.1</ele>
        <time>2018-05-06T12:30:39Z</time>
      </trkpt>
      <trkpt lat="42.37245" lon="0.27061">
        <ele>636.3</ele>
        <time>2018-05-06T12:30:44Z</time>
      </trkpt>
      <trkpt lat="42.37264" lon="0.27058">
        <ele>636.5</ele>
        <time>2018-05-06T12:30:49Z</time>
      </trkpt>
      <trkpt lat="42.37283" lon="0.27054">
        <ele>636.6</ele>
        <time>2018-05-06T12:30:54Z</time>
      </trkpt>
      <trkpt lat="42.37302" lon="0.27053">
        <ele>637</ele>
        <time>2018-05-06T12:30:59Z</time>
      </trkpt>
      <trkpt lat="42.3732" lon="0.27054">
        <ele>637</ele>
        <time>2018-05-06T12:31:04Z</time>
      </trkpt>
      <trkpt lat="42.37338" lon="0.27058">
        <ele>636.6</ele>
        <time>2018-05-06T12:31:10Z</time>
      </trkpt>
      <trkpt lat="42.3736" lon="0.27065">
        <ele>636.6</ele>
        <time>2018-05-06T12:31:14Z</time>
      </trkpt>
      <trkpt lat="42.37374" lon="0.27072">
        <ele>636.6</ele>
        <time>2018-05-06T12:31:16Z</time>
      </trkpt>
      <trkpt lat="42.37395" lon="0.27087">
        <ele>636.4</ele>
        <time>2018-05-06T12:31:19Z</time>
      </trkpt>
      <trkpt lat="42.37404" lon="0.27094">
        <ele>636.3</ele>
        <time>2018-05-06T12:31:21Z</time>
      </trkpt>
      <trkpt lat="42.37413" lon="0.2711">
        <ele>636.2</ele>
        <time>2018-05-06T12:31:27Z</time>
      </trkpt>
      <trkpt lat="42.37413" lon="0.27113">
        <ele>636.2</ele>
        <time>2018-05-06T12:31:41Z</time>
      </trkpt>
    </trkseg>
  </trk>
</gpx>